<?xml version="1.0" encoding="UTF-8" standalone="no" ?>
<gpx xmlns="http://www.topografix.com/GPX/1/1" xmlns:xsi="http://www.w3.org/2001/XMLSchema-instance" xsi:schemaLocation="http://www.topografix.com/GPX/1/1 http://www.topografix.com/GPX/1/1/gpx.xsd" version="1.1" creator="VisuGPX - https://www.visugpx.com">
  <metadata>
    <name>Saint-Ouen-l'Aumône-Liesse à Valmondois</name>
    <desc><![CDATA[Randonnée de 17 km en ligne]]></desc>
  </metadata>
  <trk>
    <name><![CDATA[Saint-Ouen- l'Aumône à Valmondois _R]]></name>
    <trkseg>
      <trkpt lat="49.03404" lon="2.12838">
        <ele>41.15</ele>
        <time>2022-02-06T08:16:25Z</time>
      </trkpt>
      <trkpt lat="49.03415" lon="2.12854">
        <ele>40.66</ele>
        <time>2022-02-06T08:20:28Z</time>
      </trkpt>
      <trkpt lat="49.03415" lon="2.12854">
        <ele>40.29</ele>
        <time>2022-02-06T08:20:46Z</time>
      </trkpt>
      <trkpt lat="49.03415" lon="2.12848">
        <ele>39.67</ele>
        <time>2022-02-06T08:22:41Z</time>
      </trkpt>
      <trkpt lat="49.03419" lon="2.1285">
        <ele>40.8</ele>
        <time>2022-02-06T08:22:56Z</time>
      </trkpt>
      <trkpt lat="49.03423" lon="2.12863">
        <ele>40.7</ele>
        <time>2022-02-06T08:23:11Z</time>
      </trkpt>
      <trkpt lat="49.03427" lon="2.12876">
        <ele>36.86</ele>
        <time>2022-02-06T08:23:25Z</time>
      </trkpt>
      <trkpt lat="49.03428" lon="2.12877">
        <ele>36.62</ele>
        <time>2022-02-06T08:23:26Z</time>
      </trkpt>
      <trkpt lat="49.03434" lon="2.12883">
        <ele>35.3</ele>
        <time>2022-02-06T08:23:40Z</time>
      </trkpt>
      <trkpt lat="49.03438" lon="2.12881">
        <ele>37.15</ele>
        <time>2022-02-06T08:23:43Z</time>
      </trkpt>
      <trkpt lat="49.03446" lon="2.12876">
        <ele>38.9</ele>
        <time>2022-02-06T08:23:53Z</time>
      </trkpt>
      <trkpt lat="49.03452" lon="2.12872">
        <ele>38.34</ele>
        <time>2022-02-06T08:24:03Z</time>
      </trkpt>
      <trkpt lat="49.03458" lon="2.1287">
        <ele>38.92</ele>
        <time>2022-02-06T08:24:13Z</time>
      </trkpt>
      <trkpt lat="49.03473" lon="2.12874">
        <ele>35.86</ele>
        <time>2022-02-06T08:24:28Z</time>
      </trkpt>
      <trkpt lat="49.03487" lon="2.12876">
        <ele>34.66</ele>
        <time>2022-02-06T08:24:43Z</time>
      </trkpt>
      <trkpt lat="49.03505" lon="2.12883">
        <ele>32.33</ele>
        <time>2022-02-06T08:24:59Z</time>
      </trkpt>
      <trkpt lat="49.03516" lon="2.12888">
        <ele>31.5</ele>
        <time>2022-02-06T08:25:13Z</time>
      </trkpt>
      <trkpt lat="49.03529" lon="2.12894">
        <ele>30.12</ele>
        <time>2022-02-06T08:25:26Z</time>
      </trkpt>
      <trkpt lat="49.03543" lon="2.12892">
        <ele>28.84</ele>
        <time>2022-02-06T08:25:42Z</time>
      </trkpt>
      <trkpt lat="49.03552" lon="2.12894">
        <ele>27.67</ele>
        <time>2022-02-06T08:25:57Z</time>
      </trkpt>
      <trkpt lat="49.03564" lon="2.12898">
        <ele>25.48</ele>
        <time>2022-02-06T08:26:09Z</time>
      </trkpt>
      <trkpt lat="49.03573" lon="2.12901">
        <ele>26.4</ele>
        <time>2022-02-06T08:26:20Z</time>
      </trkpt>
      <trkpt lat="49.03574" lon="2.129">
        <ele>25.79</ele>
        <time>2022-02-06T08:26:28Z</time>
      </trkpt>
      <trkpt lat="49.03586" lon="2.12907">
        <ele>24.92</ele>
        <time>2022-02-06T08:26:46Z</time>
      </trkpt>
      <trkpt lat="49.03598" lon="2.12915">
        <ele>24.57</ele>
        <time>2022-02-06T08:27:04Z</time>
      </trkpt>
      <trkpt lat="49.03613" lon="2.12921">
        <ele>25.08</ele>
        <time>2022-02-06T08:27:17Z</time>
      </trkpt>
      <trkpt lat="49.03622" lon="2.12925">
        <ele>23.52</ele>
        <time>2022-02-06T08:27:29Z</time>
      </trkpt>
      <trkpt lat="49.03635" lon="2.12935">
        <ele>24.47</ele>
        <time>2022-02-06T08:27:42Z</time>
      </trkpt>
      <trkpt lat="49.03648" lon="2.12942">
        <ele>25.75</ele>
        <time>2022-02-06T08:27:57Z</time>
      </trkpt>
      <trkpt lat="49.03651" lon="2.12941">
        <ele>25.46</ele>
        <time>2022-02-06T08:28:04Z</time>
      </trkpt>
      <trkpt lat="49.03658" lon="2.12949">
        <ele>25.99</ele>
        <time>2022-02-06T08:28:15Z</time>
      </trkpt>
      <trkpt lat="49.03669" lon="2.12957">
        <ele>27.08</ele>
        <time>2022-02-06T08:28:25Z</time>
      </trkpt>
      <trkpt lat="49.03682" lon="2.12964">
        <ele>27.97</ele>
        <time>2022-02-06T08:28:37Z</time>
      </trkpt>
      <trkpt lat="49.03683" lon="2.12966">
        <ele>28.62</ele>
        <time>2022-02-06T08:28:39Z</time>
      </trkpt>
      <trkpt lat="49.03687" lon="2.12978">
        <ele>29.11</ele>
        <time>2022-02-06T08:28:47Z</time>
      </trkpt>
      <trkpt lat="49.03689" lon="2.12978">
        <ele>29.67</ele>
        <time>2022-02-06T08:28:49Z</time>
      </trkpt>
      <trkpt lat="49.03692" lon="2.12971">
        <ele>29.32</ele>
        <time>2022-02-06T08:28:57Z</time>
      </trkpt>
      <trkpt lat="49.03696" lon="2.12955">
        <ele>29.35</ele>
        <time>2022-02-06T08:29:08Z</time>
      </trkpt>
      <trkpt lat="49.03698" lon="2.12941">
        <ele>30.53</ele>
        <time>2022-02-06T08:29:17Z</time>
      </trkpt>
      <trkpt lat="49.03701" lon="2.1292">
        <ele>30.05</ele>
        <time>2022-02-06T08:29:31Z</time>
      </trkpt>
      <trkpt lat="49.03702" lon="2.12911">
        <ele>30.49</ele>
        <time>2022-02-06T08:29:38Z</time>
      </trkpt>
      <trkpt lat="49.03704" lon="2.12898">
        <ele>30.62</ele>
        <time>2022-02-06T08:29:46Z</time>
      </trkpt>
      <trkpt lat="49.03707" lon="2.12878">
        <ele>31.03</ele>
        <time>2022-02-06T08:29:59Z</time>
      </trkpt>
      <trkpt lat="49.03708" lon="2.12872">
        <ele>32.04</ele>
        <time>2022-02-06T08:30:03Z</time>
      </trkpt>
      <trkpt lat="49.03711" lon="2.12862">
        <ele>31.76</ele>
        <time>2022-02-06T08:30:10Z</time>
      </trkpt>
      <trkpt lat="49.03719" lon="2.12838">
        <ele>32.73</ele>
        <time>2022-02-06T08:30:25Z</time>
      </trkpt>
      <trkpt lat="49.03726" lon="2.1282">
        <ele>31.62</ele>
        <time>2022-02-06T08:30:37Z</time>
      </trkpt>
      <trkpt lat="49.03737" lon="2.12797">
        <ele>31</ele>
        <time>2022-02-06T08:30:51Z</time>
      </trkpt>
      <trkpt lat="49.03742" lon="2.12786">
        <ele>31.17</ele>
        <time>2022-02-06T08:31:00Z</time>
      </trkpt>
      <trkpt lat="49.03743" lon="2.12784">
        <ele>30.64</ele>
        <time>2022-02-06T08:31:01Z</time>
      </trkpt>
      <trkpt lat="49.03748" lon="2.12771">
        <ele>30.4</ele>
        <time>2022-02-06T08:31:11Z</time>
      </trkpt>
      <trkpt lat="49.03749" lon="2.12768">
        <ele>29.07</ele>
        <time>2022-02-06T08:31:14Z</time>
      </trkpt>
      <trkpt lat="49.0375" lon="2.12763">
        <ele>26.96</ele>
        <time>2022-02-06T08:31:18Z</time>
      </trkpt>
      <trkpt lat="49.03753" lon="2.12748">
        <ele>26.86</ele>
        <time>2022-02-06T08:31:29Z</time>
      </trkpt>
      <trkpt lat="49.03754" lon="2.12744">
        <ele>27.17</ele>
        <time>2022-02-06T08:31:32Z</time>
      </trkpt>
      <trkpt lat="49.03767" lon="2.12733">
        <ele>28.66</ele>
        <time>2022-02-06T08:31:45Z</time>
      </trkpt>
      <trkpt lat="49.03771" lon="2.12731">
        <ele>28.93</ele>
        <time>2022-02-06T08:31:49Z</time>
      </trkpt>
      <trkpt lat="49.03776" lon="2.12729">
        <ele>29.19</ele>
        <time>2022-02-06T08:31:58Z</time>
      </trkpt>
      <trkpt lat="49.03787" lon="2.12722">
        <ele>28.89</ele>
        <time>2022-02-06T08:32:09Z</time>
      </trkpt>
      <trkpt lat="49.03801" lon="2.12715">
        <ele>30.44</ele>
        <time>2022-02-06T08:32:20Z</time>
      </trkpt>
      <trkpt lat="49.03814" lon="2.1271">
        <ele>30.58</ele>
        <time>2022-02-06T08:32:31Z</time>
      </trkpt>
      <trkpt lat="49.03823" lon="2.12708">
        <ele>30</ele>
        <time>2022-02-06T08:32:40Z</time>
      </trkpt>
      <trkpt lat="49.03827" lon="2.12707">
        <ele>29.88</ele>
        <time>2022-02-06T08:32:44Z</time>
      </trkpt>
      <trkpt lat="49.03843" lon="2.12707">
        <ele>30.27</ele>
        <time>2022-02-06T08:32:57Z</time>
      </trkpt>
      <trkpt lat="49.03845" lon="2.12707">
        <ele>30.11</ele>
        <time>2022-02-06T08:32:58Z</time>
      </trkpt>
      <trkpt lat="49.03856" lon="2.12709">
        <ele>30.16</ele>
        <time>2022-02-06T08:33:08Z</time>
      </trkpt>
      <trkpt lat="49.03868" lon="2.12712">
        <ele>28.8</ele>
        <time>2022-02-06T08:33:19Z</time>
      </trkpt>
      <trkpt lat="49.03876" lon="2.12715">
        <ele>28.66</ele>
        <time>2022-02-06T08:33:26Z</time>
      </trkpt>
      <trkpt lat="49.0388" lon="2.12716">
        <ele>28.84</ele>
        <time>2022-02-06T08:33:30Z</time>
      </trkpt>
      <trkpt lat="49.03882" lon="2.12717">
        <ele>28.09</ele>
        <time>2022-02-06T08:33:32Z</time>
      </trkpt>
      <trkpt lat="49.03894" lon="2.12717">
        <ele>27.93</ele>
        <time>2022-02-06T08:33:42Z</time>
      </trkpt>
      <trkpt lat="49.03909" lon="2.12719">
        <ele>27.9</ele>
        <time>2022-02-06T08:33:53Z</time>
      </trkpt>
      <trkpt lat="49.03924" lon="2.12713">
        <ele>27.65</ele>
        <time>2022-02-06T08:34:04Z</time>
      </trkpt>
      <trkpt lat="49.03935" lon="2.12702">
        <ele>27.83</ele>
        <time>2022-02-06T08:34:14Z</time>
      </trkpt>
      <trkpt lat="49.03942" lon="2.12699">
        <ele>28.61</ele>
        <time>2022-02-06T08:34:23Z</time>
      </trkpt>
      <trkpt lat="49.03945" lon="2.12695">
        <ele>29.18</ele>
        <time>2022-02-06T08:34:26Z</time>
      </trkpt>
      <trkpt lat="49.03947" lon="2.12687">
        <ele>28.14</ele>
        <time>2022-02-06T08:34:35Z</time>
      </trkpt>
      <trkpt lat="49.03962" lon="2.12681">
        <ele>27.92</ele>
        <time>2022-02-06T08:35:04Z</time>
      </trkpt>
      <trkpt lat="49.03979" lon="2.12644">
        <ele>27.05</ele>
        <time>2022-02-06T08:35:16Z</time>
      </trkpt>
      <trkpt lat="49.03977" lon="2.1263">
        <ele>26.85</ele>
        <time>2022-02-06T08:35:19Z</time>
      </trkpt>
      <trkpt lat="49.03966" lon="2.12566">
        <ele>27.53</ele>
        <time>2022-02-06T08:35:34Z</time>
      </trkpt>
      <trkpt lat="49.03964" lon="2.12555">
        <ele>27.89</ele>
        <time>2022-02-06T08:35:42Z</time>
      </trkpt>
      <trkpt lat="49.03965" lon="2.12544">
        <ele>27.7</ele>
        <time>2022-02-06T08:35:51Z</time>
      </trkpt>
      <trkpt lat="49.03969" lon="2.12523">
        <ele>28.28</ele>
        <time>2022-02-06T08:36:05Z</time>
      </trkpt>
      <trkpt lat="49.03972" lon="2.12511">
        <ele>27.62</ele>
        <time>2022-02-06T08:36:13Z</time>
      </trkpt>
      <trkpt lat="49.03971" lon="2.125">
        <ele>28.66</ele>
        <time>2022-02-06T08:36:19Z</time>
      </trkpt>
      <trkpt lat="49.03972" lon="2.12496">
        <ele>29.28</ele>
        <time>2022-02-06T08:36:22Z</time>
      </trkpt>
      <trkpt lat="49.03977" lon="2.12494">
        <ele>28.35</ele>
        <time>2022-02-06T08:36:28Z</time>
      </trkpt>
      <trkpt lat="49.03983" lon="2.125">
        <ele>29.37</ele>
        <time>2022-02-06T08:36:37Z</time>
      </trkpt>
      <trkpt lat="49.03983" lon="2.12513">
        <ele>28.61</ele>
        <time>2022-02-06T08:36:45Z</time>
      </trkpt>
      <trkpt lat="49.03995" lon="2.12522">
        <ele>28.16</ele>
        <time>2022-02-06T08:36:57Z</time>
      </trkpt>
      <trkpt lat="49.03998" lon="2.12521">
        <ele>27.78</ele>
        <time>2022-02-06T08:37:10Z</time>
      </trkpt>
      <trkpt lat="49.03999" lon="2.1252">
        <ele>28.84</ele>
        <time>2022-02-06T08:37:34Z</time>
      </trkpt>
      <trkpt lat="49.03996" lon="2.12529">
        <ele>27.98</ele>
        <time>2022-02-06T08:37:50Z</time>
      </trkpt>
      <trkpt lat="49.03995" lon="2.12532">
        <ele>28.46</ele>
        <time>2022-02-06T08:37:55Z</time>
      </trkpt>
      <trkpt lat="49.03995" lon="2.12537">
        <ele>28.04</ele>
        <time>2022-02-06T08:37:58Z</time>
      </trkpt>
      <trkpt lat="49.03998" lon="2.12548">
        <ele>26.63</ele>
        <time>2022-02-06T08:38:09Z</time>
      </trkpt>
      <trkpt lat="49.03999" lon="2.12549">
        <ele>26.56</ele>
        <time>2022-02-06T08:38:10Z</time>
      </trkpt>
      <trkpt lat="49.04006" lon="2.1257">
        <ele>24.87</ele>
        <time>2022-02-06T08:38:24Z</time>
      </trkpt>
      <trkpt lat="49.04008" lon="2.12573">
        <ele>24.54</ele>
        <time>2022-02-06T08:38:28Z</time>
      </trkpt>
      <trkpt lat="49.04015" lon="2.12591">
        <ele>24.07</ele>
        <time>2022-02-06T08:38:42Z</time>
      </trkpt>
      <trkpt lat="49.04028" lon="2.12611">
        <ele>23</ele>
        <time>2022-02-06T08:38:58Z</time>
      </trkpt>
      <trkpt lat="49.04036" lon="2.12621">
        <ele>23.8</ele>
        <time>2022-02-06T08:39:08Z</time>
      </trkpt>
      <trkpt lat="49.04038" lon="2.12623">
        <ele>23.09</ele>
        <time>2022-02-06T08:39:10Z</time>
      </trkpt>
      <trkpt lat="49.04044" lon="2.12635">
        <ele>22.5</ele>
        <time>2022-02-06T08:39:18Z</time>
      </trkpt>
      <trkpt lat="49.04048" lon="2.12647">
        <ele>22.88</ele>
        <time>2022-02-06T08:39:30Z</time>
      </trkpt>
      <trkpt lat="49.04054" lon="2.1265">
        <ele>22.11</ele>
        <time>2022-02-06T08:39:41Z</time>
      </trkpt>
      <trkpt lat="49.04068" lon="2.12657">
        <ele>22.25</ele>
        <time>2022-02-06T08:39:57Z</time>
      </trkpt>
      <trkpt lat="49.04078" lon="2.12663">
        <ele>22.15</ele>
        <time>2022-02-06T08:40:09Z</time>
      </trkpt>
      <trkpt lat="49.04088" lon="2.12671">
        <ele>21.41</ele>
        <time>2022-02-06T08:40:24Z</time>
      </trkpt>
      <trkpt lat="49.04104" lon="2.1268">
        <ele>21.03</ele>
        <time>2022-02-06T08:40:39Z</time>
      </trkpt>
      <trkpt lat="49.04118" lon="2.1269">
        <ele>21.82</ele>
        <time>2022-02-06T08:40:55Z</time>
      </trkpt>
      <trkpt lat="49.04131" lon="2.12696">
        <ele>21.5</ele>
        <time>2022-02-06T08:41:08Z</time>
      </trkpt>
      <trkpt lat="49.04142" lon="2.12701">
        <ele>20.71</ele>
        <time>2022-02-06T08:41:20Z</time>
      </trkpt>
      <trkpt lat="49.04158" lon="2.12711">
        <ele>21.17</ele>
        <time>2022-02-06T08:41:37Z</time>
      </trkpt>
      <trkpt lat="49.04175" lon="2.12723">
        <ele>20.28</ele>
        <time>2022-02-06T08:41:52Z</time>
      </trkpt>
      <trkpt lat="49.0419" lon="2.12725">
        <ele>20.66</ele>
        <time>2022-02-06T08:42:05Z</time>
      </trkpt>
      <trkpt lat="49.04205" lon="2.1271">
        <ele>20.46</ele>
        <time>2022-02-06T08:42:20Z</time>
      </trkpt>
      <trkpt lat="49.04206" lon="2.12708">
        <ele>20.89</ele>
        <time>2022-02-06T08:42:21Z</time>
      </trkpt>
      <trkpt lat="49.04209" lon="2.12704">
        <ele>20.47</ele>
        <time>2022-02-06T08:42:24Z</time>
      </trkpt>
      <trkpt lat="49.04222" lon="2.12687">
        <ele>19.73</ele>
        <time>2022-02-06T08:42:36Z</time>
      </trkpt>
      <trkpt lat="49.04231" lon="2.12671">
        <ele>20.28</ele>
        <time>2022-02-06T08:42:51Z</time>
      </trkpt>
      <trkpt lat="49.04241" lon="2.12651">
        <ele>20.61</ele>
        <time>2022-02-06T08:43:08Z</time>
      </trkpt>
      <trkpt lat="49.04246" lon="2.12646">
        <ele>20.77</ele>
        <time>2022-02-06T08:43:22Z</time>
      </trkpt>
      <trkpt lat="49.0425" lon="2.1264">
        <ele>19</ele>
        <time>2022-02-06T08:43:40Z</time>
      </trkpt>
      <trkpt lat="49.04258" lon="2.12623">
        <ele>20.02</ele>
        <time>2022-02-06T08:43:52Z</time>
      </trkpt>
      <trkpt lat="49.04264" lon="2.12614">
        <ele>20.87</ele>
        <time>2022-02-06T08:44:02Z</time>
      </trkpt>
      <trkpt lat="49.04265" lon="2.12612">
        <ele>21.05</ele>
        <time>2022-02-06T08:44:04Z</time>
      </trkpt>
      <trkpt lat="49.04263" lon="2.12607">
        <ele>20.27</ele>
        <time>2022-02-06T08:44:07Z</time>
      </trkpt>
      <trkpt lat="49.04264" lon="2.1259">
        <ele>20.27</ele>
        <time>2022-02-06T08:44:19Z</time>
      </trkpt>
      <trkpt lat="49.04266" lon="2.12576">
        <ele>19.8</ele>
        <time>2022-02-06T08:44:30Z</time>
      </trkpt>
      <trkpt lat="49.04269" lon="2.12559">
        <ele>19.95</ele>
        <time>2022-02-06T08:44:43Z</time>
      </trkpt>
      <trkpt lat="49.0427" lon="2.12549">
        <ele>20.14</ele>
        <time>2022-02-06T08:44:48Z</time>
      </trkpt>
      <trkpt lat="49.04269" lon="2.12535">
        <ele>19.26</ele>
        <time>2022-02-06T08:44:55Z</time>
      </trkpt>
      <trkpt lat="49.04268" lon="2.12521">
        <ele>19.87</ele>
        <time>2022-02-06T08:45:02Z</time>
      </trkpt>
      <trkpt lat="49.04269" lon="2.125">
        <ele>19.87</ele>
        <time>2022-02-06T08:45:13Z</time>
      </trkpt>
      <trkpt lat="49.04268" lon="2.12489">
        <ele>20.69</ele>
        <time>2022-02-06T08:45:25Z</time>
      </trkpt>
      <trkpt lat="49.04268" lon="2.12488">
        <ele>19.29</ele>
        <time>2022-02-06T08:45:26Z</time>
      </trkpt>
      <trkpt lat="49.04268" lon="2.12482">
        <ele>19.36</ele>
        <time>2022-02-06T08:45:30Z</time>
      </trkpt>
      <trkpt lat="49.04267" lon="2.12475">
        <ele>19.55</ele>
        <time>2022-02-06T08:45:34Z</time>
      </trkpt>
      <trkpt lat="49.04267" lon="2.12454">
        <ele>19.6</ele>
        <time>2022-02-06T08:45:45Z</time>
      </trkpt>
      <trkpt lat="49.04267" lon="2.12437">
        <ele>19.68</ele>
        <time>2022-02-06T08:45:55Z</time>
      </trkpt>
      <trkpt lat="49.04267" lon="2.12433">
        <ele>20.37</ele>
        <time>2022-02-06T08:45:57Z</time>
      </trkpt>
      <trkpt lat="49.04267" lon="2.12417">
        <ele>20.69</ele>
        <time>2022-02-06T08:46:08Z</time>
      </trkpt>
      <trkpt lat="49.04269" lon="2.12395">
        <ele>21.42</ele>
        <time>2022-02-06T08:46:21Z</time>
      </trkpt>
      <trkpt lat="49.0427" lon="2.12375">
        <ele>22.01</ele>
        <time>2022-02-06T08:46:33Z</time>
      </trkpt>
      <trkpt lat="49.04271" lon="2.12364">
        <ele>21.48</ele>
        <time>2022-02-06T08:46:40Z</time>
      </trkpt>
      <trkpt lat="49.04269" lon="2.12353">
        <ele>21.44</ele>
        <time>2022-02-06T08:46:45Z</time>
      </trkpt>
      <trkpt lat="49.04272" lon="2.12332">
        <ele>21.43</ele>
        <time>2022-02-06T08:46:58Z</time>
      </trkpt>
      <trkpt lat="49.04271" lon="2.12309">
        <ele>21.09</ele>
        <time>2022-02-06T08:47:09Z</time>
      </trkpt>
      <trkpt lat="49.04265" lon="2.12296">
        <ele>20.83</ele>
        <time>2022-02-06T08:47:22Z</time>
      </trkpt>
      <trkpt lat="49.04251" lon="2.12295">
        <ele>22.63</ele>
        <time>2022-02-06T08:47:36Z</time>
      </trkpt>
      <trkpt lat="49.04246" lon="2.12295">
        <ele>22.15</ele>
        <time>2022-02-06T08:47:40Z</time>
      </trkpt>
      <trkpt lat="49.04243" lon="2.12295">
        <ele>21.27</ele>
        <time>2022-02-06T08:47:42Z</time>
      </trkpt>
      <trkpt lat="49.04239" lon="2.12294">
        <ele>21.27</ele>
        <time>2022-02-06T08:47:45Z</time>
      </trkpt>
      <trkpt lat="49.04235" lon="2.12293">
        <ele>22.84</ele>
        <time>2022-02-06T08:47:48Z</time>
      </trkpt>
      <trkpt lat="49.04232" lon="2.1229">
        <ele>21.94</ele>
        <time>2022-02-06T08:47:51Z</time>
      </trkpt>
      <trkpt lat="49.04229" lon="2.12276">
        <ele>21.96</ele>
        <time>2022-02-06T08:48:03Z</time>
      </trkpt>
      <trkpt lat="49.04233" lon="2.12273">
        <ele>22.27</ele>
        <time>2022-02-06T08:48:08Z</time>
      </trkpt>
      <trkpt lat="49.04235" lon="2.12272">
        <ele>21.77</ele>
        <time>2022-02-06T08:48:10Z</time>
      </trkpt>
      <trkpt lat="49.04241" lon="2.12268">
        <ele>21.5</ele>
        <time>2022-02-06T08:48:17Z</time>
      </trkpt>
      <trkpt lat="49.04256" lon="2.12263">
        <ele>21.52</ele>
        <time>2022-02-06T08:48:31Z</time>
      </trkpt>
      <trkpt lat="49.04271" lon="2.12259">
        <ele>21.08</ele>
        <time>2022-02-06T08:48:45Z</time>
      </trkpt>
      <trkpt lat="49.04284" lon="2.12256">
        <ele>21.03</ele>
        <time>2022-02-06T08:48:57Z</time>
      </trkpt>
      <trkpt lat="49.04297" lon="2.12249">
        <ele>20.63</ele>
        <time>2022-02-06T08:49:09Z</time>
      </trkpt>
      <trkpt lat="49.0431" lon="2.12246">
        <ele>22.42</ele>
        <time>2022-02-06T08:49:19Z</time>
      </trkpt>
      <trkpt lat="49.04319" lon="2.12245">
        <ele>22.72</ele>
        <time>2022-02-06T08:49:28Z</time>
      </trkpt>
      <trkpt lat="49.04325" lon="2.12249">
        <ele>23.95</ele>
        <time>2022-02-06T08:49:40Z</time>
      </trkpt>
      <trkpt lat="49.04326" lon="2.12248">
        <ele>23.22</ele>
        <time>2022-02-06T08:50:02Z</time>
      </trkpt>
      <trkpt lat="49.04326" lon="2.12247">
        <ele>23.4</ele>
        <time>2022-02-06T08:50:20Z</time>
      </trkpt>
      <trkpt lat="49.04327" lon="2.12247">
        <ele>24.19</ele>
        <time>2022-02-06T08:50:36Z</time>
      </trkpt>
      <trkpt lat="49.04327" lon="2.12244">
        <ele>23.43</ele>
        <time>2022-02-06T08:50:48Z</time>
      </trkpt>
      <trkpt lat="49.04329" lon="2.12235">
        <ele>23.78</ele>
        <time>2022-02-06T08:51:02Z</time>
      </trkpt>
      <trkpt lat="49.0433" lon="2.12233">
        <ele>25.02</ele>
        <time>2022-02-06T08:51:12Z</time>
      </trkpt>
      <trkpt lat="49.0433" lon="2.12228">
        <ele>24.59</ele>
        <time>2022-02-06T08:51:21Z</time>
      </trkpt>
      <trkpt lat="49.04333" lon="2.1222">
        <ele>24.14</ele>
        <time>2022-02-06T08:51:40Z</time>
      </trkpt>
      <trkpt lat="49.04338" lon="2.12208">
        <ele>24.63</ele>
        <time>2022-02-06T08:51:45Z</time>
      </trkpt>
      <trkpt lat="49.04335" lon="2.12177">
        <ele>23.98</ele>
        <time>2022-02-06T08:51:58Z</time>
      </trkpt>
      <trkpt lat="49.04318" lon="2.12175">
        <ele>23.54</ele>
        <time>2022-02-06T08:52:13Z</time>
      </trkpt>
      <trkpt lat="49.04308" lon="2.12168">
        <ele>22.34</ele>
        <time>2022-02-06T08:52:22Z</time>
      </trkpt>
      <trkpt lat="49.04299" lon="2.12161">
        <ele>22.18</ele>
        <time>2022-02-06T08:52:31Z</time>
      </trkpt>
      <trkpt lat="49.04293" lon="2.12157">
        <ele>21.77</ele>
        <time>2022-02-06T08:52:37Z</time>
      </trkpt>
      <trkpt lat="49.04289" lon="2.12153">
        <ele>21.19</ele>
        <time>2022-02-06T08:52:45Z</time>
      </trkpt>
      <trkpt lat="49.04277" lon="2.1215">
        <ele>22.32</ele>
        <time>2022-02-06T08:52:57Z</time>
      </trkpt>
      <trkpt lat="49.04269" lon="2.12146">
        <ele>22.47</ele>
        <time>2022-02-06T08:53:08Z</time>
      </trkpt>
      <trkpt lat="49.04274" lon="2.12141">
        <ele>22.82</ele>
        <time>2022-02-06T08:53:18Z</time>
      </trkpt>
      <trkpt lat="49.04279" lon="2.1213">
        <ele>22.45</ele>
        <time>2022-02-06T08:53:29Z</time>
      </trkpt>
      <trkpt lat="49.04282" lon="2.12124">
        <ele>22.24</ele>
        <time>2022-02-06T08:53:33Z</time>
      </trkpt>
      <trkpt lat="49.04293" lon="2.1211">
        <ele>22.6</ele>
        <time>2022-02-06T08:53:45Z</time>
      </trkpt>
      <trkpt lat="49.04304" lon="2.12094">
        <ele>20.37</ele>
        <time>2022-02-06T08:54:00Z</time>
      </trkpt>
      <trkpt lat="49.04313" lon="2.12075">
        <ele>20.87</ele>
        <time>2022-02-06T08:54:18Z</time>
      </trkpt>
      <trkpt lat="49.04326" lon="2.12053">
        <ele>20.66</ele>
        <time>2022-02-06T08:54:33Z</time>
      </trkpt>
      <trkpt lat="49.04338" lon="2.12028">
        <ele>20.83</ele>
        <time>2022-02-06T08:54:51Z</time>
      </trkpt>
      <trkpt lat="49.04349" lon="2.12011">
        <ele>20.65</ele>
        <time>2022-02-06T08:55:03Z</time>
      </trkpt>
      <trkpt lat="49.04359" lon="2.11996">
        <ele>20.37</ele>
        <time>2022-02-06T08:55:16Z</time>
      </trkpt>
      <trkpt lat="49.04369" lon="2.1198">
        <ele>20.2</ele>
        <time>2022-02-06T08:55:28Z</time>
      </trkpt>
      <trkpt lat="49.04378" lon="2.11976">
        <ele>20.39</ele>
        <time>2022-02-06T08:55:38Z</time>
      </trkpt>
      <trkpt lat="49.04386" lon="2.11972">
        <ele>21</ele>
        <time>2022-02-06T08:55:48Z</time>
      </trkpt>
      <trkpt lat="49.04393" lon="2.11961">
        <ele>20.67</ele>
        <time>2022-02-06T08:55:58Z</time>
      </trkpt>
      <trkpt lat="49.04402" lon="2.11952">
        <ele>20.75</ele>
        <time>2022-02-06T08:56:10Z</time>
      </trkpt>
      <trkpt lat="49.04414" lon="2.11952">
        <ele>20.26</ele>
        <time>2022-02-06T08:56:25Z</time>
      </trkpt>
      <trkpt lat="49.04424" lon="2.11952">
        <ele>21.77</ele>
        <time>2022-02-06T08:56:36Z</time>
      </trkpt>
      <trkpt lat="49.04426" lon="2.11949">
        <ele>21.23</ele>
        <time>2022-02-06T08:56:38Z</time>
      </trkpt>
      <trkpt lat="49.04437" lon="2.11939">
        <ele>21.28</ele>
        <time>2022-02-06T08:56:48Z</time>
      </trkpt>
      <trkpt lat="49.04444" lon="2.11932">
        <ele>21.24</ele>
        <time>2022-02-06T08:56:55Z</time>
      </trkpt>
      <trkpt lat="49.04456" lon="2.11923">
        <ele>21.16</ele>
        <time>2022-02-06T08:57:07Z</time>
      </trkpt>
      <trkpt lat="49.04466" lon="2.11912">
        <ele>20.72</ele>
        <time>2022-02-06T08:57:20Z</time>
      </trkpt>
      <trkpt lat="49.04479" lon="2.11901">
        <ele>19.61</ele>
        <time>2022-02-06T08:57:33Z</time>
      </trkpt>
      <trkpt lat="49.04495" lon="2.11888">
        <ele>20.18</ele>
        <time>2022-02-06T08:57:49Z</time>
      </trkpt>
      <trkpt lat="49.04512" lon="2.11872">
        <ele>20.23</ele>
        <time>2022-02-06T08:58:04Z</time>
      </trkpt>
      <trkpt lat="49.04524" lon="2.11866">
        <ele>20.8</ele>
        <time>2022-02-06T08:58:13Z</time>
      </trkpt>
      <trkpt lat="49.04534" lon="2.1186">
        <ele>22.12</ele>
        <time>2022-02-06T08:58:28Z</time>
      </trkpt>
      <trkpt lat="49.04545" lon="2.11857">
        <ele>25.54</ele>
        <time>2022-02-06T08:58:40Z</time>
      </trkpt>
      <trkpt lat="49.04558" lon="2.11849">
        <ele>25.49</ele>
        <time>2022-02-06T08:58:53Z</time>
      </trkpt>
      <trkpt lat="49.04563" lon="2.11846">
        <ele>24.56</ele>
        <time>2022-02-06T08:58:59Z</time>
      </trkpt>
      <trkpt lat="49.0457" lon="2.11844">
        <ele>24.56</ele>
        <time>2022-02-06T08:59:02Z</time>
      </trkpt>
      <trkpt lat="49.04568" lon="2.11842">
        <ele>25.29</ele>
        <time>2022-02-06T08:59:10Z</time>
      </trkpt>
      <trkpt lat="49.0457" lon="2.11841">
        <ele>25.53</ele>
        <time>2022-02-06T08:59:13Z</time>
      </trkpt>
      <trkpt lat="49.0457" lon="2.11841">
        <ele>25.42</ele>
        <time>2022-02-06T08:59:14Z</time>
      </trkpt>
      <trkpt lat="49.04569" lon="2.11841">
        <ele>24.39</ele>
        <time>2022-02-06T08:59:25Z</time>
      </trkpt>
      <trkpt lat="49.04571" lon="2.11836">
        <ele>23.5</ele>
        <time>2022-02-06T08:59:45Z</time>
      </trkpt>
      <trkpt lat="49.04575" lon="2.11836">
        <ele>23.27</ele>
        <time>2022-02-06T08:59:50Z</time>
      </trkpt>
      <trkpt lat="49.04578" lon="2.1183">
        <ele>22.11</ele>
        <time>2022-02-06T08:59:57Z</time>
      </trkpt>
      <trkpt lat="49.04583" lon="2.11825">
        <ele>21.8</ele>
        <time>2022-02-06T09:00:08Z</time>
      </trkpt>
      <trkpt lat="49.04587" lon="2.11822">
        <ele>21.77</ele>
        <time>2022-02-06T09:00:12Z</time>
      </trkpt>
      <trkpt lat="49.04588" lon="2.11821">
        <ele>21.38</ele>
        <time>2022-02-06T09:00:14Z</time>
      </trkpt>
      <trkpt lat="49.04595" lon="2.11814">
        <ele>20.43</ele>
        <time>2022-02-06T09:00:21Z</time>
      </trkpt>
      <trkpt lat="49.04596" lon="2.11813">
        <ele>20.63</ele>
        <time>2022-02-06T09:00:22Z</time>
      </trkpt>
      <trkpt lat="49.04596" lon="2.11812">
        <ele>20.54</ele>
        <time>2022-02-06T09:00:23Z</time>
      </trkpt>
      <trkpt lat="49.04602" lon="2.11807">
        <ele>20.57</ele>
        <time>2022-02-06T09:00:30Z</time>
      </trkpt>
      <trkpt lat="49.04603" lon="2.11806">
        <ele>20.71</ele>
        <time>2022-02-06T09:00:31Z</time>
      </trkpt>
      <trkpt lat="49.04605" lon="2.11806">
        <ele>20.57</ele>
        <time>2022-02-06T09:00:32Z</time>
      </trkpt>
      <trkpt lat="49.04606" lon="2.11805">
        <ele>20.19</ele>
        <time>2022-02-06T09:00:33Z</time>
      </trkpt>
      <trkpt lat="49.04607" lon="2.11804">
        <ele>20.4</ele>
        <time>2022-02-06T09:00:34Z</time>
      </trkpt>
      <trkpt lat="49.04607" lon="2.11803">
        <ele>22.15</ele>
        <time>2022-02-06T09:00:42Z</time>
      </trkpt>
      <trkpt lat="49.04607" lon="2.11803">
        <ele>21.65</ele>
        <time>2022-02-06T09:00:43Z</time>
      </trkpt>
      <trkpt lat="49.04613" lon="2.11797">
        <ele>22.53</ele>
        <time>2022-02-06T09:00:52Z</time>
      </trkpt>
      <trkpt lat="49.04618" lon="2.11791">
        <ele>21.64</ele>
        <time>2022-02-06T09:00:58Z</time>
      </trkpt>
      <trkpt lat="49.04623" lon="2.11779">
        <ele>21.41</ele>
        <time>2022-02-06T09:01:06Z</time>
      </trkpt>
      <trkpt lat="49.04624" lon="2.11778">
        <ele>21.67</ele>
        <time>2022-02-06T09:01:07Z</time>
      </trkpt>
      <trkpt lat="49.04626" lon="2.11775">
        <ele>22.5</ele>
        <time>2022-02-06T09:01:09Z</time>
      </trkpt>
      <trkpt lat="49.04629" lon="2.11769">
        <ele>21.79</ele>
        <time>2022-02-06T09:01:13Z</time>
      </trkpt>
      <trkpt lat="49.0463" lon="2.11767">
        <ele>21.53</ele>
        <time>2022-02-06T09:01:14Z</time>
      </trkpt>
      <trkpt lat="49.04636" lon="2.11755">
        <ele>22.35</ele>
        <time>2022-02-06T09:01:24Z</time>
      </trkpt>
      <trkpt lat="49.04637" lon="2.11754">
        <ele>22.73</ele>
        <time>2022-02-06T09:01:25Z</time>
      </trkpt>
      <trkpt lat="49.04638" lon="2.11752">
        <ele>22.87</ele>
        <time>2022-02-06T09:01:26Z</time>
      </trkpt>
      <trkpt lat="49.04646" lon="2.11744">
        <ele>22.4</ele>
        <time>2022-02-06T09:01:34Z</time>
      </trkpt>
      <trkpt lat="49.04647" lon="2.11743">
        <ele>22.75</ele>
        <time>2022-02-06T09:01:35Z</time>
      </trkpt>
      <trkpt lat="49.04658" lon="2.11727">
        <ele>23.45</ele>
        <time>2022-02-06T09:01:48Z</time>
      </trkpt>
      <trkpt lat="49.04665" lon="2.1171">
        <ele>22.26</ele>
        <time>2022-02-06T09:02:00Z</time>
      </trkpt>
      <trkpt lat="49.04669" lon="2.11693">
        <ele>21.66</ele>
        <time>2022-02-06T09:02:11Z</time>
      </trkpt>
      <trkpt lat="49.0467" lon="2.11691">
        <ele>22.87</ele>
        <time>2022-02-06T09:02:12Z</time>
      </trkpt>
      <trkpt lat="49.04674" lon="2.11685">
        <ele>23.09</ele>
        <time>2022-02-06T09:02:17Z</time>
      </trkpt>
      <trkpt lat="49.04682" lon="2.11677">
        <ele>23.76</ele>
        <time>2022-02-06T09:02:30Z</time>
      </trkpt>
      <trkpt lat="49.04681" lon="2.11672">
        <ele>22.97</ele>
        <time>2022-02-06T09:02:50Z</time>
      </trkpt>
      <trkpt lat="49.04681" lon="2.11672">
        <ele>21.95</ele>
        <time>2022-02-06T09:03:09Z</time>
      </trkpt>
      <trkpt lat="49.04684" lon="2.11675">
        <ele>23.67</ele>
        <time>2022-02-06T09:03:25Z</time>
      </trkpt>
      <trkpt lat="49.04691" lon="2.11678">
        <ele>21.98</ele>
        <time>2022-02-06T09:03:41Z</time>
      </trkpt>
      <trkpt lat="49.04702" lon="2.1169">
        <ele>22.32</ele>
        <time>2022-02-06T09:03:55Z</time>
      </trkpt>
      <trkpt lat="49.04711" lon="2.11698">
        <ele>22.09</ele>
        <time>2022-02-06T09:04:07Z</time>
      </trkpt>
      <trkpt lat="49.0472" lon="2.11709">
        <ele>21.09</ele>
        <time>2022-02-06T09:04:16Z</time>
      </trkpt>
      <trkpt lat="49.04736" lon="2.11724">
        <ele>21.52</ele>
        <time>2022-02-06T09:04:29Z</time>
      </trkpt>
      <trkpt lat="49.04749" lon="2.11726">
        <ele>20.25</ele>
        <time>2022-02-06T09:04:41Z</time>
      </trkpt>
      <trkpt lat="49.04756" lon="2.11718">
        <ele>19.93</ele>
        <time>2022-02-06T09:04:51Z</time>
      </trkpt>
      <trkpt lat="49.0476" lon="2.11707">
        <ele>20.63</ele>
        <time>2022-02-06T09:04:58Z</time>
      </trkpt>
      <trkpt lat="49.04764" lon="2.11693">
        <ele>20.74</ele>
        <time>2022-02-06T09:05:10Z</time>
      </trkpt>
      <trkpt lat="49.04763" lon="2.1169">
        <ele>20.8</ele>
        <time>2022-02-06T09:05:33Z</time>
      </trkpt>
      <trkpt lat="49.04767" lon="2.1169">
        <ele>20.59</ele>
        <time>2022-02-06T09:05:45Z</time>
      </trkpt>
      <trkpt lat="49.04769" lon="2.11688">
        <ele>20.56</ele>
        <time>2022-02-06T09:05:48Z</time>
      </trkpt>
      <trkpt lat="49.04772" lon="2.11684">
        <ele>20</ele>
        <time>2022-02-06T09:05:52Z</time>
      </trkpt>
      <trkpt lat="49.04774" lon="2.11672">
        <ele>20.07</ele>
        <time>2022-02-06T09:06:04Z</time>
      </trkpt>
      <trkpt lat="49.04775" lon="2.1166">
        <ele>20.23</ele>
        <time>2022-02-06T09:06:16Z</time>
      </trkpt>
      <trkpt lat="49.04774" lon="2.11642">
        <ele>18.65</ele>
        <time>2022-02-06T09:06:31Z</time>
      </trkpt>
      <trkpt lat="49.04774" lon="2.11633">
        <ele>19.07</ele>
        <time>2022-02-06T09:06:35Z</time>
      </trkpt>
      <trkpt lat="49.04774" lon="2.11628">
        <ele>20.11</ele>
        <time>2022-02-06T09:06:38Z</time>
      </trkpt>
      <trkpt lat="49.04771" lon="2.11609">
        <ele>20.57</ele>
        <time>2022-02-06T09:06:48Z</time>
      </trkpt>
      <trkpt lat="49.04768" lon="2.11593">
        <ele>20.24</ele>
        <time>2022-02-06T09:07:01Z</time>
      </trkpt>
      <trkpt lat="49.04767" lon="2.11588">
        <ele>19.25</ele>
        <time>2022-02-06T09:07:13Z</time>
      </trkpt>
      <trkpt lat="49.04766" lon="2.11576">
        <ele>20.78</ele>
        <time>2022-02-06T09:07:20Z</time>
      </trkpt>
      <trkpt lat="49.04764" lon="2.11559">
        <ele>21.46</ele>
        <time>2022-02-06T09:07:30Z</time>
      </trkpt>
      <trkpt lat="49.04762" lon="2.11535">
        <ele>20.32</ele>
        <time>2022-02-06T09:07:44Z</time>
      </trkpt>
      <trkpt lat="49.04761" lon="2.1153">
        <ele>20.09</ele>
        <time>2022-02-06T09:07:47Z</time>
      </trkpt>
      <trkpt lat="49.04756" lon="2.11506">
        <ele>21.65</ele>
        <time>2022-02-06T09:08:03Z</time>
      </trkpt>
      <trkpt lat="49.04755" lon="2.11505">
        <ele>21.26</ele>
        <time>2022-02-06T09:08:04Z</time>
      </trkpt>
      <trkpt lat="49.04751" lon="2.11485">
        <ele>21.41</ele>
        <time>2022-02-06T09:08:17Z</time>
      </trkpt>
      <trkpt lat="49.04744" lon="2.11459">
        <ele>22.19</ele>
        <time>2022-02-06T09:08:34Z</time>
      </trkpt>
      <trkpt lat="49.04742" lon="2.11451">
        <ele>22.62</ele>
        <time>2022-02-06T09:08:41Z</time>
      </trkpt>
      <trkpt lat="49.04745" lon="2.1145">
        <ele>21.79</ele>
        <time>2022-02-06T09:08:45Z</time>
      </trkpt>
      <trkpt lat="49.04747" lon="2.11442">
        <ele>21.49</ele>
        <time>2022-02-06T09:08:52Z</time>
      </trkpt>
      <trkpt lat="49.04755" lon="2.11436">
        <ele>21.39</ele>
        <time>2022-02-06T09:09:03Z</time>
      </trkpt>
      <trkpt lat="49.04762" lon="2.11441">
        <ele>21.03</ele>
        <time>2022-02-06T09:09:13Z</time>
      </trkpt>
      <trkpt lat="49.04767" lon="2.11438">
        <ele>20.88</ele>
        <time>2022-02-06T09:09:22Z</time>
      </trkpt>
      <trkpt lat="49.04779" lon="2.11437">
        <ele>20.77</ele>
        <time>2022-02-06T09:09:33Z</time>
      </trkpt>
      <trkpt lat="49.04792" lon="2.11446">
        <ele>20.49</ele>
        <time>2022-02-06T09:09:46Z</time>
      </trkpt>
      <trkpt lat="49.04799" lon="2.11458">
        <ele>20.31</ele>
        <time>2022-02-06T09:09:58Z</time>
      </trkpt>
      <trkpt lat="49.04804" lon="2.11468">
        <ele>20.48</ele>
        <time>2022-02-06T09:10:06Z</time>
      </trkpt>
      <trkpt lat="49.04806" lon="2.1147">
        <ele>21.05</ele>
        <time>2022-02-06T09:10:08Z</time>
      </trkpt>
      <trkpt lat="49.04811" lon="2.11483">
        <ele>21.17</ele>
        <time>2022-02-06T09:10:18Z</time>
      </trkpt>
      <trkpt lat="49.0482" lon="2.115">
        <ele>20.76</ele>
        <time>2022-02-06T09:10:31Z</time>
      </trkpt>
      <trkpt lat="49.04824" lon="2.11512">
        <ele>20.51</ele>
        <time>2022-02-06T09:10:39Z</time>
      </trkpt>
      <trkpt lat="49.04833" lon="2.1153">
        <ele>20.97</ele>
        <time>2022-02-06T09:10:53Z</time>
      </trkpt>
      <trkpt lat="49.04844" lon="2.11551">
        <ele>19.84</ele>
        <time>2022-02-06T09:11:07Z</time>
      </trkpt>
      <trkpt lat="49.04859" lon="2.1158">
        <ele>20.78</ele>
        <time>2022-02-06T09:11:26Z</time>
      </trkpt>
      <trkpt lat="49.0486" lon="2.11581">
        <ele>21.16</ele>
        <time>2022-02-06T09:11:27Z</time>
      </trkpt>
      <trkpt lat="49.04866" lon="2.11584">
        <ele>21.64</ele>
        <time>2022-02-06T09:11:34Z</time>
      </trkpt>
      <trkpt lat="49.04879" lon="2.11579">
        <ele>21.71</ele>
        <time>2022-02-06T09:11:48Z</time>
      </trkpt>
      <trkpt lat="49.04887" lon="2.11569">
        <ele>20.6</ele>
        <time>2022-02-06T09:11:52Z</time>
      </trkpt>
      <trkpt lat="49.04887" lon="2.11562">
        <ele>19.49</ele>
        <time>2022-02-06T09:11:56Z</time>
      </trkpt>
      <trkpt lat="49.04884" lon="2.11553">
        <ele>19.85</ele>
        <time>2022-02-06T09:12:01Z</time>
      </trkpt>
      <trkpt lat="49.04873" lon="2.11544">
        <ele>20.16</ele>
        <time>2022-02-06T09:12:14Z</time>
      </trkpt>
      <trkpt lat="49.04867" lon="2.11529">
        <ele>20.6</ele>
        <time>2022-02-06T09:12:29Z</time>
      </trkpt>
      <trkpt lat="49.04859" lon="2.11516">
        <ele>21.48</ele>
        <time>2022-02-06T09:12:42Z</time>
      </trkpt>
      <trkpt lat="49.04858" lon="2.11513">
        <ele>20.63</ele>
        <time>2022-02-06T09:12:43Z</time>
      </trkpt>
      <trkpt lat="49.04849" lon="2.115">
        <ele>21.1</ele>
        <time>2022-02-06T09:12:55Z</time>
      </trkpt>
      <trkpt lat="49.04837" lon="2.11475">
        <ele>20.66</ele>
        <time>2022-02-06T09:13:11Z</time>
      </trkpt>
      <trkpt lat="49.04831" lon="2.11464">
        <ele>21.29</ele>
        <time>2022-02-06T09:13:18Z</time>
      </trkpt>
      <trkpt lat="49.04823" lon="2.11445">
        <ele>20.25</ele>
        <time>2022-02-06T09:13:32Z</time>
      </trkpt>
      <trkpt lat="49.04815" lon="2.1143">
        <ele>21.14</ele>
        <time>2022-02-06T09:13:42Z</time>
      </trkpt>
      <trkpt lat="49.04814" lon="2.11428">
        <ele>20.86</ele>
        <time>2022-02-06T09:13:43Z</time>
      </trkpt>
      <trkpt lat="49.04813" lon="2.11421">
        <ele>20.7</ele>
        <time>2022-02-06T09:13:47Z</time>
      </trkpt>
      <trkpt lat="49.04804" lon="2.11406">
        <ele>19.88</ele>
        <time>2022-02-06T09:13:57Z</time>
      </trkpt>
      <trkpt lat="49.04794" lon="2.11393">
        <ele>20.2</ele>
        <time>2022-02-06T09:14:09Z</time>
      </trkpt>
      <trkpt lat="49.04783" lon="2.11368">
        <ele>20.17</ele>
        <time>2022-02-06T09:14:25Z</time>
      </trkpt>
      <trkpt lat="49.04774" lon="2.11353">
        <ele>19.86</ele>
        <time>2022-02-06T09:14:36Z</time>
      </trkpt>
      <trkpt lat="49.04773" lon="2.1135">
        <ele>21.23</ele>
        <time>2022-02-06T09:14:38Z</time>
      </trkpt>
      <trkpt lat="49.04766" lon="2.11338">
        <ele>19.62</ele>
        <time>2022-02-06T09:14:51Z</time>
      </trkpt>
      <trkpt lat="49.04755" lon="2.11315">
        <ele>19.59</ele>
        <time>2022-02-06T09:15:06Z</time>
      </trkpt>
      <trkpt lat="49.04755" lon="2.11315">
        <ele>19.31</ele>
        <time>2022-02-06T09:15:07Z</time>
      </trkpt>
      <trkpt lat="49.04752" lon="2.11308">
        <ele>19.7</ele>
        <time>2022-02-06T09:15:24Z</time>
      </trkpt>
      <trkpt lat="49.04751" lon="2.113">
        <ele>20.28</ele>
        <time>2022-02-06T09:15:31Z</time>
      </trkpt>
      <trkpt lat="49.04744" lon="2.11278">
        <ele>18.33</ele>
        <time>2022-02-06T09:15:43Z</time>
      </trkpt>
      <trkpt lat="49.04742" lon="2.11274">
        <ele>20.61</ele>
        <time>2022-02-06T09:15:45Z</time>
      </trkpt>
      <trkpt lat="49.04735" lon="2.11252">
        <ele>20</ele>
        <time>2022-02-06T09:15:58Z</time>
      </trkpt>
      <trkpt lat="49.04728" lon="2.11225">
        <ele>20.34</ele>
        <time>2022-02-06T09:16:14Z</time>
      </trkpt>
      <trkpt lat="49.04718" lon="2.11199">
        <ele>21.48</ele>
        <time>2022-02-06T09:16:31Z</time>
      </trkpt>
      <trkpt lat="49.04717" lon="2.11195">
        <ele>22.8</ele>
        <time>2022-02-06T09:16:34Z</time>
      </trkpt>
      <trkpt lat="49.04718" lon="2.11189">
        <ele>22.88</ele>
        <time>2022-02-06T09:16:38Z</time>
      </trkpt>
      <trkpt lat="49.04714" lon="2.1118">
        <ele>23.1</ele>
        <time>2022-02-06T09:16:49Z</time>
      </trkpt>
      <trkpt lat="49.04701" lon="2.1118">
        <ele>22.58</ele>
        <time>2022-02-06T09:17:04Z</time>
      </trkpt>
      <trkpt lat="49.04697" lon="2.11178">
        <ele>21.86</ele>
        <time>2022-02-06T09:17:10Z</time>
      </trkpt>
      <trkpt lat="49.04687" lon="2.11165">
        <ele>20.72</ele>
        <time>2022-02-06T09:17:21Z</time>
      </trkpt>
      <trkpt lat="49.04679" lon="2.11151">
        <ele>20.5</ele>
        <time>2022-02-06T09:17:35Z</time>
      </trkpt>
      <trkpt lat="49.04672" lon="2.11141">
        <ele>19.76</ele>
        <time>2022-02-06T09:17:45Z</time>
      </trkpt>
      <trkpt lat="49.04665" lon="2.11129">
        <ele>20.24</ele>
        <time>2022-02-06T09:17:56Z</time>
      </trkpt>
      <trkpt lat="49.04658" lon="2.11107">
        <ele>19.64</ele>
        <time>2022-02-06T09:18:10Z</time>
      </trkpt>
      <trkpt lat="49.04657" lon="2.11106">
        <ele>19.9</ele>
        <time>2022-02-06T09:18:11Z</time>
      </trkpt>
      <trkpt lat="49.04651" lon="2.11094">
        <ele>19.73</ele>
        <time>2022-02-06T09:18:19Z</time>
      </trkpt>
      <trkpt lat="49.04649" lon="2.11091">
        <ele>20.17</ele>
        <time>2022-02-06T09:18:21Z</time>
      </trkpt>
      <trkpt lat="49.0464" lon="2.11081">
        <ele>20.06</ele>
        <time>2022-02-06T09:18:29Z</time>
      </trkpt>
      <trkpt lat="49.04638" lon="2.11075">
        <ele>19.56</ele>
        <time>2022-02-06T09:18:32Z</time>
      </trkpt>
      <trkpt lat="49.04636" lon="2.11066">
        <ele>20.1</ele>
        <time>2022-02-06T09:18:37Z</time>
      </trkpt>
      <trkpt lat="49.04635" lon="2.1106">
        <ele>20.04</ele>
        <time>2022-02-06T09:18:39Z</time>
      </trkpt>
      <trkpt lat="49.04632" lon="2.11041">
        <ele>20.67</ele>
        <time>2022-02-06T09:18:52Z</time>
      </trkpt>
      <trkpt lat="49.04636" lon="2.11038">
        <ele>20.4</ele>
        <time>2022-02-06T09:19:04Z</time>
      </trkpt>
      <trkpt lat="49.04638" lon="2.11031">
        <ele>20.53</ele>
        <time>2022-02-06T09:19:10Z</time>
      </trkpt>
      <trkpt lat="49.04643" lon="2.1102">
        <ele>20.64</ele>
        <time>2022-02-06T09:19:16Z</time>
      </trkpt>
      <trkpt lat="49.04648" lon="2.11012">
        <ele>20.17</ele>
        <time>2022-02-06T09:19:21Z</time>
      </trkpt>
      <trkpt lat="49.04651" lon="2.11006">
        <ele>19.88</ele>
        <time>2022-02-06T09:19:25Z</time>
      </trkpt>
      <trkpt lat="49.04661" lon="2.10988">
        <ele>20.67</ele>
        <time>2022-02-06T09:19:38Z</time>
      </trkpt>
      <trkpt lat="49.04668" lon="2.10978">
        <ele>21.1</ele>
        <time>2022-02-06T09:19:47Z</time>
      </trkpt>
      <trkpt lat="49.04674" lon="2.10966">
        <ele>21.04</ele>
        <time>2022-02-06T09:19:57Z</time>
      </trkpt>
      <trkpt lat="49.04677" lon="2.10961">
        <ele>21.15</ele>
        <time>2022-02-06T09:20:01Z</time>
      </trkpt>
      <trkpt lat="49.04679" lon="2.10958">
        <ele>20.38</ele>
        <time>2022-02-06T09:20:03Z</time>
      </trkpt>
      <trkpt lat="49.04684" lon="2.10953">
        <ele>21.15</ele>
        <time>2022-02-06T09:20:08Z</time>
      </trkpt>
      <trkpt lat="49.04692" lon="2.10944">
        <ele>21.46</ele>
        <time>2022-02-06T09:20:17Z</time>
      </trkpt>
      <trkpt lat="49.04696" lon="2.10939">
        <ele>20.51</ele>
        <time>2022-02-06T09:20:28Z</time>
      </trkpt>
      <trkpt lat="49.04697" lon="2.10938">
        <ele>21.8</ele>
        <time>2022-02-06T09:20:31Z</time>
      </trkpt>
      <trkpt lat="49.04703" lon="2.10938">
        <ele>19.8</ele>
        <time>2022-02-06T09:20:39Z</time>
      </trkpt>
      <trkpt lat="49.04704" lon="2.10937">
        <ele>19.78</ele>
        <time>2022-02-06T09:20:40Z</time>
      </trkpt>
      <trkpt lat="49.04708" lon="2.10933">
        <ele>20.46</ele>
        <time>2022-02-06T09:20:44Z</time>
      </trkpt>
      <trkpt lat="49.04713" lon="2.10927">
        <ele>22.2</ele>
        <time>2022-02-06T09:20:49Z</time>
      </trkpt>
      <trkpt lat="49.04722" lon="2.10916">
        <ele>22.4</ele>
        <time>2022-02-06T09:21:02Z</time>
      </trkpt>
      <trkpt lat="49.04723" lon="2.10914">
        <ele>22.2</ele>
        <time>2022-02-06T09:21:04Z</time>
      </trkpt>
      <trkpt lat="49.04731" lon="2.10898">
        <ele>21.68</ele>
        <time>2022-02-06T09:21:16Z</time>
      </trkpt>
      <trkpt lat="49.04738" lon="2.10885">
        <ele>21.23</ele>
        <time>2022-02-06T09:21:26Z</time>
      </trkpt>
      <trkpt lat="49.04754" lon="2.10868">
        <ele>21.06</ele>
        <time>2022-02-06T09:21:42Z</time>
      </trkpt>
      <trkpt lat="49.04768" lon="2.10855">
        <ele>21.45</ele>
        <time>2022-02-06T09:21:58Z</time>
      </trkpt>
      <trkpt lat="49.04776" lon="2.10848">
        <ele>21.52</ele>
        <time>2022-02-06T09:22:11Z</time>
      </trkpt>
      <trkpt lat="49.04783" lon="2.10844">
        <ele>21.4</ele>
        <time>2022-02-06T09:22:29Z</time>
      </trkpt>
      <trkpt lat="49.0479" lon="2.10846">
        <ele>21.98</ele>
        <time>2022-02-06T09:22:36Z</time>
      </trkpt>
      <trkpt lat="49.04797" lon="2.10843">
        <ele>21.07</ele>
        <time>2022-02-06T09:22:49Z</time>
      </trkpt>
      <trkpt lat="49.048" lon="2.10841">
        <ele>21.14</ele>
        <time>2022-02-06T09:23:01Z</time>
      </trkpt>
      <trkpt lat="49.04801" lon="2.10832">
        <ele>22.04</ele>
        <time>2022-02-06T09:23:12Z</time>
      </trkpt>
      <trkpt lat="49.04807" lon="2.10822">
        <ele>20.83</ele>
        <time>2022-02-06T09:23:23Z</time>
      </trkpt>
      <trkpt lat="49.04817" lon="2.10812">
        <ele>21.19</ele>
        <time>2022-02-06T09:23:33Z</time>
      </trkpt>
      <trkpt lat="49.04823" lon="2.10805">
        <ele>20.89</ele>
        <time>2022-02-06T09:23:39Z</time>
      </trkpt>
      <trkpt lat="49.04834" lon="2.10793">
        <ele>21.37</ele>
        <time>2022-02-06T09:23:50Z</time>
      </trkpt>
      <trkpt lat="49.04847" lon="2.10779">
        <ele>21.28</ele>
        <time>2022-02-06T09:24:03Z</time>
      </trkpt>
      <trkpt lat="49.04858" lon="2.10768">
        <ele>21.5</ele>
        <time>2022-02-06T09:24:15Z</time>
      </trkpt>
      <trkpt lat="49.0486" lon="2.10765">
        <ele>21.54</ele>
        <time>2022-02-06T09:24:18Z</time>
      </trkpt>
      <trkpt lat="49.04865" lon="2.10762">
        <ele>20.57</ele>
        <time>2022-02-06T09:24:22Z</time>
      </trkpt>
      <trkpt lat="49.04872" lon="2.10756">
        <ele>20.92</ele>
        <time>2022-02-06T09:24:29Z</time>
      </trkpt>
      <trkpt lat="49.04879" lon="2.1075">
        <ele>21.36</ele>
        <time>2022-02-06T09:24:39Z</time>
      </trkpt>
      <trkpt lat="49.04884" lon="2.10751">
        <ele>20.62</ele>
        <time>2022-02-06T09:24:53Z</time>
      </trkpt>
      <trkpt lat="49.04887" lon="2.10749">
        <ele>20.63</ele>
        <time>2022-02-06T09:25:09Z</time>
      </trkpt>
      <trkpt lat="49.04891" lon="2.10739">
        <ele>20.28</ele>
        <time>2022-02-06T09:25:18Z</time>
      </trkpt>
      <trkpt lat="49.0489" lon="2.10732">
        <ele>20.57</ele>
        <time>2022-02-06T09:25:22Z</time>
      </trkpt>
      <trkpt lat="49.04903" lon="2.10722">
        <ele>20.6</ele>
        <time>2022-02-06T09:25:35Z</time>
      </trkpt>
      <trkpt lat="49.04906" lon="2.10719">
        <ele>20.6</ele>
        <time>2022-02-06T09:25:38Z</time>
      </trkpt>
      <trkpt lat="49.04913" lon="2.10714">
        <ele>20.48</ele>
        <time>2022-02-06T09:25:45Z</time>
      </trkpt>
      <trkpt lat="49.04924" lon="2.10703">
        <ele>20.93</ele>
        <time>2022-02-06T09:25:57Z</time>
      </trkpt>
      <trkpt lat="49.04936" lon="2.10691">
        <ele>21.51</ele>
        <time>2022-02-06T09:26:10Z</time>
      </trkpt>
      <trkpt lat="49.04948" lon="2.10679">
        <ele>22.29</ele>
        <time>2022-02-06T09:26:22Z</time>
      </trkpt>
      <trkpt lat="49.04951" lon="2.10676">
        <ele>21.75</ele>
        <time>2022-02-06T09:26:25Z</time>
      </trkpt>
      <trkpt lat="49.04955" lon="2.10671">
        <ele>21.21</ele>
        <time>2022-02-06T09:26:29Z</time>
      </trkpt>
      <trkpt lat="49.04966" lon="2.10659">
        <ele>20.84</ele>
        <time>2022-02-06T09:26:40Z</time>
      </trkpt>
      <trkpt lat="49.04968" lon="2.10656">
        <ele>20.87</ele>
        <time>2022-02-06T09:26:42Z</time>
      </trkpt>
      <trkpt lat="49.04969" lon="2.10653">
        <ele>21.65</ele>
        <time>2022-02-06T09:26:44Z</time>
      </trkpt>
      <trkpt lat="49.04963" lon="2.10631">
        <ele>19.79</ele>
        <time>2022-02-06T09:26:58Z</time>
      </trkpt>
      <trkpt lat="49.04962" lon="2.10629">
        <ele>19.79</ele>
        <time>2022-02-06T09:26:59Z</time>
      </trkpt>
      <trkpt lat="49.0496" lon="2.10624">
        <ele>21.2</ele>
        <time>2022-02-06T09:27:03Z</time>
      </trkpt>
      <trkpt lat="49.04957" lon="2.10616">
        <ele>20.74</ele>
        <time>2022-02-06T09:27:08Z</time>
      </trkpt>
      <trkpt lat="49.04956" lon="2.10611">
        <ele>19.87</ele>
        <time>2022-02-06T09:27:11Z</time>
      </trkpt>
      <trkpt lat="49.04954" lon="2.10606">
        <ele>20.53</ele>
        <time>2022-02-06T09:27:14Z</time>
      </trkpt>
      <trkpt lat="49.04948" lon="2.10595">
        <ele>20.44</ele>
        <time>2022-02-06T09:27:24Z</time>
      </trkpt>
      <trkpt lat="49.04947" lon="2.10592">
        <ele>20</ele>
        <time>2022-02-06T09:27:26Z</time>
      </trkpt>
      <trkpt lat="49.04946" lon="2.10587">
        <ele>20.37</ele>
        <time>2022-02-06T09:27:30Z</time>
      </trkpt>
      <trkpt lat="49.04945" lon="2.10583">
        <ele>20.48</ele>
        <time>2022-02-06T09:27:32Z</time>
      </trkpt>
      <trkpt lat="49.04938" lon="2.10567">
        <ele>20.83</ele>
        <time>2022-02-06T09:27:43Z</time>
      </trkpt>
      <trkpt lat="49.04938" lon="2.10565">
        <ele>20.38</ele>
        <time>2022-02-06T09:27:44Z</time>
      </trkpt>
      <trkpt lat="49.04931" lon="2.10552">
        <ele>20.78</ele>
        <time>2022-02-06T09:27:53Z</time>
      </trkpt>
      <trkpt lat="49.04926" lon="2.10535">
        <ele>20.42</ele>
        <time>2022-02-06T09:28:04Z</time>
      </trkpt>
      <trkpt lat="49.04923" lon="2.10529">
        <ele>21.5</ele>
        <time>2022-02-06T09:28:08Z</time>
      </trkpt>
      <trkpt lat="49.04924" lon="2.10522">
        <ele>20.86</ele>
        <time>2022-02-06T09:28:13Z</time>
      </trkpt>
      <trkpt lat="49.04923" lon="2.1052">
        <ele>19.27</ele>
        <time>2022-02-06T09:28:15Z</time>
      </trkpt>
      <trkpt lat="49.04918" lon="2.10513">
        <ele>20.33</ele>
        <time>2022-02-06T09:28:23Z</time>
      </trkpt>
      <trkpt lat="49.04915" lon="2.10508">
        <ele>19.48</ele>
        <time>2022-02-06T09:28:27Z</time>
      </trkpt>
      <trkpt lat="49.0491" lon="2.10497">
        <ele>20.73</ele>
        <time>2022-02-06T09:28:34Z</time>
      </trkpt>
      <trkpt lat="49.04909" lon="2.10494">
        <ele>19.45</ele>
        <time>2022-02-06T09:28:36Z</time>
      </trkpt>
      <trkpt lat="49.04908" lon="2.1049">
        <ele>19.62</ele>
        <time>2022-02-06T09:28:39Z</time>
      </trkpt>
      <trkpt lat="49.04907" lon="2.10487">
        <ele>20.83</ele>
        <time>2022-02-06T09:28:41Z</time>
      </trkpt>
      <trkpt lat="49.04903" lon="2.10481">
        <ele>19.85</ele>
        <time>2022-02-06T09:28:47Z</time>
      </trkpt>
      <trkpt lat="49.04895" lon="2.10466">
        <ele>19.55</ele>
        <time>2022-02-06T09:28:59Z</time>
      </trkpt>
      <trkpt lat="49.04894" lon="2.10465">
        <ele>20.06</ele>
        <time>2022-02-06T09:29:00Z</time>
      </trkpt>
      <trkpt lat="49.04886" lon="2.10447">
        <ele>21.7</ele>
        <time>2022-02-06T09:29:13Z</time>
      </trkpt>
      <trkpt lat="49.04884" lon="2.10442">
        <ele>19.24</ele>
        <time>2022-02-06T09:29:16Z</time>
      </trkpt>
      <trkpt lat="49.04882" lon="2.10437">
        <ele>22.31</ele>
        <time>2022-02-06T09:29:20Z</time>
      </trkpt>
      <trkpt lat="49.04878" lon="2.10429">
        <ele>23.31</ele>
        <time>2022-02-06T09:29:26Z</time>
      </trkpt>
      <trkpt lat="49.0487" lon="2.10413">
        <ele>22.48</ele>
        <time>2022-02-06T09:29:38Z</time>
      </trkpt>
      <trkpt lat="49.04861" lon="2.10394">
        <ele>20.94</ele>
        <time>2022-02-06T09:29:51Z</time>
      </trkpt>
      <trkpt lat="49.04853" lon="2.10381">
        <ele>19.99</ele>
        <time>2022-02-06T09:30:02Z</time>
      </trkpt>
      <trkpt lat="49.04845" lon="2.10364">
        <ele>19.73</ele>
        <time>2022-02-06T09:30:12Z</time>
      </trkpt>
      <trkpt lat="49.0484" lon="2.10354">
        <ele>22.02</ele>
        <time>2022-02-06T09:30:19Z</time>
      </trkpt>
      <trkpt lat="49.04839" lon="2.10348">
        <ele>24.7</ele>
        <time>2022-02-06T09:30:22Z</time>
      </trkpt>
      <trkpt lat="49.04835" lon="2.10338">
        <ele>21.25</ele>
        <time>2022-02-06T09:30:28Z</time>
      </trkpt>
      <trkpt lat="49.04826" lon="2.10323">
        <ele>20.89</ele>
        <time>2022-02-06T09:30:39Z</time>
      </trkpt>
      <trkpt lat="49.04816" lon="2.10309">
        <ele>23.34</ele>
        <time>2022-02-06T09:30:49Z</time>
      </trkpt>
      <trkpt lat="49.04807" lon="2.10294">
        <ele>23.5</ele>
        <time>2022-02-06T09:31:00Z</time>
      </trkpt>
      <trkpt lat="49.04795" lon="2.10284">
        <ele>22.87</ele>
        <time>2022-02-06T09:31:11Z</time>
      </trkpt>
      <trkpt lat="49.04794" lon="2.10282">
        <ele>23.81</ele>
        <time>2022-02-06T09:31:12Z</time>
      </trkpt>
      <trkpt lat="49.04793" lon="2.10277">
        <ele>25.46</ele>
        <time>2022-02-06T09:31:16Z</time>
      </trkpt>
      <trkpt lat="49.04793" lon="2.10271">
        <ele>26.04</ele>
        <time>2022-02-06T09:31:20Z</time>
      </trkpt>
      <trkpt lat="49.04796" lon="2.10263">
        <ele>26.59</ele>
        <time>2022-02-06T09:31:25Z</time>
      </trkpt>
      <trkpt lat="49.04803" lon="2.10247">
        <ele>27</ele>
        <time>2022-02-06T09:31:36Z</time>
      </trkpt>
      <trkpt lat="49.04806" lon="2.1024">
        <ele>27.63</ele>
        <time>2022-02-06T09:31:42Z</time>
      </trkpt>
      <trkpt lat="49.04815" lon="2.10218">
        <ele>26.4</ele>
        <time>2022-02-06T09:31:56Z</time>
      </trkpt>
      <trkpt lat="49.04819" lon="2.10208">
        <ele>27.89</ele>
        <time>2022-02-06T09:32:03Z</time>
      </trkpt>
      <trkpt lat="49.04822" lon="2.10201">
        <ele>26.56</ele>
        <time>2022-02-06T09:32:08Z</time>
      </trkpt>
      <trkpt lat="49.04826" lon="2.10193">
        <ele>27.3</ele>
        <time>2022-02-06T09:32:13Z</time>
      </trkpt>
      <trkpt lat="49.04832" lon="2.10178">
        <ele>26.62</ele>
        <time>2022-02-06T09:32:23Z</time>
      </trkpt>
      <trkpt lat="49.04835" lon="2.10168">
        <ele>24.7</ele>
        <time>2022-02-06T09:32:29Z</time>
      </trkpt>
      <trkpt lat="49.04839" lon="2.10158">
        <ele>25.57</ele>
        <time>2022-02-06T09:32:35Z</time>
      </trkpt>
      <trkpt lat="49.04844" lon="2.10155">
        <ele>25.33</ele>
        <time>2022-02-06T09:32:41Z</time>
      </trkpt>
      <trkpt lat="49.04853" lon="2.10163">
        <ele>24.69</ele>
        <time>2022-02-06T09:32:52Z</time>
      </trkpt>
      <trkpt lat="49.04864" lon="2.10176">
        <ele>23.65</ele>
        <time>2022-02-06T09:33:05Z</time>
      </trkpt>
      <trkpt lat="49.04866" lon="2.10178">
        <ele>24.42</ele>
        <time>2022-02-06T09:33:07Z</time>
      </trkpt>
      <trkpt lat="49.04875" lon="2.10185">
        <ele>24.29</ele>
        <time>2022-02-06T09:33:15Z</time>
      </trkpt>
      <trkpt lat="49.04882" lon="2.10197">
        <ele>24.43</ele>
        <time>2022-02-06T09:33:24Z</time>
      </trkpt>
      <trkpt lat="49.04888" lon="2.10205">
        <ele>24.78</ele>
        <time>2022-02-06T09:33:31Z</time>
      </trkpt>
      <trkpt lat="49.04891" lon="2.10207">
        <ele>24.19</ele>
        <time>2022-02-06T09:33:33Z</time>
      </trkpt>
      <trkpt lat="49.04899" lon="2.10225">
        <ele>24.03</ele>
        <time>2022-02-06T09:33:45Z</time>
      </trkpt>
      <trkpt lat="49.04906" lon="2.10236">
        <ele>24.06</ele>
        <time>2022-02-06T09:33:53Z</time>
      </trkpt>
      <trkpt lat="49.04907" lon="2.10239">
        <ele>23.83</ele>
        <time>2022-02-06T09:33:55Z</time>
      </trkpt>
      <trkpt lat="49.04912" lon="2.10244">
        <ele>24.11</ele>
        <time>2022-02-06T09:34:00Z</time>
      </trkpt>
      <trkpt lat="49.04916" lon="2.10249">
        <ele>23.11</ele>
        <time>2022-02-06T09:34:05Z</time>
      </trkpt>
      <trkpt lat="49.04922" lon="2.10263">
        <ele>23.66</ele>
        <time>2022-02-06T09:34:14Z</time>
      </trkpt>
      <trkpt lat="49.04927" lon="2.1027">
        <ele>23.52</ele>
        <time>2022-02-06T09:34:20Z</time>
      </trkpt>
      <trkpt lat="49.04936" lon="2.10286">
        <ele>23.75</ele>
        <time>2022-02-06T09:34:31Z</time>
      </trkpt>
      <trkpt lat="49.04943" lon="2.10294">
        <ele>23.51</ele>
        <time>2022-02-06T09:34:40Z</time>
      </trkpt>
      <trkpt lat="49.04947" lon="2.10302">
        <ele>23.65</ele>
        <time>2022-02-06T09:34:45Z</time>
      </trkpt>
      <trkpt lat="49.04952" lon="2.1031">
        <ele>23.44</ele>
        <time>2022-02-06T09:34:52Z</time>
      </trkpt>
      <trkpt lat="49.04956" lon="2.1032">
        <ele>23.65</ele>
        <time>2022-02-06T09:34:58Z</time>
      </trkpt>
      <trkpt lat="49.04963" lon="2.10341">
        <ele>22.76</ele>
        <time>2022-02-06T09:35:11Z</time>
      </trkpt>
      <trkpt lat="49.04965" lon="2.10346">
        <ele>23.08</ele>
        <time>2022-02-06T09:35:14Z</time>
      </trkpt>
      <trkpt lat="49.04973" lon="2.10361">
        <ele>23.25</ele>
        <time>2022-02-06T09:35:26Z</time>
      </trkpt>
      <trkpt lat="49.04986" lon="2.10381">
        <ele>23.88</ele>
        <time>2022-02-06T09:35:42Z</time>
      </trkpt>
      <trkpt lat="49.04988" lon="2.10384">
        <ele>22.1</ele>
        <time>2022-02-06T09:35:45Z</time>
      </trkpt>
      <trkpt lat="49.0499" lon="2.10386">
        <ele>22.24</ele>
        <time>2022-02-06T09:35:47Z</time>
      </trkpt>
      <trkpt lat="49.05" lon="2.10402">
        <ele>22.36</ele>
        <time>2022-02-06T09:36:00Z</time>
      </trkpt>
      <trkpt lat="49.05007" lon="2.10412">
        <ele>22.94</ele>
        <time>2022-02-06T09:36:10Z</time>
      </trkpt>
      <trkpt lat="49.05015" lon="2.10428">
        <ele>23.1</ele>
        <time>2022-02-06T09:36:22Z</time>
      </trkpt>
      <trkpt lat="49.0502" lon="2.10437">
        <ele>22.05</ele>
        <time>2022-02-06T09:36:34Z</time>
      </trkpt>
      <trkpt lat="49.0502" lon="2.10438">
        <ele>22.94</ele>
        <time>2022-02-06T09:36:58Z</time>
      </trkpt>
      <trkpt lat="49.05025" lon="2.10448">
        <ele>21.72</ele>
        <time>2022-02-06T09:37:12Z</time>
      </trkpt>
      <trkpt lat="49.0503" lon="2.10459">
        <ele>21.9</ele>
        <time>2022-02-06T09:37:21Z</time>
      </trkpt>
      <trkpt lat="49.05038" lon="2.10474">
        <ele>22.4</ele>
        <time>2022-02-06T09:37:32Z</time>
      </trkpt>
      <trkpt lat="49.05042" lon="2.10481">
        <ele>22</ele>
        <time>2022-02-06T09:37:37Z</time>
      </trkpt>
      <trkpt lat="49.0505" lon="2.10494">
        <ele>22.05</ele>
        <time>2022-02-06T09:37:47Z</time>
      </trkpt>
      <trkpt lat="49.05055" lon="2.10506">
        <ele>22.2</ele>
        <time>2022-02-06T09:37:56Z</time>
      </trkpt>
      <trkpt lat="49.05063" lon="2.10521">
        <ele>21.53</ele>
        <time>2022-02-06T09:38:07Z</time>
      </trkpt>
      <trkpt lat="49.0507" lon="2.10541">
        <ele>21.7</ele>
        <time>2022-02-06T09:38:20Z</time>
      </trkpt>
      <trkpt lat="49.05073" lon="2.10547">
        <ele>20.95</ele>
        <time>2022-02-06T09:38:25Z</time>
      </trkpt>
      <trkpt lat="49.05075" lon="2.10549">
        <ele>21.36</ele>
        <time>2022-02-06T09:38:27Z</time>
      </trkpt>
      <trkpt lat="49.05082" lon="2.10568">
        <ele>21.77</ele>
        <time>2022-02-06T09:38:39Z</time>
      </trkpt>
      <trkpt lat="49.05084" lon="2.10572">
        <ele>21.44</ele>
        <time>2022-02-06T09:38:44Z</time>
      </trkpt>
      <trkpt lat="49.05089" lon="2.10575">
        <ele>20.35</ele>
        <time>2022-02-06T09:38:56Z</time>
      </trkpt>
      <trkpt lat="49.05093" lon="2.10573">
        <ele>20.75</ele>
        <time>2022-02-06T09:39:03Z</time>
      </trkpt>
      <trkpt lat="49.051" lon="2.10562">
        <ele>20.74</ele>
        <time>2022-02-06T09:39:15Z</time>
      </trkpt>
      <trkpt lat="49.05108" lon="2.10561">
        <ele>20.83</ele>
        <time>2022-02-06T09:39:22Z</time>
      </trkpt>
      <trkpt lat="49.05123" lon="2.10559">
        <ele>21.12</ele>
        <time>2022-02-06T09:39:34Z</time>
      </trkpt>
      <trkpt lat="49.05126" lon="2.10558">
        <ele>21.22</ele>
        <time>2022-02-06T09:39:36Z</time>
      </trkpt>
      <trkpt lat="49.05129" lon="2.10558">
        <ele>21.08</ele>
        <time>2022-02-06T09:39:39Z</time>
      </trkpt>
      <trkpt lat="49.05134" lon="2.10557">
        <ele>21.54</ele>
        <time>2022-02-06T09:39:43Z</time>
      </trkpt>
      <trkpt lat="49.05141" lon="2.10557">
        <ele>21.63</ele>
        <time>2022-02-06T09:39:49Z</time>
      </trkpt>
      <trkpt lat="49.05155" lon="2.10553">
        <ele>21.98</ele>
        <time>2022-02-06T09:40:01Z</time>
      </trkpt>
      <trkpt lat="49.05168" lon="2.10551">
        <ele>21.49</ele>
        <time>2022-02-06T09:40:12Z</time>
      </trkpt>
      <trkpt lat="49.05182" lon="2.10551">
        <ele>21.64</ele>
        <time>2022-02-06T09:40:25Z</time>
      </trkpt>
      <trkpt lat="49.05202" lon="2.10551">
        <ele>21.38</ele>
        <time>2022-02-06T09:40:42Z</time>
      </trkpt>
      <trkpt lat="49.05216" lon="2.10543">
        <ele>21.58</ele>
        <time>2022-02-06T09:40:55Z</time>
      </trkpt>
      <trkpt lat="49.05222" lon="2.10542">
        <ele>21.64</ele>
        <time>2022-02-06T09:41:01Z</time>
      </trkpt>
      <trkpt lat="49.05228" lon="2.10541">
        <ele>21.67</ele>
        <time>2022-02-06T09:41:07Z</time>
      </trkpt>
      <trkpt lat="49.05242" lon="2.10541">
        <ele>21.52</ele>
        <time>2022-02-06T09:41:18Z</time>
      </trkpt>
      <trkpt lat="49.05253" lon="2.10538">
        <ele>21.15</ele>
        <time>2022-02-06T09:41:29Z</time>
      </trkpt>
      <trkpt lat="49.05257" lon="2.10537">
        <ele>21.17</ele>
        <time>2022-02-06T09:41:33Z</time>
      </trkpt>
      <trkpt lat="49.05272" lon="2.10535">
        <ele>21.89</ele>
        <time>2022-02-06T09:41:46Z</time>
      </trkpt>
      <trkpt lat="49.05289" lon="2.10533">
        <ele>21.69</ele>
        <time>2022-02-06T09:42:01Z</time>
      </trkpt>
      <trkpt lat="49.05291" lon="2.1053">
        <ele>21.26</ele>
        <time>2022-02-06T09:42:11Z</time>
      </trkpt>
      <trkpt lat="49.05296" lon="2.10528">
        <ele>21.4</ele>
        <time>2022-02-06T09:42:25Z</time>
      </trkpt>
      <trkpt lat="49.05298" lon="2.10527">
        <ele>21.07</ele>
        <time>2022-02-06T09:42:27Z</time>
      </trkpt>
      <trkpt lat="49.053" lon="2.10526">
        <ele>21.09</ele>
        <time>2022-02-06T09:42:29Z</time>
      </trkpt>
      <trkpt lat="49.05312" lon="2.10527">
        <ele>21.36</ele>
        <time>2022-02-06T09:42:42Z</time>
      </trkpt>
      <trkpt lat="49.05313" lon="2.10527">
        <ele>21.56</ele>
        <time>2022-02-06T09:42:50Z</time>
      </trkpt>
      <trkpt lat="49.05315" lon="2.10534">
        <ele>21.67</ele>
        <time>2022-02-06T09:43:07Z</time>
      </trkpt>
      <trkpt lat="49.05316" lon="2.10537">
        <ele>21.98</ele>
        <time>2022-02-06T09:43:10Z</time>
      </trkpt>
      <trkpt lat="49.05322" lon="2.10552">
        <ele>22.09</ele>
        <time>2022-02-06T09:43:21Z</time>
      </trkpt>
      <trkpt lat="49.05328" lon="2.1056">
        <ele>22.23</ele>
        <time>2022-02-06T09:43:32Z</time>
      </trkpt>
      <trkpt lat="49.05334" lon="2.10579">
        <ele>21.83</ele>
        <time>2022-02-06T09:43:45Z</time>
      </trkpt>
      <trkpt lat="49.05337" lon="2.10584">
        <ele>22.48</ele>
        <time>2022-02-06T09:43:49Z</time>
      </trkpt>
      <trkpt lat="49.05347" lon="2.10601">
        <ele>23.14</ele>
        <time>2022-02-06T09:43:58Z</time>
      </trkpt>
      <trkpt lat="49.05351" lon="2.1061">
        <ele>24.38</ele>
        <time>2022-02-06T09:44:07Z</time>
      </trkpt>
      <trkpt lat="49.05357" lon="2.10618">
        <ele>24.28</ele>
        <time>2022-02-06T09:44:18Z</time>
      </trkpt>
      <trkpt lat="49.05365" lon="2.10631">
        <ele>25.2</ele>
        <time>2022-02-06T09:44:31Z</time>
      </trkpt>
      <trkpt lat="49.05368" lon="2.10632">
        <ele>25.4</ele>
        <time>2022-02-06T09:44:33Z</time>
      </trkpt>
      <trkpt lat="49.05371" lon="2.10653">
        <ele>26.42</ele>
        <time>2022-02-06T09:44:46Z</time>
      </trkpt>
      <trkpt lat="49.05376" lon="2.1067">
        <ele>28.73</ele>
        <time>2022-02-06T09:44:56Z</time>
      </trkpt>
      <trkpt lat="49.05378" lon="2.10675">
        <ele>29.03</ele>
        <time>2022-02-06T09:45:00Z</time>
      </trkpt>
      <trkpt lat="49.05381" lon="2.10688">
        <ele>29.51</ele>
        <time>2022-02-06T09:45:14Z</time>
      </trkpt>
      <trkpt lat="49.0538" lon="2.10683">
        <ele>29.13</ele>
        <time>2022-02-06T09:45:27Z</time>
      </trkpt>
      <trkpt lat="49.05378" lon="2.10684">
        <ele>29.09</ele>
        <time>2022-02-06T09:45:42Z</time>
      </trkpt>
      <trkpt lat="49.0538" lon="2.10695">
        <ele>30.17</ele>
        <time>2022-02-06T09:45:53Z</time>
      </trkpt>
      <trkpt lat="49.05382" lon="2.10696">
        <ele>30.18</ele>
        <time>2022-02-06T09:45:55Z</time>
      </trkpt>
      <trkpt lat="49.05387" lon="2.10707">
        <ele>31.68</ele>
        <time>2022-02-06T09:46:06Z</time>
      </trkpt>
      <trkpt lat="49.05387" lon="2.10708">
        <ele>31.48</ele>
        <time>2022-02-06T09:46:21Z</time>
      </trkpt>
      <trkpt lat="49.05387" lon="2.10708">
        <ele>31.57</ele>
        <time>2022-02-06T09:46:37Z</time>
      </trkpt>
      <trkpt lat="49.05388" lon="2.10711">
        <ele>32.04</ele>
        <time>2022-02-06T09:46:48Z</time>
      </trkpt>
      <trkpt lat="49.05393" lon="2.10719">
        <ele>31.08</ele>
        <time>2022-02-06T09:46:55Z</time>
      </trkpt>
      <trkpt lat="49.05396" lon="2.10722">
        <ele>31.38</ele>
        <time>2022-02-06T09:46:58Z</time>
      </trkpt>
      <trkpt lat="49.05399" lon="2.10729">
        <ele>32.03</ele>
        <time>2022-02-06T09:47:03Z</time>
      </trkpt>
      <trkpt lat="49.05402" lon="2.10734">
        <ele>32.03</ele>
        <time>2022-02-06T09:47:07Z</time>
      </trkpt>
      <trkpt lat="49.05409" lon="2.10739">
        <ele>30.92</ele>
        <time>2022-02-06T09:47:16Z</time>
      </trkpt>
      <trkpt lat="49.05418" lon="2.10749">
        <ele>30.33</ele>
        <time>2022-02-06T09:47:29Z</time>
      </trkpt>
      <trkpt lat="49.0542" lon="2.10754">
        <ele>30.07</ele>
        <time>2022-02-06T09:47:33Z</time>
      </trkpt>
      <trkpt lat="49.05424" lon="2.10758">
        <ele>29.74</ele>
        <time>2022-02-06T09:47:37Z</time>
      </trkpt>
      <trkpt lat="49.05436" lon="2.1077">
        <ele>30.8</ele>
        <time>2022-02-06T09:47:49Z</time>
      </trkpt>
      <trkpt lat="49.05438" lon="2.10773">
        <ele>31.23</ele>
        <time>2022-02-06T09:47:51Z</time>
      </trkpt>
      <trkpt lat="49.05441" lon="2.10784">
        <ele>31.36</ele>
        <time>2022-02-06T09:48:01Z</time>
      </trkpt>
      <trkpt lat="49.05443" lon="2.10786">
        <ele>31.02</ele>
        <time>2022-02-06T09:48:04Z</time>
      </trkpt>
      <trkpt lat="49.05455" lon="2.10801">
        <ele>31.06</ele>
        <time>2022-02-06T09:48:21Z</time>
      </trkpt>
      <trkpt lat="49.0547" lon="2.10816">
        <ele>31.21</ele>
        <time>2022-02-06T09:48:38Z</time>
      </trkpt>
      <trkpt lat="49.05471" lon="2.1082">
        <ele>30.74</ele>
        <time>2022-02-06T09:48:40Z</time>
      </trkpt>
      <trkpt lat="49.05479" lon="2.10828">
        <ele>30.83</ele>
        <time>2022-02-06T09:48:48Z</time>
      </trkpt>
      <trkpt lat="49.0548" lon="2.10831">
        <ele>31.13</ele>
        <time>2022-02-06T09:48:50Z</time>
      </trkpt>
      <trkpt lat="49.0549" lon="2.1084">
        <ele>31.77</ele>
        <time>2022-02-06T09:48:59Z</time>
      </trkpt>
      <trkpt lat="49.05494" lon="2.10843">
        <ele>32.06</ele>
        <time>2022-02-06T09:49:02Z</time>
      </trkpt>
      <trkpt lat="49.05505" lon="2.10857">
        <ele>31.96</ele>
        <time>2022-02-06T09:49:14Z</time>
      </trkpt>
      <trkpt lat="49.05508" lon="2.10862">
        <ele>32.24</ele>
        <time>2022-02-06T09:49:18Z</time>
      </trkpt>
      <trkpt lat="49.05515" lon="2.10869">
        <ele>32.19</ele>
        <time>2022-02-06T09:49:25Z</time>
      </trkpt>
      <trkpt lat="49.05518" lon="2.1087">
        <ele>32.24</ele>
        <time>2022-02-06T09:49:28Z</time>
      </trkpt>
      <trkpt lat="49.05528" lon="2.10881">
        <ele>33.15</ele>
        <time>2022-02-06T09:49:39Z</time>
      </trkpt>
      <trkpt lat="49.05532" lon="2.10883">
        <ele>34.03</ele>
        <time>2022-02-06T09:49:43Z</time>
      </trkpt>
      <trkpt lat="49.05534" lon="2.10883">
        <ele>33.77</ele>
        <time>2022-02-06T09:49:45Z</time>
      </trkpt>
      <trkpt lat="49.05546" lon="2.10898">
        <ele>33.77</ele>
        <time>2022-02-06T09:50:00Z</time>
      </trkpt>
      <trkpt lat="49.05559" lon="2.10914">
        <ele>34.45</ele>
        <time>2022-02-06T09:50:15Z</time>
      </trkpt>
      <trkpt lat="49.05567" lon="2.10922">
        <ele>34.75</ele>
        <time>2022-02-06T09:50:24Z</time>
      </trkpt>
      <trkpt lat="49.05568" lon="2.10923">
        <ele>35.12</ele>
        <time>2022-02-06T09:50:25Z</time>
      </trkpt>
      <trkpt lat="49.05573" lon="2.10933">
        <ele>35.5</ele>
        <time>2022-02-06T09:50:32Z</time>
      </trkpt>
      <trkpt lat="49.0558" lon="2.10945">
        <ele>35.84</ele>
        <time>2022-02-06T09:50:41Z</time>
      </trkpt>
      <trkpt lat="49.05593" lon="2.10957">
        <ele>35.66</ele>
        <time>2022-02-06T09:50:55Z</time>
      </trkpt>
      <trkpt lat="49.056" lon="2.10969">
        <ele>35.63</ele>
        <time>2022-02-06T09:51:05Z</time>
      </trkpt>
      <trkpt lat="49.05602" lon="2.10975">
        <ele>35.76</ele>
        <time>2022-02-06T09:51:09Z</time>
      </trkpt>
      <trkpt lat="49.05607" lon="2.10988">
        <ele>34.88</ele>
        <time>2022-02-06T09:51:32Z</time>
      </trkpt>
      <trkpt lat="49.05612" lon="2.10991">
        <ele>34.38</ele>
        <time>2022-02-06T09:51:39Z</time>
      </trkpt>
      <trkpt lat="49.05615" lon="2.10998">
        <ele>34.65</ele>
        <time>2022-02-06T09:51:49Z</time>
      </trkpt>
      <trkpt lat="49.05624" lon="2.11003">
        <ele>34.45</ele>
        <time>2022-02-06T09:51:59Z</time>
      </trkpt>
      <trkpt lat="49.05626" lon="2.11009">
        <ele>34.42</ele>
        <time>2022-02-06T09:52:04Z</time>
      </trkpt>
      <trkpt lat="49.05635" lon="2.11023">
        <ele>32.98</ele>
        <time>2022-02-06T09:52:17Z</time>
      </trkpt>
      <trkpt lat="49.05643" lon="2.11032">
        <ele>32.23</ele>
        <time>2022-02-06T09:52:28Z</time>
      </trkpt>
      <trkpt lat="49.0565" lon="2.11043">
        <ele>32.7</ele>
        <time>2022-02-06T09:52:37Z</time>
      </trkpt>
      <trkpt lat="49.05655" lon="2.1105">
        <ele>32.61</ele>
        <time>2022-02-06T09:52:43Z</time>
      </trkpt>
      <trkpt lat="49.05657" lon="2.11058">
        <ele>32.52</ele>
        <time>2022-02-06T09:52:47Z</time>
      </trkpt>
      <trkpt lat="49.05666" lon="2.11069">
        <ele>33.9</ele>
        <time>2022-02-06T09:52:57Z</time>
      </trkpt>
      <trkpt lat="49.05669" lon="2.11074">
        <ele>32.94</ele>
        <time>2022-02-06T09:53:07Z</time>
      </trkpt>
      <trkpt lat="49.05678" lon="2.11087">
        <ele>33.44</ele>
        <time>2022-02-06T09:53:18Z</time>
      </trkpt>
      <trkpt lat="49.05687" lon="2.11102">
        <ele>33.38</ele>
        <time>2022-02-06T09:53:31Z</time>
      </trkpt>
      <trkpt lat="49.05691" lon="2.11107">
        <ele>33.24</ele>
        <time>2022-02-06T09:53:35Z</time>
      </trkpt>
      <trkpt lat="49.05699" lon="2.11117">
        <ele>33.54</ele>
        <time>2022-02-06T09:53:43Z</time>
      </trkpt>
      <trkpt lat="49.05699" lon="2.1112">
        <ele>33</ele>
        <time>2022-02-06T09:53:45Z</time>
      </trkpt>
      <trkpt lat="49.05705" lon="2.11135">
        <ele>31.81</ele>
        <time>2022-02-06T09:53:56Z</time>
      </trkpt>
      <trkpt lat="49.05714" lon="2.11152">
        <ele>31.51</ele>
        <time>2022-02-06T09:54:11Z</time>
      </trkpt>
      <trkpt lat="49.05722" lon="2.11164">
        <ele>32.66</ele>
        <time>2022-02-06T09:54:23Z</time>
      </trkpt>
      <trkpt lat="49.05732" lon="2.11178">
        <ele>32.84</ele>
        <time>2022-02-06T09:54:36Z</time>
      </trkpt>
      <trkpt lat="49.05735" lon="2.11181">
        <ele>33.7</ele>
        <time>2022-02-06T09:54:38Z</time>
      </trkpt>
      <trkpt lat="49.05743" lon="2.11191">
        <ele>32.97</ele>
        <time>2022-02-06T09:54:45Z</time>
      </trkpt>
      <trkpt lat="49.05745" lon="2.11194">
        <ele>32.96</ele>
        <time>2022-02-06T09:54:47Z</time>
      </trkpt>
      <trkpt lat="49.05751" lon="2.11205">
        <ele>32.45</ele>
        <time>2022-02-06T09:54:58Z</time>
      </trkpt>
      <trkpt lat="49.05753" lon="2.11217">
        <ele>32.06</ele>
        <time>2022-02-06T09:55:11Z</time>
      </trkpt>
      <trkpt lat="49.05756" lon="2.11222">
        <ele>32.35</ele>
        <time>2022-02-06T09:55:22Z</time>
      </trkpt>
      <trkpt lat="49.05759" lon="2.11223">
        <ele>31.43</ele>
        <time>2022-02-06T09:55:24Z</time>
      </trkpt>
      <trkpt lat="49.05765" lon="2.11229">
        <ele>31.37</ele>
        <time>2022-02-06T09:55:31Z</time>
      </trkpt>
      <trkpt lat="49.05774" lon="2.1124">
        <ele>31.55</ele>
        <time>2022-02-06T09:55:41Z</time>
      </trkpt>
      <trkpt lat="49.05783" lon="2.11245">
        <ele>31.37</ele>
        <time>2022-02-06T09:55:49Z</time>
      </trkpt>
      <trkpt lat="49.05791" lon="2.11256">
        <ele>31.95</ele>
        <time>2022-02-06T09:56:01Z</time>
      </trkpt>
      <trkpt lat="49.05798" lon="2.11265">
        <ele>32.31</ele>
        <time>2022-02-06T09:56:10Z</time>
      </trkpt>
      <trkpt lat="49.05801" lon="2.11266">
        <ele>32.34</ele>
        <time>2022-02-06T09:56:12Z</time>
      </trkpt>
      <trkpt lat="49.05805" lon="2.11272">
        <ele>32.99</ele>
        <time>2022-02-06T09:56:17Z</time>
      </trkpt>
      <trkpt lat="49.05814" lon="2.11284">
        <ele>33.39</ele>
        <time>2022-02-06T09:56:27Z</time>
      </trkpt>
      <trkpt lat="49.05825" lon="2.11294">
        <ele>34</ele>
        <time>2022-02-06T09:56:40Z</time>
      </trkpt>
      <trkpt lat="49.05837" lon="2.11308">
        <ele>33.58</ele>
        <time>2022-02-06T09:56:54Z</time>
      </trkpt>
      <trkpt lat="49.05846" lon="2.11319">
        <ele>32.75</ele>
        <time>2022-02-06T09:57:05Z</time>
      </trkpt>
      <trkpt lat="49.05846" lon="2.11319">
        <ele>32.5</ele>
        <time>2022-02-06T09:57:06Z</time>
      </trkpt>
      <trkpt lat="49.05856" lon="2.11335">
        <ele>32.32</ele>
        <time>2022-02-06T09:57:19Z</time>
      </trkpt>
      <trkpt lat="49.05865" lon="2.11348">
        <ele>29.8</ele>
        <time>2022-02-06T09:57:33Z</time>
      </trkpt>
      <trkpt lat="49.05875" lon="2.1136">
        <ele>30.6</ele>
        <time>2022-02-06T09:57:45Z</time>
      </trkpt>
      <trkpt lat="49.05876" lon="2.11365">
        <ele>31.23</ele>
        <time>2022-02-06T09:57:58Z</time>
      </trkpt>
      <trkpt lat="49.0588" lon="2.11363">
        <ele>33.33</ele>
        <time>2022-02-06T09:58:15Z</time>
      </trkpt>
      <trkpt lat="49.05884" lon="2.11363">
        <ele>34.79</ele>
        <time>2022-02-06T09:58:26Z</time>
      </trkpt>
      <trkpt lat="49.05894" lon="2.11362">
        <ele>37.9</ele>
        <time>2022-02-06T09:58:43Z</time>
      </trkpt>
      <trkpt lat="49.05904" lon="2.11365">
        <ele>39.98</ele>
        <time>2022-02-06T09:58:57Z</time>
      </trkpt>
      <trkpt lat="49.05911" lon="2.11371">
        <ele>42.51</ele>
        <time>2022-02-06T09:59:11Z</time>
      </trkpt>
      <trkpt lat="49.05917" lon="2.11379">
        <ele>43.03</ele>
        <time>2022-02-06T09:59:23Z</time>
      </trkpt>
      <trkpt lat="49.05926" lon="2.11388">
        <ele>43.92</ele>
        <time>2022-02-06T09:59:37Z</time>
      </trkpt>
      <trkpt lat="49.05938" lon="2.11404">
        <ele>44.28</ele>
        <time>2022-02-06T09:59:50Z</time>
      </trkpt>
      <trkpt lat="49.05947" lon="2.11417">
        <ele>46.22</ele>
        <time>2022-02-06T10:00:05Z</time>
      </trkpt>
      <trkpt lat="49.05958" lon="2.11429">
        <ele>46.85</ele>
        <time>2022-02-06T10:00:19Z</time>
      </trkpt>
      <trkpt lat="49.05969" lon="2.11443">
        <ele>47.01</ele>
        <time>2022-02-06T10:00:31Z</time>
      </trkpt>
      <trkpt lat="49.05977" lon="2.11455">
        <ele>48.19</ele>
        <time>2022-02-06T10:00:45Z</time>
      </trkpt>
      <trkpt lat="49.05986" lon="2.11466">
        <ele>49.57</ele>
        <time>2022-02-06T10:01:00Z</time>
      </trkpt>
      <trkpt lat="49.05997" lon="2.11478">
        <ele>48.8</ele>
        <time>2022-02-06T10:01:14Z</time>
      </trkpt>
      <trkpt lat="49.06009" lon="2.1149">
        <ele>49.78</ele>
        <time>2022-02-06T10:01:29Z</time>
      </trkpt>
      <trkpt lat="49.06019" lon="2.11505">
        <ele>50.99</ele>
        <time>2022-02-06T10:01:44Z</time>
      </trkpt>
      <trkpt lat="49.06025" lon="2.11519">
        <ele>51.19</ele>
        <time>2022-02-06T10:01:58Z</time>
      </trkpt>
      <trkpt lat="49.06031" lon="2.11524">
        <ele>51.67</ele>
        <time>2022-02-06T10:02:08Z</time>
      </trkpt>
      <trkpt lat="49.0604" lon="2.11537">
        <ele>52.7</ele>
        <time>2022-02-06T10:02:21Z</time>
      </trkpt>
      <trkpt lat="49.06049" lon="2.11546">
        <ele>52.67</ele>
        <time>2022-02-06T10:02:37Z</time>
      </trkpt>
      <trkpt lat="49.06062" lon="2.11551">
        <ele>55.82</ele>
        <time>2022-02-06T10:02:51Z</time>
      </trkpt>
      <trkpt lat="49.06067" lon="2.11562">
        <ele>56.39</ele>
        <time>2022-02-06T10:02:58Z</time>
      </trkpt>
      <trkpt lat="49.06075" lon="2.11572">
        <ele>55.04</ele>
        <time>2022-02-06T10:03:13Z</time>
      </trkpt>
      <trkpt lat="49.06076" lon="2.11574">
        <ele>55</ele>
        <time>2022-02-06T10:03:15Z</time>
      </trkpt>
      <trkpt lat="49.06085" lon="2.11581">
        <ele>55.85</ele>
        <time>2022-02-06T10:03:28Z</time>
      </trkpt>
      <trkpt lat="49.06095" lon="2.11595">
        <ele>55.09</ele>
        <time>2022-02-06T10:03:43Z</time>
      </trkpt>
      <trkpt lat="49.061" lon="2.11611">
        <ele>54.51</ele>
        <time>2022-02-06T10:03:56Z</time>
      </trkpt>
      <trkpt lat="49.06107" lon="2.11627">
        <ele>54.63</ele>
        <time>2022-02-06T10:04:09Z</time>
      </trkpt>
      <trkpt lat="49.06113" lon="2.11638">
        <ele>53.46</ele>
        <time>2022-02-06T10:04:18Z</time>
      </trkpt>
      <trkpt lat="49.06122" lon="2.11659">
        <ele>53.03</ele>
        <time>2022-02-06T10:04:30Z</time>
      </trkpt>
      <trkpt lat="49.06126" lon="2.11673">
        <ele>52.4</ele>
        <time>2022-02-06T10:04:42Z</time>
      </trkpt>
      <trkpt lat="49.06134" lon="2.11692">
        <ele>52.67</ele>
        <time>2022-02-06T10:04:57Z</time>
      </trkpt>
      <trkpt lat="49.06141" lon="2.11705">
        <ele>53.03</ele>
        <time>2022-02-06T10:05:09Z</time>
      </trkpt>
      <trkpt lat="49.06145" lon="2.11708">
        <ele>53.66</ele>
        <time>2022-02-06T10:05:27Z</time>
      </trkpt>
      <trkpt lat="49.06143" lon="2.11715">
        <ele>52.9</ele>
        <time>2022-02-06T10:05:44Z</time>
      </trkpt>
      <trkpt lat="49.06143" lon="2.11715">
        <ele>53.3</ele>
        <time>2022-02-06T10:06:05Z</time>
      </trkpt>
      <trkpt lat="49.06145" lon="2.11713">
        <ele>53.19</ele>
        <time>2022-02-06T10:06:24Z</time>
      </trkpt>
      <trkpt lat="49.06146" lon="2.11712">
        <ele>53.9</ele>
        <time>2022-02-06T10:06:26Z</time>
      </trkpt>
      <trkpt lat="49.06146" lon="2.11712">
        <ele>53.29</ele>
        <time>2022-02-06T10:06:36Z</time>
      </trkpt>
      <trkpt lat="49.06145" lon="2.11714">
        <ele>52.83</ele>
        <time>2022-02-06T10:06:53Z</time>
      </trkpt>
      <trkpt lat="49.06143" lon="2.11716">
        <ele>52.98</ele>
        <time>2022-02-06T10:07:10Z</time>
      </trkpt>
      <trkpt lat="49.06142" lon="2.11713">
        <ele>52.71</ele>
        <time>2022-02-06T10:07:25Z</time>
      </trkpt>
      <trkpt lat="49.06144" lon="2.11715">
        <ele>53.07</ele>
        <time>2022-02-06T10:07:41Z</time>
      </trkpt>
      <trkpt lat="49.06148" lon="2.11717">
        <ele>53.57</ele>
        <time>2022-02-06T10:07:57Z</time>
      </trkpt>
      <trkpt lat="49.06148" lon="2.11717">
        <ele>54.61</ele>
        <time>2022-02-06T10:08:13Z</time>
      </trkpt>
      <trkpt lat="49.06147" lon="2.11721">
        <ele>53.26</ele>
        <time>2022-02-06T10:08:28Z</time>
      </trkpt>
      <trkpt lat="49.06148" lon="2.11724">
        <ele>52.98</ele>
        <time>2022-02-06T10:08:40Z</time>
      </trkpt>
      <trkpt lat="49.06149" lon="2.11726">
        <ele>52.99</ele>
        <time>2022-02-06T10:08:42Z</time>
      </trkpt>
      <trkpt lat="49.06155" lon="2.11738">
        <ele>52.71</ele>
        <time>2022-02-06T10:08:52Z</time>
      </trkpt>
      <trkpt lat="49.06162" lon="2.11752">
        <ele>52.5</ele>
        <time>2022-02-06T10:09:04Z</time>
      </trkpt>
      <trkpt lat="49.06171" lon="2.11766">
        <ele>52.58</ele>
        <time>2022-02-06T10:09:17Z</time>
      </trkpt>
      <trkpt lat="49.06173" lon="2.11771">
        <ele>52.09</ele>
        <time>2022-02-06T10:09:27Z</time>
      </trkpt>
      <trkpt lat="49.06175" lon="2.11774">
        <ele>53.38</ele>
        <time>2022-02-06T10:09:31Z</time>
      </trkpt>
      <trkpt lat="49.0618" lon="2.11785">
        <ele>53.36</ele>
        <time>2022-02-06T10:09:45Z</time>
      </trkpt>
      <trkpt lat="49.06179" lon="2.11782">
        <ele>52.84</ele>
        <time>2022-02-06T10:09:58Z</time>
      </trkpt>
      <trkpt lat="49.06176" lon="2.11777">
        <ele>53.06</ele>
        <time>2022-02-06T10:10:03Z</time>
      </trkpt>
      <trkpt lat="49.06167" lon="2.11763">
        <ele>51.97</ele>
        <time>2022-02-06T10:10:15Z</time>
      </trkpt>
      <trkpt lat="49.06158" lon="2.11747">
        <ele>52.71</ele>
        <time>2022-02-06T10:10:28Z</time>
      </trkpt>
      <trkpt lat="49.06151" lon="2.11733">
        <ele>52.57</ele>
        <time>2022-02-06T10:10:39Z</time>
      </trkpt>
      <trkpt lat="49.0615" lon="2.11718">
        <ele>54.23</ele>
        <time>2022-02-06T10:10:52Z</time>
      </trkpt>
      <trkpt lat="49.06153" lon="2.11711">
        <ele>55.14</ele>
        <time>2022-02-06T10:11:05Z</time>
      </trkpt>
      <trkpt lat="49.06154" lon="2.11701">
        <ele>55.37</ele>
        <time>2022-02-06T10:11:17Z</time>
      </trkpt>
      <trkpt lat="49.06155" lon="2.117">
        <ele>56.76</ele>
        <time>2022-02-06T10:11:36Z</time>
      </trkpt>
      <trkpt lat="49.06154" lon="2.117">
        <ele>55.38</ele>
        <time>2022-02-06T10:11:53Z</time>
      </trkpt>
      <trkpt lat="49.06155" lon="2.11701">
        <ele>56.08</ele>
        <time>2022-02-06T10:12:13Z</time>
      </trkpt>
      <trkpt lat="49.06154" lon="2.11699">
        <ele>56.29</ele>
        <time>2022-02-06T10:12:30Z</time>
      </trkpt>
      <trkpt lat="49.06154" lon="2.117">
        <ele>56</ele>
        <time>2022-02-06T10:12:50Z</time>
      </trkpt>
      <trkpt lat="49.06153" lon="2.117">
        <ele>55.23</ele>
        <time>2022-02-06T10:13:11Z</time>
      </trkpt>
      <trkpt lat="49.06154" lon="2.117">
        <ele>56.13</ele>
        <time>2022-02-06T10:13:34Z</time>
      </trkpt>
      <trkpt lat="49.06156" lon="2.117">
        <ele>55.9</ele>
        <time>2022-02-06T10:13:54Z</time>
      </trkpt>
      <trkpt lat="49.06157" lon="2.11703">
        <ele>55.98</ele>
        <time>2022-02-06T10:14:11Z</time>
      </trkpt>
      <trkpt lat="49.06162" lon="2.11707">
        <ele>56.09</ele>
        <time>2022-02-06T10:14:30Z</time>
      </trkpt>
      <trkpt lat="49.06172" lon="2.11714">
        <ele>57.73</ele>
        <time>2022-02-06T10:14:46Z</time>
      </trkpt>
      <trkpt lat="49.06174" lon="2.11715">
        <ele>57.66</ele>
        <time>2022-02-06T10:14:48Z</time>
      </trkpt>
      <trkpt lat="49.06179" lon="2.11719">
        <ele>58.26</ele>
        <time>2022-02-06T10:14:53Z</time>
      </trkpt>
      <trkpt lat="49.06185" lon="2.11717">
        <ele>59.68</ele>
        <time>2022-02-06T10:15:07Z</time>
      </trkpt>
      <trkpt lat="49.06196" lon="2.11711">
        <ele>61.21</ele>
        <time>2022-02-06T10:15:22Z</time>
      </trkpt>
      <trkpt lat="49.06206" lon="2.1171">
        <ele>61.79</ele>
        <time>2022-02-06T10:15:35Z</time>
      </trkpt>
      <trkpt lat="49.06217" lon="2.11712">
        <ele>62.62</ele>
        <time>2022-02-06T10:15:47Z</time>
      </trkpt>
      <trkpt lat="49.06226" lon="2.11717">
        <ele>62.53</ele>
        <time>2022-02-06T10:15:59Z</time>
      </trkpt>
      <trkpt lat="49.06233" lon="2.11728">
        <ele>63.14</ele>
        <time>2022-02-06T10:16:12Z</time>
      </trkpt>
      <trkpt lat="49.06242" lon="2.11734">
        <ele>63.47</ele>
        <time>2022-02-06T10:16:27Z</time>
      </trkpt>
      <trkpt lat="49.06255" lon="2.11745">
        <ele>64.58</ele>
        <time>2022-02-06T10:16:41Z</time>
      </trkpt>
      <trkpt lat="49.06261" lon="2.1176">
        <ele>62.85</ele>
        <time>2022-02-06T10:16:56Z</time>
      </trkpt>
      <trkpt lat="49.06265" lon="2.11776">
        <ele>62.04</ele>
        <time>2022-02-06T10:17:12Z</time>
      </trkpt>
      <trkpt lat="49.06266" lon="2.1179">
        <ele>61.64</ele>
        <time>2022-02-06T10:17:24Z</time>
      </trkpt>
      <trkpt lat="49.06272" lon="2.11804">
        <ele>61.81</ele>
        <time>2022-02-06T10:17:40Z</time>
      </trkpt>
      <trkpt lat="49.06281" lon="2.11816">
        <ele>64.07</ele>
        <time>2022-02-06T10:17:55Z</time>
      </trkpt>
      <trkpt lat="49.0629" lon="2.11836">
        <ele>64.39</ele>
        <time>2022-02-06T10:18:10Z</time>
      </trkpt>
      <trkpt lat="49.063" lon="2.11846">
        <ele>65.69</ele>
        <time>2022-02-06T10:18:23Z</time>
      </trkpt>
      <trkpt lat="49.06302" lon="2.11863">
        <ele>66.28</ele>
        <time>2022-02-06T10:18:31Z</time>
      </trkpt>
      <trkpt lat="49.06305" lon="2.1188">
        <ele>65.42</ele>
        <time>2022-02-06T10:18:40Z</time>
      </trkpt>
      <trkpt lat="49.06313" lon="2.1189">
        <ele>66.81</ele>
        <time>2022-02-06T10:18:52Z</time>
      </trkpt>
      <trkpt lat="49.06327" lon="2.11904">
        <ele>68.68</ele>
        <time>2022-02-06T10:19:06Z</time>
      </trkpt>
      <trkpt lat="49.06336" lon="2.11915">
        <ele>68.18</ele>
        <time>2022-02-06T10:19:21Z</time>
      </trkpt>
      <trkpt lat="49.06344" lon="2.11928">
        <ele>69.44</ele>
        <time>2022-02-06T10:19:37Z</time>
      </trkpt>
      <trkpt lat="49.06358" lon="2.11942">
        <ele>69.78</ele>
        <time>2022-02-06T10:19:53Z</time>
      </trkpt>
      <trkpt lat="49.0637" lon="2.11957">
        <ele>69.25</ele>
        <time>2022-02-06T10:20:08Z</time>
      </trkpt>
      <trkpt lat="49.06377" lon="2.11966">
        <ele>68.52</ele>
        <time>2022-02-06T10:20:20Z</time>
      </trkpt>
      <trkpt lat="49.06391" lon="2.11977">
        <ele>68.39</ele>
        <time>2022-02-06T10:20:36Z</time>
      </trkpt>
      <trkpt lat="49.06403" lon="2.11986">
        <ele>68.05</ele>
        <time>2022-02-06T10:20:49Z</time>
      </trkpt>
      <trkpt lat="49.06417" lon="2.11995">
        <ele>66.71</ele>
        <time>2022-02-06T10:21:04Z</time>
      </trkpt>
      <trkpt lat="49.06432" lon="2.12007">
        <ele>66.79</ele>
        <time>2022-02-06T10:21:19Z</time>
      </trkpt>
      <trkpt lat="49.06434" lon="2.12009">
        <ele>67.76</ele>
        <time>2022-02-06T10:21:21Z</time>
      </trkpt>
      <trkpt lat="49.06444" lon="2.12016">
        <ele>68.86</ele>
        <time>2022-02-06T10:21:36Z</time>
      </trkpt>
      <trkpt lat="49.06459" lon="2.12031">
        <ele>68.52</ele>
        <time>2022-02-06T10:21:53Z</time>
      </trkpt>
      <trkpt lat="49.06471" lon="2.12044">
        <ele>68.2</ele>
        <time>2022-02-06T10:22:07Z</time>
      </trkpt>
      <trkpt lat="49.06485" lon="2.12057">
        <ele>68.82</ele>
        <time>2022-02-06T10:22:23Z</time>
      </trkpt>
      <trkpt lat="49.06499" lon="2.12062">
        <ele>68.66</ele>
        <time>2022-02-06T10:22:34Z</time>
      </trkpt>
      <trkpt lat="49.06506" lon="2.12072">
        <ele>68.44</ele>
        <time>2022-02-06T10:22:43Z</time>
      </trkpt>
      <trkpt lat="49.06515" lon="2.12076">
        <ele>68.31</ele>
        <time>2022-02-06T10:22:52Z</time>
      </trkpt>
      <trkpt lat="49.06518" lon="2.12077">
        <ele>68.37</ele>
        <time>2022-02-06T10:22:55Z</time>
      </trkpt>
      <trkpt lat="49.06532" lon="2.12085">
        <ele>68.32</ele>
        <time>2022-02-06T10:23:08Z</time>
      </trkpt>
      <trkpt lat="49.06535" lon="2.12086">
        <ele>68.62</ele>
        <time>2022-02-06T10:23:11Z</time>
      </trkpt>
      <trkpt lat="49.06539" lon="2.12091">
        <ele>68.25</ele>
        <time>2022-02-06T10:23:15Z</time>
      </trkpt>
      <trkpt lat="49.06549" lon="2.12096">
        <ele>68.06</ele>
        <time>2022-02-06T10:23:24Z</time>
      </trkpt>
      <trkpt lat="49.06565" lon="2.12103">
        <ele>67.65</ele>
        <time>2022-02-06T10:23:38Z</time>
      </trkpt>
      <trkpt lat="49.06574" lon="2.12116">
        <ele>67.56</ele>
        <time>2022-02-06T10:23:48Z</time>
      </trkpt>
      <trkpt lat="49.06579" lon="2.12121">
        <ele>67.6</ele>
        <time>2022-02-06T10:23:52Z</time>
      </trkpt>
      <trkpt lat="49.06584" lon="2.12127">
        <ele>67.62</ele>
        <time>2022-02-06T10:23:57Z</time>
      </trkpt>
      <trkpt lat="49.06597" lon="2.12137">
        <ele>67.93</ele>
        <time>2022-02-06T10:24:08Z</time>
      </trkpt>
      <trkpt lat="49.06606" lon="2.12152">
        <ele>66.84</ele>
        <time>2022-02-06T10:24:19Z</time>
      </trkpt>
      <trkpt lat="49.06616" lon="2.12167">
        <ele>67.56</ele>
        <time>2022-02-06T10:24:31Z</time>
      </trkpt>
      <trkpt lat="49.06624" lon="2.12175">
        <ele>67.4</ele>
        <time>2022-02-06T10:24:39Z</time>
      </trkpt>
      <trkpt lat="49.06634" lon="2.12193">
        <ele>67.21</ele>
        <time>2022-02-06T10:24:50Z</time>
      </trkpt>
      <trkpt lat="49.06637" lon="2.122">
        <ele>67.19</ele>
        <time>2022-02-06T10:24:54Z</time>
      </trkpt>
      <trkpt lat="49.06646" lon="2.12216">
        <ele>66.66</ele>
        <time>2022-02-06T10:25:03Z</time>
      </trkpt>
      <trkpt lat="49.06652" lon="2.12222">
        <ele>66.68</ele>
        <time>2022-02-06T10:25:09Z</time>
      </trkpt>
      <trkpt lat="49.06658" lon="2.12235">
        <ele>66.16</ele>
        <time>2022-02-06T10:25:16Z</time>
      </trkpt>
      <trkpt lat="49.06671" lon="2.12249">
        <ele>66.38</ele>
        <time>2022-02-06T10:25:29Z</time>
      </trkpt>
      <trkpt lat="49.06672" lon="2.12254">
        <ele>66.41</ele>
        <time>2022-02-06T10:25:32Z</time>
      </trkpt>
      <trkpt lat="49.06675" lon="2.1226">
        <ele>66.44</ele>
        <time>2022-02-06T10:25:36Z</time>
      </trkpt>
      <trkpt lat="49.0668" lon="2.12265">
        <ele>65.86</ele>
        <time>2022-02-06T10:25:41Z</time>
      </trkpt>
      <trkpt lat="49.0669" lon="2.12274">
        <ele>65.43</ele>
        <time>2022-02-06T10:25:52Z</time>
      </trkpt>
      <trkpt lat="49.06702" lon="2.12282">
        <ele>63.71</ele>
        <time>2022-02-06T10:26:06Z</time>
      </trkpt>
      <trkpt lat="49.06702" lon="2.12283">
        <ele>63.73</ele>
        <time>2022-02-06T10:26:07Z</time>
      </trkpt>
      <trkpt lat="49.06711" lon="2.12299">
        <ele>61.66</ele>
        <time>2022-02-06T10:26:22Z</time>
      </trkpt>
      <trkpt lat="49.06723" lon="2.12307">
        <ele>59.65</ele>
        <time>2022-02-06T10:26:36Z</time>
      </trkpt>
      <trkpt lat="49.06735" lon="2.12321">
        <ele>55.98</ele>
        <time>2022-02-06T10:26:51Z</time>
      </trkpt>
      <trkpt lat="49.06746" lon="2.12339">
        <ele>54.36</ele>
        <time>2022-02-06T10:27:05Z</time>
      </trkpt>
      <trkpt lat="49.06753" lon="2.12355">
        <ele>51.82</ele>
        <time>2022-02-06T10:27:20Z</time>
      </trkpt>
      <trkpt lat="49.06769" lon="2.12365">
        <ele>48.94</ele>
        <time>2022-02-06T10:27:37Z</time>
      </trkpt>
      <trkpt lat="49.06779" lon="2.12385">
        <ele>45.93</ele>
        <time>2022-02-06T10:27:53Z</time>
      </trkpt>
      <trkpt lat="49.06791" lon="2.12402">
        <ele>42.85</ele>
        <time>2022-02-06T10:28:08Z</time>
      </trkpt>
      <trkpt lat="49.06797" lon="2.12408">
        <ele>41.81</ele>
        <time>2022-02-06T10:28:18Z</time>
      </trkpt>
      <trkpt lat="49.06807" lon="2.12416">
        <ele>40.48</ele>
        <time>2022-02-06T10:28:35Z</time>
      </trkpt>
      <trkpt lat="49.06816" lon="2.12434">
        <ele>36.98</ele>
        <time>2022-02-06T10:28:51Z</time>
      </trkpt>
      <trkpt lat="49.06823" lon="2.1245">
        <ele>34.63</ele>
        <time>2022-02-06T10:29:07Z</time>
      </trkpt>
      <trkpt lat="49.06824" lon="2.12478">
        <ele>31.32</ele>
        <time>2022-02-06T10:29:21Z</time>
      </trkpt>
      <trkpt lat="49.0683" lon="2.125">
        <ele>29.42</ele>
        <time>2022-02-06T10:29:37Z</time>
      </trkpt>
      <trkpt lat="49.06836" lon="2.12518">
        <ele>26.29</ele>
        <time>2022-02-06T10:29:51Z</time>
      </trkpt>
      <trkpt lat="49.06836" lon="2.12519">
        <ele>26.52</ele>
        <time>2022-02-06T10:29:52Z</time>
      </trkpt>
      <trkpt lat="49.06834" lon="2.12539">
        <ele>24.83</ele>
        <time>2022-02-06T10:30:03Z</time>
      </trkpt>
      <trkpt lat="49.06833" lon="2.12548">
        <ele>23.9</ele>
        <time>2022-02-06T10:30:08Z</time>
      </trkpt>
      <trkpt lat="49.06831" lon="2.12557">
        <ele>23.61</ele>
        <time>2022-02-06T10:30:13Z</time>
      </trkpt>
      <trkpt lat="49.06828" lon="2.12567">
        <ele>22.59</ele>
        <time>2022-02-06T10:30:18Z</time>
      </trkpt>
      <trkpt lat="49.06824" lon="2.12592">
        <ele>20.74</ele>
        <time>2022-02-06T10:30:31Z</time>
      </trkpt>
      <trkpt lat="49.06822" lon="2.126">
        <ele>20.68</ele>
        <time>2022-02-06T10:30:35Z</time>
      </trkpt>
      <trkpt lat="49.06818" lon="2.12626">
        <ele>19.06</ele>
        <time>2022-02-06T10:30:48Z</time>
      </trkpt>
      <trkpt lat="49.06814" lon="2.12644">
        <ele>17.66</ele>
        <time>2022-02-06T10:30:59Z</time>
      </trkpt>
      <trkpt lat="49.0681" lon="2.12661">
        <ele>15.39</ele>
        <time>2022-02-06T10:31:11Z</time>
      </trkpt>
      <trkpt lat="49.06809" lon="2.12676">
        <ele>14.39</ele>
        <time>2022-02-06T10:31:22Z</time>
      </trkpt>
      <trkpt lat="49.06809" lon="2.12677">
        <ele>15.2</ele>
        <time>2022-02-06T10:31:34Z</time>
      </trkpt>
      <trkpt lat="49.06805" lon="2.12684">
        <ele>15.03</ele>
        <time>2022-02-06T10:31:49Z</time>
      </trkpt>
      <trkpt lat="49.06803" lon="2.12682">
        <ele>15.77</ele>
        <time>2022-02-06T10:32:06Z</time>
      </trkpt>
      <trkpt lat="49.06803" lon="2.12683">
        <ele>15.36</ele>
        <time>2022-02-06T10:32:25Z</time>
      </trkpt>
      <trkpt lat="49.06804" lon="2.12684">
        <ele>15.79</ele>
        <time>2022-02-06T10:32:44Z</time>
      </trkpt>
      <trkpt lat="49.06806" lon="2.12685">
        <ele>15.63</ele>
        <time>2022-02-06T10:32:58Z</time>
      </trkpt>
      <trkpt lat="49.06817" lon="2.12684">
        <ele>14.28</ele>
        <time>2022-02-06T10:33:16Z</time>
      </trkpt>
      <trkpt lat="49.06827" lon="2.12682">
        <ele>14.15</ele>
        <time>2022-02-06T10:33:20Z</time>
      </trkpt>
      <trkpt lat="49.06835" lon="2.12683">
        <ele>13.77</ele>
        <time>2022-02-06T10:33:27Z</time>
      </trkpt>
      <trkpt lat="49.06841" lon="2.12685">
        <ele>13.16</ele>
        <time>2022-02-06T10:33:32Z</time>
      </trkpt>
      <trkpt lat="49.06846" lon="2.12686">
        <ele>13.7</ele>
        <time>2022-02-06T10:33:37Z</time>
      </trkpt>
      <trkpt lat="49.06858" lon="2.12688">
        <ele>13.68</ele>
        <time>2022-02-06T10:33:48Z</time>
      </trkpt>
      <trkpt lat="49.0687" lon="2.12686">
        <ele>13</ele>
        <time>2022-02-06T10:34:02Z</time>
      </trkpt>
      <trkpt lat="49.06879" lon="2.12686">
        <ele>11.03</ele>
        <time>2022-02-06T10:34:10Z</time>
      </trkpt>
      <trkpt lat="49.06885" lon="2.12686">
        <ele>11.03</ele>
        <time>2022-02-06T10:34:15Z</time>
      </trkpt>
      <trkpt lat="49.06887" lon="2.12686">
        <ele>11.03</ele>
        <time>2022-02-06T10:34:17Z</time>
      </trkpt>
      <trkpt lat="49.06891" lon="2.12686">
        <ele>14.05</ele>
        <time>2022-02-06T10:34:20Z</time>
      </trkpt>
      <trkpt lat="49.06892" lon="2.12686">
        <ele>14</ele>
        <time>2022-02-06T10:34:21Z</time>
      </trkpt>
      <trkpt lat="49.06901" lon="2.12684">
        <ele>14.22</ele>
        <time>2022-02-06T10:34:30Z</time>
      </trkpt>
      <trkpt lat="49.06908" lon="2.12681">
        <ele>13.87</ele>
        <time>2022-02-06T10:34:37Z</time>
      </trkpt>
      <trkpt lat="49.06915" lon="2.12679">
        <ele>14.17</ele>
        <time>2022-02-06T10:34:48Z</time>
      </trkpt>
      <trkpt lat="49.06918" lon="2.12683">
        <ele>14.03</ele>
        <time>2022-02-06T10:35:05Z</time>
      </trkpt>
      <trkpt lat="49.06918" lon="2.12684">
        <ele>14.65</ele>
        <time>2022-02-06T10:35:06Z</time>
      </trkpt>
      <trkpt lat="49.06912" lon="2.12684">
        <ele>15.77</ele>
        <time>2022-02-06T10:35:22Z</time>
      </trkpt>
      <trkpt lat="49.06899" lon="2.12685">
        <ele>17.17</ele>
        <time>2022-02-06T10:35:37Z</time>
      </trkpt>
      <trkpt lat="49.06887" lon="2.12692">
        <ele>17.22</ele>
        <time>2022-02-06T10:35:51Z</time>
      </trkpt>
      <trkpt lat="49.06881" lon="2.12709">
        <ele>18.99</ele>
        <time>2022-02-06T10:36:07Z</time>
      </trkpt>
      <trkpt lat="49.06875" lon="2.1272">
        <ele>22.15</ele>
        <time>2022-02-06T10:36:22Z</time>
      </trkpt>
      <trkpt lat="49.06874" lon="2.12721">
        <ele>22.55</ele>
        <time>2022-02-06T10:36:27Z</time>
      </trkpt>
      <trkpt lat="49.0687" lon="2.12726">
        <ele>26.02</ele>
        <time>2022-02-06T10:36:38Z</time>
      </trkpt>
      <trkpt lat="49.06865" lon="2.12735">
        <ele>26.45</ele>
        <time>2022-02-06T10:36:54Z</time>
      </trkpt>
      <trkpt lat="49.06864" lon="2.12745">
        <ele>28.35</ele>
        <time>2022-02-06T10:37:10Z</time>
      </trkpt>
      <trkpt lat="49.06864" lon="2.12757">
        <ele>31.67</ele>
        <time>2022-02-06T10:37:27Z</time>
      </trkpt>
      <trkpt lat="49.06865" lon="2.12761">
        <ele>31.26</ele>
        <time>2022-02-06T10:37:49Z</time>
      </trkpt>
      <trkpt lat="49.06869" lon="2.12756">
        <ele>32.77</ele>
        <time>2022-02-06T10:38:03Z</time>
      </trkpt>
      <trkpt lat="49.06874" lon="2.12752">
        <ele>35.67</ele>
        <time>2022-02-06T10:38:18Z</time>
      </trkpt>
      <trkpt lat="49.06877" lon="2.12753">
        <ele>37.3</ele>
        <time>2022-02-06T10:38:37Z</time>
      </trkpt>
      <trkpt lat="49.06879" lon="2.12753">
        <ele>36.2</ele>
        <time>2022-02-06T10:39:00Z</time>
      </trkpt>
      <trkpt lat="49.0688" lon="2.12756">
        <ele>37.04</ele>
        <time>2022-02-06T10:39:19Z</time>
      </trkpt>
      <trkpt lat="49.06884" lon="2.12766">
        <ele>39.11</ele>
        <time>2022-02-06T10:39:34Z</time>
      </trkpt>
      <trkpt lat="49.0689" lon="2.12775">
        <ele>40.7</ele>
        <time>2022-02-06T10:39:51Z</time>
      </trkpt>
      <trkpt lat="49.06895" lon="2.12791">
        <ele>42.21</ele>
        <time>2022-02-06T10:40:07Z</time>
      </trkpt>
      <trkpt lat="49.06903" lon="2.12814">
        <ele>45.2</ele>
        <time>2022-02-06T10:40:24Z</time>
      </trkpt>
      <trkpt lat="49.06908" lon="2.12826">
        <ele>46.49</ele>
        <time>2022-02-06T10:40:35Z</time>
      </trkpt>
      <trkpt lat="49.0691" lon="2.1283">
        <ele>45.72</ele>
        <time>2022-02-06T10:40:38Z</time>
      </trkpt>
      <trkpt lat="49.06913" lon="2.12836">
        <ele>45.83</ele>
        <time>2022-02-06T10:40:44Z</time>
      </trkpt>
      <trkpt lat="49.0692" lon="2.12852">
        <ele>46.25</ele>
        <time>2022-02-06T10:40:56Z</time>
      </trkpt>
      <trkpt lat="49.06925" lon="2.12874">
        <ele>48.86</ele>
        <time>2022-02-06T10:41:13Z</time>
      </trkpt>
      <trkpt lat="49.06925" lon="2.12881">
        <ele>49.75</ele>
        <time>2022-02-06T10:41:21Z</time>
      </trkpt>
      <trkpt lat="49.06929" lon="2.12895">
        <ele>51.23</ele>
        <time>2022-02-06T10:41:39Z</time>
      </trkpt>
      <trkpt lat="49.06932" lon="2.12906">
        <ele>51.28</ele>
        <time>2022-02-06T10:41:49Z</time>
      </trkpt>
      <trkpt lat="49.06938" lon="2.12923">
        <ele>51.96</ele>
        <time>2022-02-06T10:42:03Z</time>
      </trkpt>
      <trkpt lat="49.06945" lon="2.12941">
        <ele>53.28</ele>
        <time>2022-02-06T10:42:18Z</time>
      </trkpt>
      <trkpt lat="49.06946" lon="2.12946">
        <ele>53.65</ele>
        <time>2022-02-06T10:42:22Z</time>
      </trkpt>
      <trkpt lat="49.06954" lon="2.12962">
        <ele>54.61</ele>
        <time>2022-02-06T10:42:39Z</time>
      </trkpt>
      <trkpt lat="49.06957" lon="2.12969">
        <ele>55.99</ele>
        <time>2022-02-06T10:42:45Z</time>
      </trkpt>
      <trkpt lat="49.06967" lon="2.12988">
        <ele>55.84</ele>
        <time>2022-02-06T10:43:02Z</time>
      </trkpt>
      <trkpt lat="49.06979" lon="2.13003">
        <ele>57.11</ele>
        <time>2022-02-06T10:43:15Z</time>
      </trkpt>
      <trkpt lat="49.06985" lon="2.13017">
        <ele>59.31</ele>
        <time>2022-02-06T10:43:32Z</time>
      </trkpt>
      <trkpt lat="49.06989" lon="2.13032">
        <ele>60.89</ele>
        <time>2022-02-06T10:43:47Z</time>
      </trkpt>
      <trkpt lat="49.06995" lon="2.13055">
        <ele>62.54</ele>
        <time>2022-02-06T10:44:05Z</time>
      </trkpt>
      <trkpt lat="49.07003" lon="2.13075">
        <ele>65.49</ele>
        <time>2022-02-06T10:44:21Z</time>
      </trkpt>
      <trkpt lat="49.07005" lon="2.13092">
        <ele>65.51</ele>
        <time>2022-02-06T10:44:30Z</time>
      </trkpt>
      <trkpt lat="49.07011" lon="2.13113">
        <ele>65.04</ele>
        <time>2022-02-06T10:44:44Z</time>
      </trkpt>
      <trkpt lat="49.07011" lon="2.13114">
        <ele>65.03</ele>
        <time>2022-02-06T10:44:45Z</time>
      </trkpt>
      <trkpt lat="49.07017" lon="2.13126">
        <ele>63.4</ele>
        <time>2022-02-06T10:44:55Z</time>
      </trkpt>
      <trkpt lat="49.0702" lon="2.13143">
        <ele>63.85</ele>
        <time>2022-02-06T10:45:05Z</time>
      </trkpt>
      <trkpt lat="49.07028" lon="2.1316">
        <ele>63.85</ele>
        <time>2022-02-06T10:45:18Z</time>
      </trkpt>
      <trkpt lat="49.07033" lon="2.13178">
        <ele>64.9</ele>
        <time>2022-02-06T10:45:29Z</time>
      </trkpt>
      <trkpt lat="49.07036" lon="2.13192">
        <ele>64.04</ele>
        <time>2022-02-06T10:45:38Z</time>
      </trkpt>
      <trkpt lat="49.07039" lon="2.13206">
        <ele>64.66</ele>
        <time>2022-02-06T10:45:46Z</time>
      </trkpt>
      <trkpt lat="49.07056" lon="2.13229">
        <ele>64.32</ele>
        <time>2022-02-06T10:46:07Z</time>
      </trkpt>
      <trkpt lat="49.07063" lon="2.13248">
        <ele>63.65</ele>
        <time>2022-02-06T10:46:23Z</time>
      </trkpt>
      <trkpt lat="49.07067" lon="2.13282">
        <ele>63.45</ele>
        <time>2022-02-06T10:46:42Z</time>
      </trkpt>
      <trkpt lat="49.07068" lon="2.13302">
        <ele>62.87</ele>
        <time>2022-02-06T10:46:57Z</time>
      </trkpt>
      <trkpt lat="49.07064" lon="2.13341">
        <ele>63.57</ele>
        <time>2022-02-06T10:47:10Z</time>
      </trkpt>
      <trkpt lat="49.07066" lon="2.1335">
        <ele>62.3</ele>
        <time>2022-02-06T10:47:17Z</time>
      </trkpt>
      <trkpt lat="49.07069" lon="2.13359">
        <ele>62.82</ele>
        <time>2022-02-06T10:47:23Z</time>
      </trkpt>
      <trkpt lat="49.07075" lon="2.13374">
        <ele>61.8</ele>
        <time>2022-02-06T10:47:35Z</time>
      </trkpt>
      <trkpt lat="49.07081" lon="2.13396">
        <ele>62.59</ele>
        <time>2022-02-06T10:47:47Z</time>
      </trkpt>
      <trkpt lat="49.07087" lon="2.13416">
        <ele>62.18</ele>
        <time>2022-02-06T10:47:57Z</time>
      </trkpt>
      <trkpt lat="49.07096" lon="2.13443">
        <ele>61.07</ele>
        <time>2022-02-06T10:48:13Z</time>
      </trkpt>
      <trkpt lat="49.07104" lon="2.13467">
        <ele>61.56</ele>
        <time>2022-02-06T10:48:26Z</time>
      </trkpt>
      <trkpt lat="49.07112" lon="2.13488">
        <ele>61.84</ele>
        <time>2022-02-06T10:48:38Z</time>
      </trkpt>
      <trkpt lat="49.07121" lon="2.13501">
        <ele>61.84</ele>
        <time>2022-02-06T10:48:49Z</time>
      </trkpt>
      <trkpt lat="49.07128" lon="2.13523">
        <ele>63.25</ele>
        <time>2022-02-06T10:49:04Z</time>
      </trkpt>
      <trkpt lat="49.07137" lon="2.13542">
        <ele>63.41</ele>
        <time>2022-02-06T10:49:18Z</time>
      </trkpt>
      <trkpt lat="49.0714" lon="2.13548">
        <ele>62.9</ele>
        <time>2022-02-06T10:49:22Z</time>
      </trkpt>
      <trkpt lat="49.07144" lon="2.13556">
        <ele>63.21</ele>
        <time>2022-02-06T10:49:28Z</time>
      </trkpt>
      <trkpt lat="49.07153" lon="2.13577">
        <ele>64.08</ele>
        <time>2022-02-06T10:49:44Z</time>
      </trkpt>
      <trkpt lat="49.0716" lon="2.13598">
        <ele>64.46</ele>
        <time>2022-02-06T10:49:59Z</time>
      </trkpt>
      <trkpt lat="49.07165" lon="2.13615">
        <ele>65.33</ele>
        <time>2022-02-06T10:50:12Z</time>
      </trkpt>
      <trkpt lat="49.07168" lon="2.13622">
        <ele>66.03</ele>
        <time>2022-02-06T10:50:19Z</time>
      </trkpt>
      <trkpt lat="49.0717" lon="2.13626">
        <ele>66.36</ele>
        <time>2022-02-06T10:50:22Z</time>
      </trkpt>
      <trkpt lat="49.07174" lon="2.13643">
        <ele>66.68</ele>
        <time>2022-02-06T10:50:35Z</time>
      </trkpt>
      <trkpt lat="49.07176" lon="2.1365">
        <ele>66.37</ele>
        <time>2022-02-06T10:50:49Z</time>
      </trkpt>
      <trkpt lat="49.07175" lon="2.13652">
        <ele>66.16</ele>
        <time>2022-02-06T10:51:04Z</time>
      </trkpt>
      <trkpt lat="49.07178" lon="2.13667">
        <ele>67.26</ele>
        <time>2022-02-06T10:51:15Z</time>
      </trkpt>
      <trkpt lat="49.07179" lon="2.13672">
        <ele>67.86</ele>
        <time>2022-02-06T10:51:23Z</time>
      </trkpt>
      <trkpt lat="49.07179" lon="2.13676">
        <ele>68.66</ele>
        <time>2022-02-06T10:51:26Z</time>
      </trkpt>
      <trkpt lat="49.07179" lon="2.13704">
        <ele>67.99</ele>
        <time>2022-02-06T10:51:40Z</time>
      </trkpt>
      <trkpt lat="49.07179" lon="2.13727">
        <ele>68.15</ele>
        <time>2022-02-06T10:51:54Z</time>
      </trkpt>
      <trkpt lat="49.07179" lon="2.1374">
        <ele>67.79</ele>
        <time>2022-02-06T10:52:06Z</time>
      </trkpt>
      <trkpt lat="49.07179" lon="2.13746">
        <ele>68.47</ele>
        <time>2022-02-06T10:52:10Z</time>
      </trkpt>
      <trkpt lat="49.07177" lon="2.1375">
        <ele>67.63</ele>
        <time>2022-02-06T10:52:12Z</time>
      </trkpt>
      <trkpt lat="49.07174" lon="2.13772">
        <ele>67.95</ele>
        <time>2022-02-06T10:52:25Z</time>
      </trkpt>
      <trkpt lat="49.07173" lon="2.13773">
        <ele>67.87</ele>
        <time>2022-02-06T10:52:26Z</time>
      </trkpt>
      <trkpt lat="49.07172" lon="2.13782">
        <ele>67.76</ele>
        <time>2022-02-06T10:52:31Z</time>
      </trkpt>
      <trkpt lat="49.0717" lon="2.13801">
        <ele>67.61</ele>
        <time>2022-02-06T10:52:44Z</time>
      </trkpt>
      <trkpt lat="49.07165" lon="2.13824">
        <ele>67.49</ele>
        <time>2022-02-06T10:52:59Z</time>
      </trkpt>
      <trkpt lat="49.07164" lon="2.13839">
        <ele>66.69</ele>
        <time>2022-02-06T10:53:07Z</time>
      </trkpt>
      <trkpt lat="49.07164" lon="2.13863">
        <ele>65.94</ele>
        <time>2022-02-06T10:53:20Z</time>
      </trkpt>
      <trkpt lat="49.07164" lon="2.13883">
        <ele>65.42</ele>
        <time>2022-02-06T10:53:32Z</time>
      </trkpt>
      <trkpt lat="49.07163" lon="2.13886">
        <ele>64.98</ele>
        <time>2022-02-06T10:53:34Z</time>
      </trkpt>
      <trkpt lat="49.07163" lon="2.13895">
        <ele>65.02</ele>
        <time>2022-02-06T10:53:39Z</time>
      </trkpt>
      <trkpt lat="49.07161" lon="2.13916">
        <ele>64.31</ele>
        <time>2022-02-06T10:53:51Z</time>
      </trkpt>
      <trkpt lat="49.07167" lon="2.13939">
        <ele>62.57</ele>
        <time>2022-02-06T10:54:05Z</time>
      </trkpt>
      <trkpt lat="49.07173" lon="2.13958">
        <ele>60.8</ele>
        <time>2022-02-06T10:54:16Z</time>
      </trkpt>
      <trkpt lat="49.07176" lon="2.13978">
        <ele>59.96</ele>
        <time>2022-02-06T10:54:29Z</time>
      </trkpt>
      <trkpt lat="49.07176" lon="2.13985">
        <ele>59.94</ele>
        <time>2022-02-06T10:54:33Z</time>
      </trkpt>
      <trkpt lat="49.07176" lon="2.13989">
        <ele>59.27</ele>
        <time>2022-02-06T10:54:35Z</time>
      </trkpt>
      <trkpt lat="49.07176" lon="2.14012">
        <ele>59.83</ele>
        <time>2022-02-06T10:54:49Z</time>
      </trkpt>
      <trkpt lat="49.07176" lon="2.14024">
        <ele>58.53</ele>
        <time>2022-02-06T10:54:56Z</time>
      </trkpt>
      <trkpt lat="49.07185" lon="2.14041">
        <ele>57.54</ele>
        <time>2022-02-06T10:55:12Z</time>
      </trkpt>
      <trkpt lat="49.07191" lon="2.14066">
        <ele>57.24</ele>
        <time>2022-02-06T10:55:29Z</time>
      </trkpt>
      <trkpt lat="49.07186" lon="2.14103">
        <ele>56.01</ele>
        <time>2022-02-06T10:55:44Z</time>
      </trkpt>
      <trkpt lat="49.07172" lon="2.14123">
        <ele>54.83</ele>
        <time>2022-02-06T10:56:01Z</time>
      </trkpt>
      <trkpt lat="49.07163" lon="2.14143">
        <ele>54.66</ele>
        <time>2022-02-06T10:56:16Z</time>
      </trkpt>
      <trkpt lat="49.07145" lon="2.14154">
        <ele>54.76</ele>
        <time>2022-02-06T10:56:30Z</time>
      </trkpt>
      <trkpt lat="49.07141" lon="2.14158">
        <ele>55.57</ele>
        <time>2022-02-06T10:56:42Z</time>
      </trkpt>
      <trkpt lat="49.07139" lon="2.1416">
        <ele>54.81</ele>
        <time>2022-02-06T10:56:45Z</time>
      </trkpt>
      <trkpt lat="49.07142" lon="2.14169">
        <ele>56.39</ele>
        <time>2022-02-06T10:57:00Z</time>
      </trkpt>
      <trkpt lat="49.07144" lon="2.14172">
        <ele>56.75</ele>
        <time>2022-02-06T10:57:02Z</time>
      </trkpt>
      <trkpt lat="49.07145" lon="2.14177">
        <ele>56.57</ele>
        <time>2022-02-06T10:57:05Z</time>
      </trkpt>
      <trkpt lat="49.07147" lon="2.14183">
        <ele>57.61</ele>
        <time>2022-02-06T10:57:09Z</time>
      </trkpt>
      <trkpt lat="49.07152" lon="2.14202">
        <ele>58.94</ele>
        <time>2022-02-06T10:57:22Z</time>
      </trkpt>
      <trkpt lat="49.07154" lon="2.14226">
        <ele>60.97</ele>
        <time>2022-02-06T10:57:40Z</time>
      </trkpt>
      <trkpt lat="49.07156" lon="2.14248">
        <ele>62.84</ele>
        <time>2022-02-06T10:57:57Z</time>
      </trkpt>
      <trkpt lat="49.07157" lon="2.14252">
        <ele>62.94</ele>
        <time>2022-02-06T10:58:00Z</time>
      </trkpt>
      <trkpt lat="49.07158" lon="2.14256">
        <ele>64.11</ele>
        <time>2022-02-06T10:58:03Z</time>
      </trkpt>
      <trkpt lat="49.07166" lon="2.14277">
        <ele>64.16</ele>
        <time>2022-02-06T10:58:16Z</time>
      </trkpt>
      <trkpt lat="49.07173" lon="2.14288">
        <ele>64</ele>
        <time>2022-02-06T10:58:27Z</time>
      </trkpt>
      <trkpt lat="49.07177" lon="2.14297">
        <ele>67.01</ele>
        <time>2022-02-06T10:58:34Z</time>
      </trkpt>
      <trkpt lat="49.07179" lon="2.14306">
        <ele>65.71</ele>
        <time>2022-02-06T10:58:44Z</time>
      </trkpt>
      <trkpt lat="49.07187" lon="2.14321">
        <ele>65.47</ele>
        <time>2022-02-06T10:58:56Z</time>
      </trkpt>
      <trkpt lat="49.07187" lon="2.14322">
        <ele>65.74</ele>
        <time>2022-02-06T10:58:57Z</time>
      </trkpt>
      <trkpt lat="49.07193" lon="2.14338">
        <ele>65.62</ele>
        <time>2022-02-06T10:59:08Z</time>
      </trkpt>
      <trkpt lat="49.07197" lon="2.14342">
        <ele>65.57</ele>
        <time>2022-02-06T10:59:20Z</time>
      </trkpt>
      <trkpt lat="49.07198" lon="2.14347">
        <ele>66.97</ele>
        <time>2022-02-06T10:59:37Z</time>
      </trkpt>
      <trkpt lat="49.07203" lon="2.1436">
        <ele>67.02</ele>
        <time>2022-02-06T10:59:47Z</time>
      </trkpt>
      <trkpt lat="49.0721" lon="2.1438">
        <ele>64.48</ele>
        <time>2022-02-06T11:00:01Z</time>
      </trkpt>
      <trkpt lat="49.07211" lon="2.14383">
        <ele>64.48</ele>
        <time>2022-02-06T11:00:03Z</time>
      </trkpt>
      <trkpt lat="49.07214" lon="2.14388">
        <ele>65.88</ele>
        <time>2022-02-06T11:00:07Z</time>
      </trkpt>
      <trkpt lat="49.07219" lon="2.14402">
        <ele>65.07</ele>
        <time>2022-02-06T11:00:16Z</time>
      </trkpt>
      <trkpt lat="49.07227" lon="2.14419">
        <ele>64.82</ele>
        <time>2022-02-06T11:00:28Z</time>
      </trkpt>
      <trkpt lat="49.07238" lon="2.14437">
        <ele>65.44</ele>
        <time>2022-02-06T11:00:42Z</time>
      </trkpt>
      <trkpt lat="49.07246" lon="2.1445">
        <ele>65.73</ele>
        <time>2022-02-06T11:00:52Z</time>
      </trkpt>
      <trkpt lat="49.07253" lon="2.14464">
        <ele>67.81</ele>
        <time>2022-02-06T11:01:02Z</time>
      </trkpt>
      <trkpt lat="49.07255" lon="2.1447">
        <ele>65.57</ele>
        <time>2022-02-06T11:01:06Z</time>
      </trkpt>
      <trkpt lat="49.07263" lon="2.14478">
        <ele>66.67</ele>
        <time>2022-02-06T11:01:15Z</time>
      </trkpt>
      <trkpt lat="49.07266" lon="2.1448">
        <ele>65.77</ele>
        <time>2022-02-06T11:01:18Z</time>
      </trkpt>
      <trkpt lat="49.07268" lon="2.14481">
        <ele>66.87</ele>
        <time>2022-02-06T11:01:20Z</time>
      </trkpt>
      <trkpt lat="49.07275" lon="2.14487">
        <ele>66.28</ele>
        <time>2022-02-06T11:01:31Z</time>
      </trkpt>
      <trkpt lat="49.07283" lon="2.14494">
        <ele>65.21</ele>
        <time>2022-02-06T11:01:43Z</time>
      </trkpt>
      <trkpt lat="49.0729" lon="2.14501">
        <ele>61.91</ele>
        <time>2022-02-06T11:01:57Z</time>
      </trkpt>
      <trkpt lat="49.07295" lon="2.14516">
        <ele>58.71</ele>
        <time>2022-02-06T11:02:08Z</time>
      </trkpt>
      <trkpt lat="49.07295" lon="2.14539">
        <ele>58.19</ele>
        <time>2022-02-06T11:02:24Z</time>
      </trkpt>
      <trkpt lat="49.07294" lon="2.14555">
        <ele>57.33</ele>
        <time>2022-02-06T11:02:38Z</time>
      </trkpt>
      <trkpt lat="49.07292" lon="2.14571">
        <ele>56.77</ele>
        <time>2022-02-06T11:02:52Z</time>
      </trkpt>
      <trkpt lat="49.07289" lon="2.14589">
        <ele>55.81</ele>
        <time>2022-02-06T11:03:03Z</time>
      </trkpt>
      <trkpt lat="49.07283" lon="2.14602">
        <ele>55.31</ele>
        <time>2022-02-06T11:03:17Z</time>
      </trkpt>
      <trkpt lat="49.07273" lon="2.14613">
        <ele>54.5</ele>
        <time>2022-02-06T11:03:31Z</time>
      </trkpt>
      <trkpt lat="49.07261" lon="2.1462">
        <ele>53.76</ele>
        <time>2022-02-06T11:03:45Z</time>
      </trkpt>
      <trkpt lat="49.07257" lon="2.14623">
        <ele>52.45</ele>
        <time>2022-02-06T11:03:50Z</time>
      </trkpt>
      <trkpt lat="49.0724" lon="2.14639">
        <ele>52.46</ele>
        <time>2022-02-06T11:04:07Z</time>
      </trkpt>
      <trkpt lat="49.07228" lon="2.14647">
        <ele>49.39</ele>
        <time>2022-02-06T11:04:22Z</time>
      </trkpt>
      <trkpt lat="49.07225" lon="2.14649">
        <ele>48.89</ele>
        <time>2022-02-06T11:04:28Z</time>
      </trkpt>
      <trkpt lat="49.0721" lon="2.14657">
        <ele>47.63</ele>
        <time>2022-02-06T11:04:42Z</time>
      </trkpt>
      <trkpt lat="49.07206" lon="2.1466">
        <ele>46.36</ele>
        <time>2022-02-06T11:04:45Z</time>
      </trkpt>
      <trkpt lat="49.07194" lon="2.14674">
        <ele>45.61</ele>
        <time>2022-02-06T11:05:01Z</time>
      </trkpt>
      <trkpt lat="49.0719" lon="2.14688">
        <ele>44.84</ele>
        <time>2022-02-06T11:05:14Z</time>
      </trkpt>
      <trkpt lat="49.07193" lon="2.14702">
        <ele>43.55</ele>
        <time>2022-02-06T11:05:25Z</time>
      </trkpt>
      <trkpt lat="49.07194" lon="2.14706">
        <ele>42.96</ele>
        <time>2022-02-06T11:05:28Z</time>
      </trkpt>
      <trkpt lat="49.07198" lon="2.14735">
        <ele>41.03</ele>
        <time>2022-02-06T11:05:48Z</time>
      </trkpt>
      <trkpt lat="49.07201" lon="2.14765">
        <ele>39.01</ele>
        <time>2022-02-06T11:06:06Z</time>
      </trkpt>
      <trkpt lat="49.07205" lon="2.14793">
        <ele>37.09</ele>
        <time>2022-02-06T11:06:23Z</time>
      </trkpt>
      <trkpt lat="49.0721" lon="2.14813">
        <ele>33.87</ele>
        <time>2022-02-06T11:06:39Z</time>
      </trkpt>
      <trkpt lat="49.07212" lon="2.14827">
        <ele>32.36</ele>
        <time>2022-02-06T11:06:54Z</time>
      </trkpt>
      <trkpt lat="49.07212" lon="2.14831">
        <ele>33.34</ele>
        <time>2022-02-06T11:06:57Z</time>
      </trkpt>
      <trkpt lat="49.07211" lon="2.14857">
        <ele>31.26</ele>
        <time>2022-02-06T11:07:13Z</time>
      </trkpt>
      <trkpt lat="49.07211" lon="2.1488">
        <ele>27.99</ele>
        <time>2022-02-06T11:07:31Z</time>
      </trkpt>
      <trkpt lat="49.07207" lon="2.14913">
        <ele>27.32</ele>
        <time>2022-02-06T11:07:50Z</time>
      </trkpt>
      <trkpt lat="49.07209" lon="2.14921">
        <ele>26.94</ele>
        <time>2022-02-06T11:07:58Z</time>
      </trkpt>
      <trkpt lat="49.07202" lon="2.14924">
        <ele>26.87</ele>
        <time>2022-02-06T11:08:14Z</time>
      </trkpt>
      <trkpt lat="49.07202" lon="2.14936">
        <ele>25.94</ele>
        <time>2022-02-06T11:08:25Z</time>
      </trkpt>
      <trkpt lat="49.07202" lon="2.14942">
        <ele>25.94</ele>
        <time>2022-02-06T11:08:29Z</time>
      </trkpt>
      <trkpt lat="49.07201" lon="2.1496">
        <ele>26.25</ele>
        <time>2022-02-06T11:08:42Z</time>
      </trkpt>
      <trkpt lat="49.07197" lon="2.14984">
        <ele>25.14</ele>
        <time>2022-02-06T11:08:57Z</time>
      </trkpt>
      <trkpt lat="49.07197" lon="2.14996">
        <ele>25.38</ele>
        <time>2022-02-06T11:09:07Z</time>
      </trkpt>
      <trkpt lat="49.07196" lon="2.15002">
        <ele>24.79</ele>
        <time>2022-02-06T11:09:17Z</time>
      </trkpt>
      <trkpt lat="49.07197" lon="2.15024">
        <ele>24.53</ele>
        <time>2022-02-06T11:09:31Z</time>
      </trkpt>
      <trkpt lat="49.07198" lon="2.15028">
        <ele>24.1</ele>
        <time>2022-02-06T11:09:34Z</time>
      </trkpt>
      <trkpt lat="49.07198" lon="2.15034">
        <ele>24.9</ele>
        <time>2022-02-06T11:09:37Z</time>
      </trkpt>
      <trkpt lat="49.07197" lon="2.1504">
        <ele>24.6</ele>
        <time>2022-02-06T11:09:41Z</time>
      </trkpt>
      <trkpt lat="49.07194" lon="2.15051">
        <ele>24.37</ele>
        <time>2022-02-06T11:09:50Z</time>
      </trkpt>
      <trkpt lat="49.07198" lon="2.15061">
        <ele>23.81</ele>
        <time>2022-02-06T11:10:02Z</time>
      </trkpt>
      <trkpt lat="49.07197" lon="2.15065">
        <ele>23.7</ele>
        <time>2022-02-06T11:10:06Z</time>
      </trkpt>
      <trkpt lat="49.07198" lon="2.15072">
        <ele>24.15</ele>
        <time>2022-02-06T11:10:10Z</time>
      </trkpt>
      <trkpt lat="49.07198" lon="2.15093">
        <ele>24.71</ele>
        <time>2022-02-06T11:10:22Z</time>
      </trkpt>
      <trkpt lat="49.07197" lon="2.15103">
        <ele>23.57</ele>
        <time>2022-02-06T11:10:28Z</time>
      </trkpt>
      <trkpt lat="49.07197" lon="2.15128">
        <ele>23.86</ele>
        <time>2022-02-06T11:10:42Z</time>
      </trkpt>
      <trkpt lat="49.07198" lon="2.15141">
        <ele>23.67</ele>
        <time>2022-02-06T11:10:49Z</time>
      </trkpt>
      <trkpt lat="49.07198" lon="2.15148">
        <ele>23.64</ele>
        <time>2022-02-06T11:10:53Z</time>
      </trkpt>
      <trkpt lat="49.07197" lon="2.15156">
        <ele>23.85</ele>
        <time>2022-02-06T11:10:58Z</time>
      </trkpt>
      <trkpt lat="49.07193" lon="2.1516">
        <ele>23.51</ele>
        <time>2022-02-06T11:11:02Z</time>
      </trkpt>
      <trkpt lat="49.07192" lon="2.15172">
        <ele>22.81</ele>
        <time>2022-02-06T11:11:14Z</time>
      </trkpt>
      <trkpt lat="49.07196" lon="2.15177">
        <ele>23.71</ele>
        <time>2022-02-06T11:11:29Z</time>
      </trkpt>
      <trkpt lat="49.07197" lon="2.1518">
        <ele>23.49</ele>
        <time>2022-02-06T11:11:42Z</time>
      </trkpt>
      <trkpt lat="49.07197" lon="2.15195">
        <ele>23.37</ele>
        <time>2022-02-06T11:11:53Z</time>
      </trkpt>
      <trkpt lat="49.07197" lon="2.15212">
        <ele>22.85</ele>
        <time>2022-02-06T11:12:03Z</time>
      </trkpt>
      <trkpt lat="49.07195" lon="2.15221">
        <ele>24.3</ele>
        <time>2022-02-06T11:12:08Z</time>
      </trkpt>
      <trkpt lat="49.07196" lon="2.15242">
        <ele>24.25</ele>
        <time>2022-02-06T11:12:22Z</time>
      </trkpt>
      <trkpt lat="49.07196" lon="2.15245">
        <ele>24.96</ele>
        <time>2022-02-06T11:12:24Z</time>
      </trkpt>
      <trkpt lat="49.07196" lon="2.15268">
        <ele>23.54</ele>
        <time>2022-02-06T11:12:37Z</time>
      </trkpt>
      <trkpt lat="49.07195" lon="2.15282">
        <ele>24.15</ele>
        <time>2022-02-06T11:12:46Z</time>
      </trkpt>
      <trkpt lat="49.07194" lon="2.15297">
        <ele>23.09</ele>
        <time>2022-02-06T11:12:56Z</time>
      </trkpt>
      <trkpt lat="49.07195" lon="2.15302">
        <ele>24.3</ele>
        <time>2022-02-06T11:12:59Z</time>
      </trkpt>
      <trkpt lat="49.07195" lon="2.15326">
        <ele>24.1</ele>
        <time>2022-02-06T11:13:12Z</time>
      </trkpt>
      <trkpt lat="49.07194" lon="2.15352">
        <ele>23.99</ele>
        <time>2022-02-06T11:13:25Z</time>
      </trkpt>
      <trkpt lat="49.07194" lon="2.15358">
        <ele>25.1</ele>
        <time>2022-02-06T11:13:29Z</time>
      </trkpt>
      <trkpt lat="49.07196" lon="2.1538">
        <ele>25.45</ele>
        <time>2022-02-06T11:13:43Z</time>
      </trkpt>
      <trkpt lat="49.07198" lon="2.15394">
        <ele>25.18</ele>
        <time>2022-02-06T11:13:52Z</time>
      </trkpt>
      <trkpt lat="49.072" lon="2.15416">
        <ele>26.04</ele>
        <time>2022-02-06T11:14:04Z</time>
      </trkpt>
      <trkpt lat="49.072" lon="2.1542">
        <ele>26.03</ele>
        <time>2022-02-06T11:14:06Z</time>
      </trkpt>
      <trkpt lat="49.07204" lon="2.15439">
        <ele>24.37</ele>
        <time>2022-02-06T11:14:20Z</time>
      </trkpt>
      <trkpt lat="49.07205" lon="2.15469">
        <ele>22.86</ele>
        <time>2022-02-06T11:14:37Z</time>
      </trkpt>
      <trkpt lat="49.07204" lon="2.15476">
        <ele>21.19</ele>
        <time>2022-02-06T11:14:42Z</time>
      </trkpt>
      <trkpt lat="49.07204" lon="2.15478">
        <ele>21.74</ele>
        <time>2022-02-06T11:14:43Z</time>
      </trkpt>
      <trkpt lat="49.07204" lon="2.15483">
        <ele>21.27</ele>
        <time>2022-02-06T11:14:46Z</time>
      </trkpt>
      <trkpt lat="49.07202" lon="2.1549">
        <ele>21.26</ele>
        <time>2022-02-06T11:14:49Z</time>
      </trkpt>
      <trkpt lat="49.07189" lon="2.15499">
        <ele>20.99</ele>
        <time>2022-02-06T11:15:02Z</time>
      </trkpt>
      <trkpt lat="49.07186" lon="2.15502">
        <ele>21.09</ele>
        <time>2022-02-06T11:15:17Z</time>
      </trkpt>
      <trkpt lat="49.07186" lon="2.15504">
        <ele>21.34</ele>
        <time>2022-02-06T11:15:21Z</time>
      </trkpt>
      <trkpt lat="49.07185" lon="2.1552">
        <ele>22.27</ele>
        <time>2022-02-06T11:15:33Z</time>
      </trkpt>
      <trkpt lat="49.07184" lon="2.15523">
        <ele>22.23</ele>
        <time>2022-02-06T11:15:35Z</time>
      </trkpt>
      <trkpt lat="49.07181" lon="2.15532">
        <ele>22.82</ele>
        <time>2022-02-06T11:15:45Z</time>
      </trkpt>
      <trkpt lat="49.0718" lon="2.15537">
        <ele>22.78</ele>
        <time>2022-02-06T11:15:48Z</time>
      </trkpt>
      <trkpt lat="49.07176" lon="2.15556">
        <ele>24.08</ele>
        <time>2022-02-06T11:16:00Z</time>
      </trkpt>
      <trkpt lat="49.07174" lon="2.15567">
        <ele>25.1</ele>
        <time>2022-02-06T11:16:06Z</time>
      </trkpt>
      <trkpt lat="49.07175" lon="2.15574">
        <ele>23.52</ele>
        <time>2022-02-06T11:16:11Z</time>
      </trkpt>
      <trkpt lat="49.07174" lon="2.15581">
        <ele>25.86</ele>
        <time>2022-02-06T11:16:16Z</time>
      </trkpt>
      <trkpt lat="49.07173" lon="2.15588">
        <ele>25.85</ele>
        <time>2022-02-06T11:16:27Z</time>
      </trkpt>
      <trkpt lat="49.07171" lon="2.15592">
        <ele>25.97</ele>
        <time>2022-02-06T11:16:39Z</time>
      </trkpt>
      <trkpt lat="49.07168" lon="2.15599">
        <ele>26</ele>
        <time>2022-02-06T11:16:55Z</time>
      </trkpt>
      <trkpt lat="49.07169" lon="2.15608">
        <ele>25.92</ele>
        <time>2022-02-06T11:17:09Z</time>
      </trkpt>
      <trkpt lat="49.07168" lon="2.15627">
        <ele>26.74</ele>
        <time>2022-02-06T11:17:22Z</time>
      </trkpt>
      <trkpt lat="49.07165" lon="2.15641">
        <ele>27.49</ele>
        <time>2022-02-06T11:17:32Z</time>
      </trkpt>
      <trkpt lat="49.07163" lon="2.15657">
        <ele>26.62</ele>
        <time>2022-02-06T11:17:43Z</time>
      </trkpt>
      <trkpt lat="49.07162" lon="2.15674">
        <ele>27.43</ele>
        <time>2022-02-06T11:17:54Z</time>
      </trkpt>
      <trkpt lat="49.07157" lon="2.15701">
        <ele>25.59</ele>
        <time>2022-02-06T11:18:09Z</time>
      </trkpt>
      <trkpt lat="49.07157" lon="2.15702">
        <ele>25.67</ele>
        <time>2022-02-06T11:18:10Z</time>
      </trkpt>
      <trkpt lat="49.07154" lon="2.15721">
        <ele>25.4</ele>
        <time>2022-02-06T11:18:21Z</time>
      </trkpt>
      <trkpt lat="49.0715" lon="2.1574">
        <ele>25.14</ele>
        <time>2022-02-06T11:18:31Z</time>
      </trkpt>
      <trkpt lat="49.07146" lon="2.15755">
        <ele>25.09</ele>
        <time>2022-02-06T11:18:40Z</time>
      </trkpt>
      <trkpt lat="49.0714" lon="2.15776">
        <ele>23.58</ele>
        <time>2022-02-06T11:18:52Z</time>
      </trkpt>
      <trkpt lat="49.0714" lon="2.15777">
        <ele>23.56</ele>
        <time>2022-02-06T11:18:53Z</time>
      </trkpt>
      <trkpt lat="49.07139" lon="2.15783">
        <ele>24.75</ele>
        <time>2022-02-06T11:18:59Z</time>
      </trkpt>
      <trkpt lat="49.07139" lon="2.15787">
        <ele>24.86</ele>
        <time>2022-02-06T11:19:01Z</time>
      </trkpt>
      <trkpt lat="49.07135" lon="2.1581">
        <ele>23.42</ele>
        <time>2022-02-06T11:19:15Z</time>
      </trkpt>
      <trkpt lat="49.07132" lon="2.15822">
        <ele>23.91</ele>
        <time>2022-02-06T11:19:25Z</time>
      </trkpt>
      <trkpt lat="49.07131" lon="2.15829">
        <ele>24.04</ele>
        <time>2022-02-06T11:19:34Z</time>
      </trkpt>
      <trkpt lat="49.0713" lon="2.15834">
        <ele>23.96</ele>
        <time>2022-02-06T11:19:37Z</time>
      </trkpt>
      <trkpt lat="49.07123" lon="2.15858">
        <ele>23.46</ele>
        <time>2022-02-06T11:19:51Z</time>
      </trkpt>
      <trkpt lat="49.07121" lon="2.15863">
        <ele>23.62</ele>
        <time>2022-02-06T11:19:54Z</time>
      </trkpt>
      <trkpt lat="49.07121" lon="2.15875">
        <ele>23.97</ele>
        <time>2022-02-06T11:20:02Z</time>
      </trkpt>
      <trkpt lat="49.07119" lon="2.15891">
        <ele>22.89</ele>
        <time>2022-02-06T11:20:13Z</time>
      </trkpt>
      <trkpt lat="49.07118" lon="2.15895">
        <ele>23.63</ele>
        <time>2022-02-06T11:20:17Z</time>
      </trkpt>
      <trkpt lat="49.07114" lon="2.15917">
        <ele>23.49</ele>
        <time>2022-02-06T11:20:29Z</time>
      </trkpt>
      <trkpt lat="49.07113" lon="2.15921">
        <ele>23.3</ele>
        <time>2022-02-06T11:20:32Z</time>
      </trkpt>
      <trkpt lat="49.0711" lon="2.15947">
        <ele>22.55</ele>
        <time>2022-02-06T11:20:47Z</time>
      </trkpt>
      <trkpt lat="49.0711" lon="2.15961">
        <ele>21.83</ele>
        <time>2022-02-06T11:20:55Z</time>
      </trkpt>
      <trkpt lat="49.07111" lon="2.15966">
        <ele>23.23</ele>
        <time>2022-02-06T11:20:58Z</time>
      </trkpt>
      <trkpt lat="49.0711" lon="2.15985">
        <ele>22.62</ele>
        <time>2022-02-06T11:21:09Z</time>
      </trkpt>
      <trkpt lat="49.07107" lon="2.15996">
        <ele>22.46</ele>
        <time>2022-02-06T11:21:16Z</time>
      </trkpt>
      <trkpt lat="49.07108" lon="2.16001">
        <ele>21.56</ele>
        <time>2022-02-06T11:21:19Z</time>
      </trkpt>
      <trkpt lat="49.0711" lon="2.16022">
        <ele>23.29</ele>
        <time>2022-02-06T11:21:31Z</time>
      </trkpt>
      <trkpt lat="49.07111" lon="2.16026">
        <ele>23.34</ele>
        <time>2022-02-06T11:21:33Z</time>
      </trkpt>
      <trkpt lat="49.07111" lon="2.16044">
        <ele>24.13</ele>
        <time>2022-02-06T11:21:44Z</time>
      </trkpt>
      <trkpt lat="49.07112" lon="2.16062">
        <ele>24.23</ele>
        <time>2022-02-06T11:21:55Z</time>
      </trkpt>
      <trkpt lat="49.07115" lon="2.16088">
        <ele>24.86</ele>
        <time>2022-02-06T11:22:11Z</time>
      </trkpt>
      <trkpt lat="49.07115" lon="2.16098">
        <ele>23.84</ele>
        <time>2022-02-06T11:22:19Z</time>
      </trkpt>
      <trkpt lat="49.07116" lon="2.16123">
        <ele>24.26</ele>
        <time>2022-02-06T11:22:32Z</time>
      </trkpt>
      <trkpt lat="49.07119" lon="2.16145">
        <ele>24.38</ele>
        <time>2022-02-06T11:22:46Z</time>
      </trkpt>
      <trkpt lat="49.0712" lon="2.16157">
        <ele>25.15</ele>
        <time>2022-02-06T11:22:53Z</time>
      </trkpt>
      <trkpt lat="49.07121" lon="2.16178">
        <ele>24.49</ele>
        <time>2022-02-06T11:23:05Z</time>
      </trkpt>
      <trkpt lat="49.07122" lon="2.16192">
        <ele>24.45</ele>
        <time>2022-02-06T11:23:13Z</time>
      </trkpt>
      <trkpt lat="49.07122" lon="2.16207">
        <ele>24.52</ele>
        <time>2022-02-06T11:23:20Z</time>
      </trkpt>
      <trkpt lat="49.07122" lon="2.16216">
        <ele>23.56</ele>
        <time>2022-02-06T11:23:26Z</time>
      </trkpt>
      <trkpt lat="49.07121" lon="2.16226">
        <ele>22.84</ele>
        <time>2022-02-06T11:23:32Z</time>
      </trkpt>
      <trkpt lat="49.07118" lon="2.1624">
        <ele>21.4</ele>
        <time>2022-02-06T11:23:41Z</time>
      </trkpt>
      <trkpt lat="49.0712" lon="2.16253">
        <ele>20.22</ele>
        <time>2022-02-06T11:23:50Z</time>
      </trkpt>
      <trkpt lat="49.0712" lon="2.16262">
        <ele>19.88</ele>
        <time>2022-02-06T11:24:02Z</time>
      </trkpt>
      <trkpt lat="49.07122" lon="2.16265">
        <ele>20.99</ele>
        <time>2022-02-06T11:24:15Z</time>
      </trkpt>
      <trkpt lat="49.07124" lon="2.16265">
        <ele>22.91</ele>
        <time>2022-02-06T11:24:27Z</time>
      </trkpt>
      <trkpt lat="49.07123" lon="2.16269">
        <ele>22.11</ele>
        <time>2022-02-06T11:24:35Z</time>
      </trkpt>
      <trkpt lat="49.07129" lon="2.16289">
        <ele>21.56</ele>
        <time>2022-02-06T11:24:50Z</time>
      </trkpt>
      <trkpt lat="49.0713" lon="2.16305">
        <ele>22.57</ele>
        <time>2022-02-06T11:25:01Z</time>
      </trkpt>
      <trkpt lat="49.0713" lon="2.16309">
        <ele>21.89</ele>
        <time>2022-02-06T11:25:04Z</time>
      </trkpt>
      <trkpt lat="49.0713" lon="2.16314">
        <ele>22.81</ele>
        <time>2022-02-06T11:25:07Z</time>
      </trkpt>
      <trkpt lat="49.07131" lon="2.16332">
        <ele>21.5</ele>
        <time>2022-02-06T11:25:18Z</time>
      </trkpt>
      <trkpt lat="49.0713" lon="2.16338">
        <ele>22.84</ele>
        <time>2022-02-06T11:25:21Z</time>
      </trkpt>
      <trkpt lat="49.0713" lon="2.1634">
        <ele>22.87</ele>
        <time>2022-02-06T11:25:22Z</time>
      </trkpt>
      <trkpt lat="49.07129" lon="2.16356">
        <ele>25.24</ele>
        <time>2022-02-06T11:25:33Z</time>
      </trkpt>
      <trkpt lat="49.07128" lon="2.16361">
        <ele>25.28</ele>
        <time>2022-02-06T11:25:36Z</time>
      </trkpt>
      <trkpt lat="49.07129" lon="2.16382">
        <ele>25.42</ele>
        <time>2022-02-06T11:25:48Z</time>
      </trkpt>
      <trkpt lat="49.07129" lon="2.16385">
        <ele>25.3</ele>
        <time>2022-02-06T11:25:50Z</time>
      </trkpt>
      <trkpt lat="49.07129" lon="2.16405">
        <ele>26.62</ele>
        <time>2022-02-06T11:26:02Z</time>
      </trkpt>
      <trkpt lat="49.07129" lon="2.16418">
        <ele>26.82</ele>
        <time>2022-02-06T11:26:11Z</time>
      </trkpt>
      <trkpt lat="49.07129" lon="2.16421">
        <ele>26.5</ele>
        <time>2022-02-06T11:26:13Z</time>
      </trkpt>
      <trkpt lat="49.07128" lon="2.16442">
        <ele>26.91</ele>
        <time>2022-02-06T11:26:26Z</time>
      </trkpt>
      <trkpt lat="49.07129" lon="2.16451">
        <ele>25.2</ele>
        <time>2022-02-06T11:26:33Z</time>
      </trkpt>
      <trkpt lat="49.07129" lon="2.16458">
        <ele>28.44</ele>
        <time>2022-02-06T11:26:38Z</time>
      </trkpt>
      <trkpt lat="49.07132" lon="2.16478">
        <ele>26.28</ele>
        <time>2022-02-06T11:26:50Z</time>
      </trkpt>
      <trkpt lat="49.07136" lon="2.16497">
        <ele>28.05</ele>
        <time>2022-02-06T11:27:02Z</time>
      </trkpt>
      <trkpt lat="49.07137" lon="2.16504">
        <ele>27.97</ele>
        <time>2022-02-06T11:27:06Z</time>
      </trkpt>
      <trkpt lat="49.0714" lon="2.16525">
        <ele>29.64</ele>
        <time>2022-02-06T11:27:19Z</time>
      </trkpt>
      <trkpt lat="49.07141" lon="2.16529">
        <ele>31.41</ele>
        <time>2022-02-06T11:27:22Z</time>
      </trkpt>
      <trkpt lat="49.07147" lon="2.1653">
        <ele>32.04</ele>
        <time>2022-02-06T11:27:33Z</time>
      </trkpt>
      <trkpt lat="49.07149" lon="2.1653">
        <ele>32.21</ele>
        <time>2022-02-06T11:27:35Z</time>
      </trkpt>
      <trkpt lat="49.07157" lon="2.16536">
        <ele>32.19</ele>
        <time>2022-02-06T11:27:44Z</time>
      </trkpt>
      <trkpt lat="49.07161" lon="2.16541">
        <ele>32.91</ele>
        <time>2022-02-06T11:27:48Z</time>
      </trkpt>
      <trkpt lat="49.07164" lon="2.16557">
        <ele>31.01</ele>
        <time>2022-02-06T11:27:58Z</time>
      </trkpt>
      <trkpt lat="49.07166" lon="2.16562">
        <ele>33.09</ele>
        <time>2022-02-06T11:28:08Z</time>
      </trkpt>
      <trkpt lat="49.07173" lon="2.16571">
        <ele>34.19</ele>
        <time>2022-02-06T11:28:22Z</time>
      </trkpt>
      <trkpt lat="49.07178" lon="2.16581">
        <ele>34.74</ele>
        <time>2022-02-06T11:28:36Z</time>
      </trkpt>
      <trkpt lat="49.07182" lon="2.16595">
        <ele>35.16</ele>
        <time>2022-02-06T11:28:50Z</time>
      </trkpt>
      <trkpt lat="49.07186" lon="2.16606">
        <ele>36.64</ele>
        <time>2022-02-06T11:29:04Z</time>
      </trkpt>
      <trkpt lat="49.07185" lon="2.16616">
        <ele>35.84</ele>
        <time>2022-02-06T11:29:16Z</time>
      </trkpt>
      <trkpt lat="49.07182" lon="2.1662">
        <ele>36.34</ele>
        <time>2022-02-06T11:29:32Z</time>
      </trkpt>
      <trkpt lat="49.07182" lon="2.16621">
        <ele>35.74</ele>
        <time>2022-02-06T11:30:03Z</time>
      </trkpt>
      <trkpt lat="49.07182" lon="2.16621">
        <ele>36.39</ele>
        <time>2022-02-06T11:30:33Z</time>
      </trkpt>
      <trkpt lat="49.07181" lon="2.1662">
        <ele>37.16</ele>
        <time>2022-02-06T11:30:55Z</time>
      </trkpt>
      <trkpt lat="49.07186" lon="2.16629">
        <ele>36.5</ele>
        <time>2022-02-06T11:31:09Z</time>
      </trkpt>
      <trkpt lat="49.07195" lon="2.16645">
        <ele>37.08</ele>
        <time>2022-02-06T11:31:23Z</time>
      </trkpt>
      <trkpt lat="49.07196" lon="2.16657">
        <ele>36.59</ele>
        <time>2022-02-06T11:31:35Z</time>
      </trkpt>
      <trkpt lat="49.07189" lon="2.16671">
        <ele>34.8</ele>
        <time>2022-02-06T11:31:49Z</time>
      </trkpt>
      <trkpt lat="49.07192" lon="2.16685">
        <ele>33.05</ele>
        <time>2022-02-06T11:32:00Z</time>
      </trkpt>
      <trkpt lat="49.07193" lon="2.16691">
        <ele>34.5</ele>
        <time>2022-02-06T11:32:05Z</time>
      </trkpt>
      <trkpt lat="49.07192" lon="2.16696">
        <ele>36.2</ele>
        <time>2022-02-06T11:32:17Z</time>
      </trkpt>
      <trkpt lat="49.07192" lon="2.16685">
        <ele>35.36</ele>
        <time>2022-02-06T11:32:29Z</time>
      </trkpt>
      <trkpt lat="49.0719" lon="2.16666">
        <ele>37.1</ele>
        <time>2022-02-06T11:32:43Z</time>
      </trkpt>
      <trkpt lat="49.07195" lon="2.16659">
        <ele>39.29</ele>
        <time>2022-02-06T11:32:58Z</time>
      </trkpt>
      <trkpt lat="49.07205" lon="2.16649">
        <ele>38.85</ele>
        <time>2022-02-06T11:33:13Z</time>
      </trkpt>
      <trkpt lat="49.07206" lon="2.16643">
        <ele>38.41</ele>
        <time>2022-02-06T11:33:17Z</time>
      </trkpt>
      <trkpt lat="49.07204" lon="2.1663">
        <ele>39.36</ele>
        <time>2022-02-06T11:33:27Z</time>
      </trkpt>
      <trkpt lat="49.072" lon="2.16619">
        <ele>39.34</ele>
        <time>2022-02-06T11:33:38Z</time>
      </trkpt>
      <trkpt lat="49.07199" lon="2.16615">
        <ele>41.14</ele>
        <time>2022-02-06T11:33:40Z</time>
      </trkpt>
      <trkpt lat="49.07199" lon="2.16613">
        <ele>37.42</ele>
        <time>2022-02-06T11:33:41Z</time>
      </trkpt>
      <trkpt lat="49.07199" lon="2.16611">
        <ele>39.86</ele>
        <time>2022-02-06T11:33:42Z</time>
      </trkpt>
      <trkpt lat="49.07201" lon="2.16602">
        <ele>40.62</ele>
        <time>2022-02-06T11:33:46Z</time>
      </trkpt>
      <trkpt lat="49.07199" lon="2.16593">
        <ele>38.4</ele>
        <time>2022-02-06T11:33:51Z</time>
      </trkpt>
      <trkpt lat="49.07189" lon="2.16579">
        <ele>36.91</ele>
        <time>2022-02-06T11:34:03Z</time>
      </trkpt>
      <trkpt lat="49.0718" lon="2.16563">
        <ele>34.68</ele>
        <time>2022-02-06T11:34:17Z</time>
      </trkpt>
      <trkpt lat="49.0718" lon="2.16562">
        <ele>33.68</ele>
        <time>2022-02-06T11:34:18Z</time>
      </trkpt>
      <trkpt lat="49.07185" lon="2.16559">
        <ele>34.76</ele>
        <time>2022-02-06T11:34:24Z</time>
      </trkpt>
      <trkpt lat="49.0719" lon="2.16555">
        <ele>34.35</ele>
        <time>2022-02-06T11:34:34Z</time>
      </trkpt>
      <trkpt lat="49.07191" lon="2.16553">
        <ele>34.06</ele>
        <time>2022-02-06T11:34:36Z</time>
      </trkpt>
      <trkpt lat="49.07194" lon="2.16545">
        <ele>33.81</ele>
        <time>2022-02-06T11:34:47Z</time>
      </trkpt>
      <trkpt lat="49.07199" lon="2.16543">
        <ele>31.94</ele>
        <time>2022-02-06T11:34:50Z</time>
      </trkpt>
      <trkpt lat="49.072" lon="2.16542">
        <ele>33.15</ele>
        <time>2022-02-06T11:34:52Z</time>
      </trkpt>
      <trkpt lat="49.07201" lon="2.1654">
        <ele>34.82</ele>
        <time>2022-02-06T11:34:55Z</time>
      </trkpt>
      <trkpt lat="49.07197" lon="2.1654">
        <ele>34.53</ele>
        <time>2022-02-06T11:35:09Z</time>
      </trkpt>
      <trkpt lat="49.07204" lon="2.16557">
        <ele>35.38</ele>
        <time>2022-02-06T11:35:25Z</time>
      </trkpt>
      <trkpt lat="49.07204" lon="2.16563">
        <ele>35.83</ele>
        <time>2022-02-06T11:35:37Z</time>
      </trkpt>
      <trkpt lat="49.07203" lon="2.16564">
        <ele>35.98</ele>
        <time>2022-02-06T11:35:41Z</time>
      </trkpt>
      <trkpt lat="49.07206" lon="2.16553">
        <ele>34.07</ele>
        <time>2022-02-06T11:35:59Z</time>
      </trkpt>
      <trkpt lat="49.07207" lon="2.16549">
        <ele>33.38</ele>
        <time>2022-02-06T11:36:05Z</time>
      </trkpt>
      <trkpt lat="49.07208" lon="2.16548">
        <ele>33.65</ele>
        <time>2022-02-06T11:36:07Z</time>
      </trkpt>
      <trkpt lat="49.07206" lon="2.16539">
        <ele>34.31</ele>
        <time>2022-02-06T11:36:26Z</time>
      </trkpt>
      <trkpt lat="49.07201" lon="2.16541">
        <ele>34.79</ele>
        <time>2022-02-06T11:36:45Z</time>
      </trkpt>
      <trkpt lat="49.0716" lon="2.16591">
        <ele>34.74</ele>
        <time>2022-02-06T12:04:49Z</time>
      </trkpt>
      <trkpt lat="49.07165" lon="2.16585">
        <ele>37.84</ele>
        <time>2022-02-06T12:04:51Z</time>
      </trkpt>
      <trkpt lat="49.07168" lon="2.1658">
        <ele>41.84</ele>
        <time>2022-02-06T12:04:53Z</time>
      </trkpt>
      <trkpt lat="49.07169" lon="2.16579">
        <ele>45.84</ele>
        <time>2022-02-06T12:04:56Z</time>
      </trkpt>
      <trkpt lat="49.0717" lon="2.16578">
        <ele>48.91</ele>
        <time>2022-02-06T12:04:59Z</time>
      </trkpt>
      <trkpt lat="49.07168" lon="2.16585">
        <ele>52.98</ele>
        <time>2022-02-06T12:05:03Z</time>
      </trkpt>
      <trkpt lat="49.07167" lon="2.16586">
        <ele>56.04</ele>
        <time>2022-02-06T12:05:06Z</time>
      </trkpt>
      <trkpt lat="49.0717" lon="2.16584">
        <ele>59.68</ele>
        <time>2022-02-06T12:05:10Z</time>
      </trkpt>
      <trkpt lat="49.07172" lon="2.16582">
        <ele>62.69</ele>
        <time>2022-02-06T12:05:14Z</time>
      </trkpt>
      <trkpt lat="49.07174" lon="2.16581">
        <ele>65.85</ele>
        <time>2022-02-06T12:05:19Z</time>
      </trkpt>
      <trkpt lat="49.07175" lon="2.16581">
        <ele>67.85</ele>
        <time>2022-02-06T12:05:23Z</time>
      </trkpt>
      <trkpt lat="49.07175" lon="2.16581">
        <ele>70.07</ele>
        <time>2022-02-06T12:05:27Z</time>
      </trkpt>
      <trkpt lat="49.07179" lon="2.16579">
        <ele>73.92</ele>
        <time>2022-02-06T12:05:39Z</time>
      </trkpt>
      <trkpt lat="49.07181" lon="2.16578">
        <ele>75.33</ele>
        <time>2022-02-06T12:05:44Z</time>
      </trkpt>
      <trkpt lat="49.07184" lon="2.16573">
        <ele>78.69</ele>
        <time>2022-02-06T12:06:00Z</time>
      </trkpt>
      <trkpt lat="49.07184" lon="2.16573">
        <ele>78.65</ele>
        <time>2022-02-06T12:06:01Z</time>
      </trkpt>
      <trkpt lat="49.07184" lon="2.16582">
        <ele>35.01</ele>
        <time>2022-02-06T12:06:34Z</time>
      </trkpt>
      <trkpt lat="49.07185" lon="2.16583">
        <ele>80.22</ele>
        <time>2022-02-06T12:06:35Z</time>
      </trkpt>
      <trkpt lat="49.07178" lon="2.1658">
        <ele>79.41</ele>
        <time>2022-02-06T12:07:27Z</time>
      </trkpt>
      <trkpt lat="49.07185" lon="2.16578">
        <ele>80.04</ele>
        <time>2022-02-06T12:07:46Z</time>
      </trkpt>
      <trkpt lat="49.07182" lon="2.16579">
        <ele>78.21</ele>
        <time>2022-02-06T12:07:52Z</time>
      </trkpt>
      <trkpt lat="49.07181" lon="2.16579">
        <ele>79.49</ele>
        <time>2022-02-06T12:07:55Z</time>
      </trkpt>
      <trkpt lat="49.07173" lon="2.16584">
        <ele>78.64</ele>
        <time>2022-02-06T12:08:10Z</time>
      </trkpt>
      <trkpt lat="49.07172" lon="2.16584">
        <ele>78.81</ele>
        <time>2022-02-06T12:08:11Z</time>
      </trkpt>
      <trkpt lat="49.07155" lon="2.16587">
        <ele>75.76</ele>
        <time>2022-02-06T12:08:25Z</time>
      </trkpt>
      <trkpt lat="49.07149" lon="2.1659">
        <ele>75.74</ele>
        <time>2022-02-06T12:08:33Z</time>
      </trkpt>
      <trkpt lat="49.07141" lon="2.16591">
        <ele>74.44</ele>
        <time>2022-02-06T12:08:42Z</time>
      </trkpt>
      <trkpt lat="49.07138" lon="2.16592">
        <ele>73.59</ele>
        <time>2022-02-06T12:08:54Z</time>
      </trkpt>
      <trkpt lat="49.07131" lon="2.16591">
        <ele>74.06</ele>
        <time>2022-02-06T12:09:03Z</time>
      </trkpt>
      <trkpt lat="49.07123" lon="2.1659">
        <ele>73.54</ele>
        <time>2022-02-06T12:09:16Z</time>
      </trkpt>
      <trkpt lat="49.07118" lon="2.16588">
        <ele>73.23</ele>
        <time>2022-02-06T12:09:25Z</time>
      </trkpt>
      <trkpt lat="49.07114" lon="2.16596">
        <ele>72.76</ele>
        <time>2022-02-06T12:09:34Z</time>
      </trkpt>
      <trkpt lat="49.07114" lon="2.16597">
        <ele>72.46</ele>
        <time>2022-02-06T12:09:35Z</time>
      </trkpt>
      <trkpt lat="49.07109" lon="2.16619">
        <ele>71.64</ele>
        <time>2022-02-06T12:09:51Z</time>
      </trkpt>
      <trkpt lat="49.07106" lon="2.16634">
        <ele>70.3</ele>
        <time>2022-02-06T12:10:01Z</time>
      </trkpt>
      <trkpt lat="49.07105" lon="2.16652">
        <ele>70.13</ele>
        <time>2022-02-06T12:10:15Z</time>
      </trkpt>
      <trkpt lat="49.07106" lon="2.1667">
        <ele>68.78</ele>
        <time>2022-02-06T12:10:30Z</time>
      </trkpt>
      <trkpt lat="49.07105" lon="2.1669">
        <ele>67.3</ele>
        <time>2022-02-06T12:10:41Z</time>
      </trkpt>
      <trkpt lat="49.07106" lon="2.16707">
        <ele>66.8</ele>
        <time>2022-02-06T12:10:51Z</time>
      </trkpt>
      <trkpt lat="49.07105" lon="2.16725">
        <ele>65.72</ele>
        <time>2022-02-06T12:11:03Z</time>
      </trkpt>
      <trkpt lat="49.07103" lon="2.16744">
        <ele>65.26</ele>
        <time>2022-02-06T12:11:14Z</time>
      </trkpt>
      <trkpt lat="49.07101" lon="2.1678">
        <ele>63.83</ele>
        <time>2022-02-06T12:11:31Z</time>
      </trkpt>
      <trkpt lat="49.071" lon="2.16788">
        <ele>63.04</ele>
        <time>2022-02-06T12:11:39Z</time>
      </trkpt>
      <trkpt lat="49.07103" lon="2.16797">
        <ele>61.51</ele>
        <time>2022-02-06T12:11:55Z</time>
      </trkpt>
      <trkpt lat="49.07106" lon="2.16815">
        <ele>61.14</ele>
        <time>2022-02-06T12:12:06Z</time>
      </trkpt>
      <trkpt lat="49.07108" lon="2.16831">
        <ele>59.95</ele>
        <time>2022-02-06T12:12:16Z</time>
      </trkpt>
      <trkpt lat="49.0711" lon="2.16837">
        <ele>60.64</ele>
        <time>2022-02-06T12:12:20Z</time>
      </trkpt>
      <trkpt lat="49.07111" lon="2.1684">
        <ele>60.24</ele>
        <time>2022-02-06T12:12:22Z</time>
      </trkpt>
      <trkpt lat="49.07107" lon="2.16856">
        <ele>59.87</ele>
        <time>2022-02-06T12:12:35Z</time>
      </trkpt>
      <trkpt lat="49.07107" lon="2.16862">
        <ele>59.3</ele>
        <time>2022-02-06T12:12:39Z</time>
      </trkpt>
      <trkpt lat="49.07107" lon="2.16886">
        <ele>59.24</ele>
        <time>2022-02-06T12:12:51Z</time>
      </trkpt>
      <trkpt lat="49.07103" lon="2.16905">
        <ele>58.8</ele>
        <time>2022-02-06T12:13:02Z</time>
      </trkpt>
      <trkpt lat="49.07103" lon="2.1693">
        <ele>57.73</ele>
        <time>2022-02-06T12:13:15Z</time>
      </trkpt>
      <trkpt lat="49.07096" lon="2.16954">
        <ele>56.47</ele>
        <time>2022-02-06T12:13:30Z</time>
      </trkpt>
      <trkpt lat="49.07093" lon="2.16977">
        <ele>57.79</ele>
        <time>2022-02-06T12:13:41Z</time>
      </trkpt>
      <trkpt lat="49.07093" lon="2.1698">
        <ele>57.5</ele>
        <time>2022-02-06T12:13:42Z</time>
      </trkpt>
      <trkpt lat="49.07091" lon="2.16993">
        <ele>56.82</ele>
        <time>2022-02-06T12:13:47Z</time>
      </trkpt>
      <trkpt lat="49.07089" lon="2.17001">
        <ele>56.96</ele>
        <time>2022-02-06T12:13:51Z</time>
      </trkpt>
      <trkpt lat="49.07084" lon="2.17024">
        <ele>55.87</ele>
        <time>2022-02-06T12:14:03Z</time>
      </trkpt>
      <trkpt lat="49.07081" lon="2.17045">
        <ele>55.86</ele>
        <time>2022-02-06T12:14:13Z</time>
      </trkpt>
      <trkpt lat="49.0708" lon="2.17049">
        <ele>55.57</ele>
        <time>2022-02-06T12:14:15Z</time>
      </trkpt>
      <trkpt lat="49.07074" lon="2.17084">
        <ele>54.31</ele>
        <time>2022-02-06T12:14:32Z</time>
      </trkpt>
      <trkpt lat="49.07072" lon="2.17104">
        <ele>53.65</ele>
        <time>2022-02-06T12:14:44Z</time>
      </trkpt>
      <trkpt lat="49.07073" lon="2.17111">
        <ele>54.1</ele>
        <time>2022-02-06T12:14:48Z</time>
      </trkpt>
      <trkpt lat="49.07076" lon="2.17114">
        <ele>53.85</ele>
        <time>2022-02-06T12:14:51Z</time>
      </trkpt>
      <trkpt lat="49.07078" lon="2.17117">
        <ele>53.79</ele>
        <time>2022-02-06T12:14:54Z</time>
      </trkpt>
      <trkpt lat="49.07085" lon="2.17121">
        <ele>54.09</ele>
        <time>2022-02-06T12:15:00Z</time>
      </trkpt>
      <trkpt lat="49.0709" lon="2.17128">
        <ele>54.24</ele>
        <time>2022-02-06T12:15:05Z</time>
      </trkpt>
      <trkpt lat="49.07091" lon="2.1713">
        <ele>54.75</ele>
        <time>2022-02-06T12:15:07Z</time>
      </trkpt>
      <trkpt lat="49.07096" lon="2.17136">
        <ele>54.41</ele>
        <time>2022-02-06T12:15:12Z</time>
      </trkpt>
      <trkpt lat="49.07107" lon="2.17145">
        <ele>54.72</ele>
        <time>2022-02-06T12:15:23Z</time>
      </trkpt>
      <trkpt lat="49.07108" lon="2.17146">
        <ele>54.05</ele>
        <time>2022-02-06T12:15:24Z</time>
      </trkpt>
      <trkpt lat="49.07113" lon="2.17155">
        <ele>55.17</ele>
        <time>2022-02-06T12:15:30Z</time>
      </trkpt>
      <trkpt lat="49.07118" lon="2.17161">
        <ele>55.13</ele>
        <time>2022-02-06T12:15:42Z</time>
      </trkpt>
      <trkpt lat="49.07121" lon="2.17161">
        <ele>55.54</ele>
        <time>2022-02-06T12:15:56Z</time>
      </trkpt>
      <trkpt lat="49.0713" lon="2.17157">
        <ele>55.21</ele>
        <time>2022-02-06T12:16:12Z</time>
      </trkpt>
      <trkpt lat="49.07132" lon="2.17157">
        <ele>55.03</ele>
        <time>2022-02-06T12:16:31Z</time>
      </trkpt>
      <trkpt lat="49.07132" lon="2.1716">
        <ele>54.32</ele>
        <time>2022-02-06T12:16:49Z</time>
      </trkpt>
      <trkpt lat="49.07136" lon="2.17171">
        <ele>54.54</ele>
        <time>2022-02-06T12:17:01Z</time>
      </trkpt>
      <trkpt lat="49.07136" lon="2.17184">
        <ele>55.65</ele>
        <time>2022-02-06T12:17:11Z</time>
      </trkpt>
      <trkpt lat="49.07139" lon="2.17198">
        <ele>56.84</ele>
        <time>2022-02-06T12:17:26Z</time>
      </trkpt>
      <trkpt lat="49.07145" lon="2.17217">
        <ele>59.67</ele>
        <time>2022-02-06T12:17:42Z</time>
      </trkpt>
      <trkpt lat="49.07146" lon="2.17222">
        <ele>60.49</ele>
        <time>2022-02-06T12:17:46Z</time>
      </trkpt>
      <trkpt lat="49.07144" lon="2.17243">
        <ele>61.39</ele>
        <time>2022-02-06T12:17:56Z</time>
      </trkpt>
      <trkpt lat="49.0714" lon="2.17259">
        <ele>60.39</ele>
        <time>2022-02-06T12:18:07Z</time>
      </trkpt>
      <trkpt lat="49.0714" lon="2.17283">
        <ele>59.11</ele>
        <time>2022-02-06T12:18:21Z</time>
      </trkpt>
      <trkpt lat="49.07139" lon="2.17289">
        <ele>58.56</ele>
        <time>2022-02-06T12:18:24Z</time>
      </trkpt>
      <trkpt lat="49.07139" lon="2.17297">
        <ele>58.6</ele>
        <time>2022-02-06T12:18:30Z</time>
      </trkpt>
      <trkpt lat="49.07139" lon="2.17311">
        <ele>58.95</ele>
        <time>2022-02-06T12:18:38Z</time>
      </trkpt>
      <trkpt lat="49.0714" lon="2.17314">
        <ele>59</ele>
        <time>2022-02-06T12:18:40Z</time>
      </trkpt>
      <trkpt lat="49.0714" lon="2.17335">
        <ele>57.91</ele>
        <time>2022-02-06T12:18:51Z</time>
      </trkpt>
      <trkpt lat="49.07145" lon="2.17362">
        <ele>57.76</ele>
        <time>2022-02-06T12:19:09Z</time>
      </trkpt>
      <trkpt lat="49.07149" lon="2.17387">
        <ele>57</ele>
        <time>2022-02-06T12:19:25Z</time>
      </trkpt>
      <trkpt lat="49.07151" lon="2.1739">
        <ele>57.86</ele>
        <time>2022-02-06T12:19:27Z</time>
      </trkpt>
      <trkpt lat="49.07152" lon="2.17398">
        <ele>57.35</ele>
        <time>2022-02-06T12:19:31Z</time>
      </trkpt>
      <trkpt lat="49.07155" lon="2.1741">
        <ele>57.38</ele>
        <time>2022-02-06T12:19:39Z</time>
      </trkpt>
      <trkpt lat="49.07155" lon="2.17416">
        <ele>57.61</ele>
        <time>2022-02-06T12:19:42Z</time>
      </trkpt>
      <trkpt lat="49.07156" lon="2.17429">
        <ele>56.46</ele>
        <time>2022-02-06T12:19:51Z</time>
      </trkpt>
      <trkpt lat="49.07156" lon="2.17433">
        <ele>57.35</ele>
        <time>2022-02-06T12:19:53Z</time>
      </trkpt>
      <trkpt lat="49.07154" lon="2.17437">
        <ele>56.75</ele>
        <time>2022-02-06T12:19:55Z</time>
      </trkpt>
      <trkpt lat="49.07155" lon="2.1744">
        <ele>56.85</ele>
        <time>2022-02-06T12:19:57Z</time>
      </trkpt>
      <trkpt lat="49.07155" lon="2.17457">
        <ele>59.17</ele>
        <time>2022-02-06T12:20:07Z</time>
      </trkpt>
      <trkpt lat="49.07157" lon="2.17468">
        <ele>58.24</ele>
        <time>2022-02-06T12:20:14Z</time>
      </trkpt>
      <trkpt lat="49.07157" lon="2.17469">
        <ele>58.48</ele>
        <time>2022-02-06T12:20:15Z</time>
      </trkpt>
      <trkpt lat="49.07156" lon="2.17473">
        <ele>58.59</ele>
        <time>2022-02-06T12:20:17Z</time>
      </trkpt>
      <trkpt lat="49.0716" lon="2.1749">
        <ele>56.07</ele>
        <time>2022-02-06T12:20:28Z</time>
      </trkpt>
      <trkpt lat="49.0716" lon="2.17496">
        <ele>56.57</ele>
        <time>2022-02-06T12:20:31Z</time>
      </trkpt>
      <trkpt lat="49.07164" lon="2.17515">
        <ele>56.23</ele>
        <time>2022-02-06T12:20:43Z</time>
      </trkpt>
      <trkpt lat="49.0717" lon="2.17537">
        <ele>55.55</ele>
        <time>2022-02-06T12:20:57Z</time>
      </trkpt>
      <trkpt lat="49.07173" lon="2.17551">
        <ele>56.7</ele>
        <time>2022-02-06T12:21:07Z</time>
      </trkpt>
      <trkpt lat="49.07174" lon="2.17564">
        <ele>57.88</ele>
        <time>2022-02-06T12:21:22Z</time>
      </trkpt>
      <trkpt lat="49.07176" lon="2.17568">
        <ele>58.45</ele>
        <time>2022-02-06T12:21:35Z</time>
      </trkpt>
      <trkpt lat="49.07181" lon="2.17571">
        <ele>60.38</ele>
        <time>2022-02-06T12:21:52Z</time>
      </trkpt>
      <trkpt lat="49.07189" lon="2.17583">
        <ele>62.8</ele>
        <time>2022-02-06T12:22:08Z</time>
      </trkpt>
      <trkpt lat="49.07189" lon="2.17586">
        <ele>62.68</ele>
        <time>2022-02-06T12:22:16Z</time>
      </trkpt>
      <trkpt lat="49.07192" lon="2.17584">
        <ele>63.22</ele>
        <time>2022-02-06T12:22:22Z</time>
      </trkpt>
      <trkpt lat="49.072" lon="2.17584">
        <ele>62.7</ele>
        <time>2022-02-06T12:22:32Z</time>
      </trkpt>
      <trkpt lat="49.07207" lon="2.17588">
        <ele>62.18</ele>
        <time>2022-02-06T12:22:57Z</time>
      </trkpt>
      <trkpt lat="49.07217" lon="2.176">
        <ele>61.36</ele>
        <time>2022-02-06T12:23:23Z</time>
      </trkpt>
      <trkpt lat="49.072" lon="2.17612">
        <ele>60.26</ele>
        <time>2022-02-06T12:24:14Z</time>
      </trkpt>
      <trkpt lat="49.07207" lon="2.17583">
        <ele>60.77</ele>
        <time>2022-02-06T12:24:29Z</time>
      </trkpt>
      <trkpt lat="49.07208" lon="2.17582">
        <ele>60.09</ele>
        <time>2022-02-06T12:24:37Z</time>
      </trkpt>
      <trkpt lat="49.07209" lon="2.17583">
        <ele>61.13</ele>
        <time>2022-02-06T12:24:52Z</time>
      </trkpt>
      <trkpt lat="49.07207" lon="2.17586">
        <ele>61.07</ele>
        <time>2022-02-06T12:25:10Z</time>
      </trkpt>
      <trkpt lat="49.07207" lon="2.17587">
        <ele>59.94</ele>
        <time>2022-02-06T12:25:23Z</time>
      </trkpt>
      <trkpt lat="49.07209" lon="2.17587">
        <ele>60.94</ele>
        <time>2022-02-06T12:25:39Z</time>
      </trkpt>
      <trkpt lat="49.0721" lon="2.17588">
        <ele>60.42</ele>
        <time>2022-02-06T12:25:51Z</time>
      </trkpt>
      <trkpt lat="49.07214" lon="2.17603">
        <ele>61.24</ele>
        <time>2022-02-06T12:26:05Z</time>
      </trkpt>
      <trkpt lat="49.07219" lon="2.17622">
        <ele>60.25</ele>
        <time>2022-02-06T12:26:22Z</time>
      </trkpt>
      <trkpt lat="49.07221" lon="2.17641">
        <ele>59.58</ele>
        <time>2022-02-06T12:26:34Z</time>
      </trkpt>
      <trkpt lat="49.07222" lon="2.17647">
        <ele>59.56</ele>
        <time>2022-02-06T12:26:37Z</time>
      </trkpt>
      <trkpt lat="49.07223" lon="2.17652">
        <ele>60.26</ele>
        <time>2022-02-06T12:26:40Z</time>
      </trkpt>
      <trkpt lat="49.07228" lon="2.17659">
        <ele>60.04</ele>
        <time>2022-02-06T12:26:51Z</time>
      </trkpt>
      <trkpt lat="49.07237" lon="2.17659">
        <ele>62.09</ele>
        <time>2022-02-06T12:27:05Z</time>
      </trkpt>
      <trkpt lat="49.07251" lon="2.17661">
        <ele>62.87</ele>
        <time>2022-02-06T12:27:20Z</time>
      </trkpt>
      <trkpt lat="49.07258" lon="2.17658">
        <ele>63.3</ele>
        <time>2022-02-06T12:27:29Z</time>
      </trkpt>
      <trkpt lat="49.07269" lon="2.17659">
        <ele>65.7</ele>
        <time>2022-02-06T12:27:47Z</time>
      </trkpt>
      <trkpt lat="49.07286" lon="2.17654">
        <ele>66.53</ele>
        <time>2022-02-06T12:28:03Z</time>
      </trkpt>
      <trkpt lat="49.07289" lon="2.17652">
        <ele>67.22</ele>
        <time>2022-02-06T12:28:06Z</time>
      </trkpt>
      <trkpt lat="49.07304" lon="2.17647">
        <ele>68.11</ele>
        <time>2022-02-06T12:28:22Z</time>
      </trkpt>
      <trkpt lat="49.07313" lon="2.17645">
        <ele>68.01</ele>
        <time>2022-02-06T12:28:31Z</time>
      </trkpt>
      <trkpt lat="49.07321" lon="2.17641">
        <ele>68.19</ele>
        <time>2022-02-06T12:28:43Z</time>
      </trkpt>
      <trkpt lat="49.07326" lon="2.17639">
        <ele>68.78</ele>
        <time>2022-02-06T12:28:46Z</time>
      </trkpt>
      <trkpt lat="49.07342" lon="2.17632">
        <ele>69.39</ele>
        <time>2022-02-06T12:28:59Z</time>
      </trkpt>
      <trkpt lat="49.07352" lon="2.17626">
        <ele>68.94</ele>
        <time>2022-02-06T12:29:11Z</time>
      </trkpt>
      <trkpt lat="49.07355" lon="2.17623">
        <ele>70.13</ele>
        <time>2022-02-06T12:29:16Z</time>
      </trkpt>
      <trkpt lat="49.0736" lon="2.17622">
        <ele>69.77</ele>
        <time>2022-02-06T12:29:20Z</time>
      </trkpt>
      <trkpt lat="49.07372" lon="2.17613">
        <ele>70.24</ele>
        <time>2022-02-06T12:29:31Z</time>
      </trkpt>
      <trkpt lat="49.07382" lon="2.17608">
        <ele>70.74</ele>
        <time>2022-02-06T12:29:42Z</time>
      </trkpt>
      <trkpt lat="49.07387" lon="2.17606">
        <ele>71.84</ele>
        <time>2022-02-06T12:30:00Z</time>
      </trkpt>
      <trkpt lat="49.07388" lon="2.17605">
        <ele>71.95</ele>
        <time>2022-02-06T12:30:01Z</time>
      </trkpt>
      <trkpt lat="49.07392" lon="2.17602">
        <ele>71.12</ele>
        <time>2022-02-06T12:30:07Z</time>
      </trkpt>
      <trkpt lat="49.07401" lon="2.17598">
        <ele>71.41</ele>
        <time>2022-02-06T12:30:21Z</time>
      </trkpt>
      <trkpt lat="49.07406" lon="2.17594">
        <ele>71.13</ele>
        <time>2022-02-06T12:30:28Z</time>
      </trkpt>
      <trkpt lat="49.0741" lon="2.17593">
        <ele>71.93</ele>
        <time>2022-02-06T12:30:33Z</time>
      </trkpt>
      <trkpt lat="49.07425" lon="2.17589">
        <ele>72.11</ele>
        <time>2022-02-06T12:30:46Z</time>
      </trkpt>
      <trkpt lat="49.07435" lon="2.17585">
        <ele>72.04</ele>
        <time>2022-02-06T12:30:55Z</time>
      </trkpt>
      <trkpt lat="49.07442" lon="2.17589">
        <ele>72.75</ele>
        <time>2022-02-06T12:31:05Z</time>
      </trkpt>
      <trkpt lat="49.07444" lon="2.17594">
        <ele>73.17</ele>
        <time>2022-02-06T12:31:11Z</time>
      </trkpt>
      <trkpt lat="49.0745" lon="2.1761">
        <ele>73.04</ele>
        <time>2022-02-06T12:31:22Z</time>
      </trkpt>
      <trkpt lat="49.07453" lon="2.1762">
        <ele>73.24</ele>
        <time>2022-02-06T12:31:29Z</time>
      </trkpt>
      <trkpt lat="49.07458" lon="2.17635">
        <ele>73.52</ele>
        <time>2022-02-06T12:31:40Z</time>
      </trkpt>
      <trkpt lat="49.07463" lon="2.17651">
        <ele>73.13</ele>
        <time>2022-02-06T12:31:51Z</time>
      </trkpt>
      <trkpt lat="49.07468" lon="2.17671">
        <ele>73.23</ele>
        <time>2022-02-06T12:32:03Z</time>
      </trkpt>
      <trkpt lat="49.0747" lon="2.17676">
        <ele>73.57</ele>
        <time>2022-02-06T12:32:06Z</time>
      </trkpt>
      <trkpt lat="49.07474" lon="2.17686">
        <ele>73.99</ele>
        <time>2022-02-06T12:32:13Z</time>
      </trkpt>
      <trkpt lat="49.07477" lon="2.17701">
        <ele>73.57</ele>
        <time>2022-02-06T12:32:23Z</time>
      </trkpt>
      <trkpt lat="49.0748" lon="2.17708">
        <ele>73.69</ele>
        <time>2022-02-06T12:32:28Z</time>
      </trkpt>
      <trkpt lat="49.07485" lon="2.17727">
        <ele>73.85</ele>
        <time>2022-02-06T12:32:40Z</time>
      </trkpt>
      <trkpt lat="49.07491" lon="2.17741">
        <ele>74.02</ele>
        <time>2022-02-06T12:32:50Z</time>
      </trkpt>
      <trkpt lat="49.07491" lon="2.17747">
        <ele>74.11</ele>
        <time>2022-02-06T12:32:53Z</time>
      </trkpt>
      <trkpt lat="49.07493" lon="2.17755">
        <ele>74.3</ele>
        <time>2022-02-06T12:32:58Z</time>
      </trkpt>
      <trkpt lat="49.07502" lon="2.1778">
        <ele>74.19</ele>
        <time>2022-02-06T12:33:13Z</time>
      </trkpt>
      <trkpt lat="49.07508" lon="2.17798">
        <ele>74.43</ele>
        <time>2022-02-06T12:33:25Z</time>
      </trkpt>
      <trkpt lat="49.07508" lon="2.17814">
        <ele>74.92</ele>
        <time>2022-02-06T12:33:36Z</time>
      </trkpt>
      <trkpt lat="49.07501" lon="2.17828">
        <ele>73.45</ele>
        <time>2022-02-06T12:33:49Z</time>
      </trkpt>
      <trkpt lat="49.07506" lon="2.17826">
        <ele>72.87</ele>
        <time>2022-02-06T12:34:01Z</time>
      </trkpt>
      <trkpt lat="49.07504" lon="2.17829">
        <ele>73.34</ele>
        <time>2022-02-06T12:34:10Z</time>
      </trkpt>
      <trkpt lat="49.0751" lon="2.17829">
        <ele>75.17</ele>
        <time>2022-02-06T12:34:17Z</time>
      </trkpt>
      <trkpt lat="49.07521" lon="2.17842">
        <ele>74.37</ele>
        <time>2022-02-06T12:34:31Z</time>
      </trkpt>
      <trkpt lat="49.07527" lon="2.17857">
        <ele>73.81</ele>
        <time>2022-02-06T12:34:41Z</time>
      </trkpt>
      <trkpt lat="49.07527" lon="2.17867">
        <ele>73.36</ele>
        <time>2022-02-06T12:34:54Z</time>
      </trkpt>
      <trkpt lat="49.07527" lon="2.17868">
        <ele>73.32</ele>
        <time>2022-02-06T12:34:55Z</time>
      </trkpt>
      <trkpt lat="49.0753" lon="2.17883">
        <ele>73.31</ele>
        <time>2022-02-06T12:35:06Z</time>
      </trkpt>
      <trkpt lat="49.07532" lon="2.17891">
        <ele>73.13</ele>
        <time>2022-02-06T12:35:17Z</time>
      </trkpt>
      <trkpt lat="49.07532" lon="2.17892">
        <ele>73.35</ele>
        <time>2022-02-06T12:35:31Z</time>
      </trkpt>
      <trkpt lat="49.07532" lon="2.17893">
        <ele>72.55</ele>
        <time>2022-02-06T12:35:49Z</time>
      </trkpt>
      <trkpt lat="49.07532" lon="2.17892">
        <ele>73.21</ele>
        <time>2022-02-06T12:36:04Z</time>
      </trkpt>
      <trkpt lat="49.07529" lon="2.17885">
        <ele>72.77</ele>
        <time>2022-02-06T12:36:15Z</time>
      </trkpt>
      <trkpt lat="49.07525" lon="2.17871">
        <ele>72.63</ele>
        <time>2022-02-06T12:36:28Z</time>
      </trkpt>
      <trkpt lat="49.07528" lon="2.17871">
        <ele>72.71</ele>
        <time>2022-02-06T12:36:34Z</time>
      </trkpt>
      <trkpt lat="49.07529" lon="2.17877">
        <ele>72.99</ele>
        <time>2022-02-06T12:36:38Z</time>
      </trkpt>
      <trkpt lat="49.07533" lon="2.17886">
        <ele>73.71</ele>
        <time>2022-02-06T12:36:45Z</time>
      </trkpt>
      <trkpt lat="49.0754" lon="2.17905">
        <ele>72.51</ele>
        <time>2022-02-06T12:36:59Z</time>
      </trkpt>
      <trkpt lat="49.07548" lon="2.17924">
        <ele>71.87</ele>
        <time>2022-02-06T12:37:12Z</time>
      </trkpt>
      <trkpt lat="49.07553" lon="2.17942">
        <ele>71.99</ele>
        <time>2022-02-06T12:37:24Z</time>
      </trkpt>
      <trkpt lat="49.07563" lon="2.17959">
        <ele>71.38</ele>
        <time>2022-02-06T12:37:37Z</time>
      </trkpt>
      <trkpt lat="49.07566" lon="2.17964">
        <ele>70.2</ele>
        <time>2022-02-06T12:37:49Z</time>
      </trkpt>
      <trkpt lat="49.07571" lon="2.17974">
        <ele>70.74</ele>
        <time>2022-02-06T12:38:02Z</time>
      </trkpt>
      <trkpt lat="49.07582" lon="2.17987">
        <ele>70.94</ele>
        <time>2022-02-06T12:38:17Z</time>
      </trkpt>
      <trkpt lat="49.0759" lon="2.1801">
        <ele>71.19</ele>
        <time>2022-02-06T12:38:31Z</time>
      </trkpt>
      <trkpt lat="49.07599" lon="2.18037">
        <ele>71.29</ele>
        <time>2022-02-06T12:38:46Z</time>
      </trkpt>
      <trkpt lat="49.07602" lon="2.18042">
        <ele>71.47</ele>
        <time>2022-02-06T12:38:50Z</time>
      </trkpt>
      <trkpt lat="49.07606" lon="2.18049">
        <ele>71.06</ele>
        <time>2022-02-06T12:38:55Z</time>
      </trkpt>
      <trkpt lat="49.07608" lon="2.1806">
        <ele>71.09</ele>
        <time>2022-02-06T12:39:05Z</time>
      </trkpt>
      <trkpt lat="49.07613" lon="2.18084">
        <ele>70.64</ele>
        <time>2022-02-06T12:39:19Z</time>
      </trkpt>
      <trkpt lat="49.07617" lon="2.18097">
        <ele>69.58</ele>
        <time>2022-02-06T12:39:30Z</time>
      </trkpt>
      <trkpt lat="49.07624" lon="2.18119">
        <ele>68.92</ele>
        <time>2022-02-06T12:39:44Z</time>
      </trkpt>
      <trkpt lat="49.07631" lon="2.18139">
        <ele>69.45</ele>
        <time>2022-02-06T12:39:55Z</time>
      </trkpt>
      <trkpt lat="49.07635" lon="2.18149">
        <ele>69.25</ele>
        <time>2022-02-06T12:40:03Z</time>
      </trkpt>
      <trkpt lat="49.07641" lon="2.18171">
        <ele>68.49</ele>
        <time>2022-02-06T12:40:16Z</time>
      </trkpt>
      <trkpt lat="49.07651" lon="2.18187">
        <ele>68.35</ele>
        <time>2022-02-06T12:40:27Z</time>
      </trkpt>
      <trkpt lat="49.07657" lon="2.18203">
        <ele>67.96</ele>
        <time>2022-02-06T12:40:37Z</time>
      </trkpt>
      <trkpt lat="49.0766" lon="2.18208">
        <ele>67.73</ele>
        <time>2022-02-06T12:40:41Z</time>
      </trkpt>
      <trkpt lat="49.0767" lon="2.18227">
        <ele>68.21</ele>
        <time>2022-02-06T12:40:54Z</time>
      </trkpt>
      <trkpt lat="49.07673" lon="2.18235">
        <ele>67.21</ele>
        <time>2022-02-06T12:40:59Z</time>
      </trkpt>
      <trkpt lat="49.07679" lon="2.18248">
        <ele>68.58</ele>
        <time>2022-02-06T12:41:09Z</time>
      </trkpt>
      <trkpt lat="49.07687" lon="2.18267">
        <ele>69</ele>
        <time>2022-02-06T12:41:22Z</time>
      </trkpt>
      <trkpt lat="49.07694" lon="2.18289">
        <ele>68.56</ele>
        <time>2022-02-06T12:41:36Z</time>
      </trkpt>
      <trkpt lat="49.07701" lon="2.18311">
        <ele>68.78</ele>
        <time>2022-02-06T12:41:50Z</time>
      </trkpt>
      <trkpt lat="49.07706" lon="2.1833">
        <ele>69.01</ele>
        <time>2022-02-06T12:42:02Z</time>
      </trkpt>
      <trkpt lat="49.07711" lon="2.18346">
        <ele>69.75</ele>
        <time>2022-02-06T12:42:13Z</time>
      </trkpt>
      <trkpt lat="49.07718" lon="2.18364">
        <ele>68.71</ele>
        <time>2022-02-06T12:42:26Z</time>
      </trkpt>
      <trkpt lat="49.07725" lon="2.18383">
        <ele>69.72</ele>
        <time>2022-02-06T12:42:38Z</time>
      </trkpt>
      <trkpt lat="49.07726" lon="2.18388">
        <ele>69.69</ele>
        <time>2022-02-06T12:42:41Z</time>
      </trkpt>
      <trkpt lat="49.07729" lon="2.18401">
        <ele>71.32</ele>
        <time>2022-02-06T12:42:50Z</time>
      </trkpt>
      <trkpt lat="49.07738" lon="2.18421">
        <ele>71.44</ele>
        <time>2022-02-06T12:43:05Z</time>
      </trkpt>
      <trkpt lat="49.07741" lon="2.18431">
        <ele>71.18</ele>
        <time>2022-02-06T12:43:11Z</time>
      </trkpt>
      <trkpt lat="49.07751" lon="2.18449">
        <ele>70.51</ele>
        <time>2022-02-06T12:43:25Z</time>
      </trkpt>
      <trkpt lat="49.07762" lon="2.18467">
        <ele>70.36</ele>
        <time>2022-02-06T12:43:40Z</time>
      </trkpt>
      <trkpt lat="49.07773" lon="2.18481">
        <ele>71.09</ele>
        <time>2022-02-06T12:43:52Z</time>
      </trkpt>
      <trkpt lat="49.07781" lon="2.18493">
        <ele>70.68</ele>
        <time>2022-02-06T12:44:03Z</time>
      </trkpt>
      <trkpt lat="49.07785" lon="2.18499">
        <ele>71.18</ele>
        <time>2022-02-06T12:44:08Z</time>
      </trkpt>
      <trkpt lat="49.07795" lon="2.18515">
        <ele>70.4</ele>
        <time>2022-02-06T12:44:21Z</time>
      </trkpt>
      <trkpt lat="49.07803" lon="2.18531">
        <ele>71.16</ele>
        <time>2022-02-06T12:44:33Z</time>
      </trkpt>
      <trkpt lat="49.07812" lon="2.18548">
        <ele>69.95</ele>
        <time>2022-02-06T12:44:46Z</time>
      </trkpt>
      <trkpt lat="49.07817" lon="2.1856">
        <ele>70.52</ele>
        <time>2022-02-06T12:44:54Z</time>
      </trkpt>
      <trkpt lat="49.07825" lon="2.18578">
        <ele>70.29</ele>
        <time>2022-02-06T12:45:06Z</time>
      </trkpt>
      <trkpt lat="49.07832" lon="2.18599">
        <ele>70.27</ele>
        <time>2022-02-06T12:45:18Z</time>
      </trkpt>
      <trkpt lat="49.07836" lon="2.18607">
        <ele>70.19</ele>
        <time>2022-02-06T12:45:25Z</time>
      </trkpt>
      <trkpt lat="49.07839" lon="2.18614">
        <ele>70.02</ele>
        <time>2022-02-06T12:45:30Z</time>
      </trkpt>
      <trkpt lat="49.07846" lon="2.18636">
        <ele>70.12</ele>
        <time>2022-02-06T12:45:43Z</time>
      </trkpt>
      <trkpt lat="49.07848" lon="2.18641">
        <ele>68.86</ele>
        <time>2022-02-06T12:45:46Z</time>
      </trkpt>
      <trkpt lat="49.07857" lon="2.18657">
        <ele>68.94</ele>
        <time>2022-02-06T12:45:58Z</time>
      </trkpt>
      <trkpt lat="49.07863" lon="2.18674">
        <ele>68.89</ele>
        <time>2022-02-06T12:46:09Z</time>
      </trkpt>
      <trkpt lat="49.07868" lon="2.18685">
        <ele>68.68</ele>
        <time>2022-02-06T12:46:16Z</time>
      </trkpt>
      <trkpt lat="49.0787" lon="2.18693">
        <ele>68.78</ele>
        <time>2022-02-06T12:46:21Z</time>
      </trkpt>
      <trkpt lat="49.07876" lon="2.18707">
        <ele>68.87</ele>
        <time>2022-02-06T12:46:31Z</time>
      </trkpt>
      <trkpt lat="49.07881" lon="2.18726">
        <ele>68.77</ele>
        <time>2022-02-06T12:46:44Z</time>
      </trkpt>
      <trkpt lat="49.07886" lon="2.18737">
        <ele>67.68</ele>
        <time>2022-02-06T12:46:54Z</time>
      </trkpt>
      <trkpt lat="49.07886" lon="2.18741">
        <ele>68.86</ele>
        <time>2022-02-06T12:46:57Z</time>
      </trkpt>
      <trkpt lat="49.07891" lon="2.1875">
        <ele>68.89</ele>
        <time>2022-02-06T12:47:03Z</time>
      </trkpt>
      <trkpt lat="49.07894" lon="2.1876">
        <ele>68.99</ele>
        <time>2022-02-06T12:47:09Z</time>
      </trkpt>
      <trkpt lat="49.07897" lon="2.18769">
        <ele>67.79</ele>
        <time>2022-02-06T12:47:14Z</time>
      </trkpt>
      <trkpt lat="49.07902" lon="2.18777">
        <ele>69.44</ele>
        <time>2022-02-06T12:47:21Z</time>
      </trkpt>
      <trkpt lat="49.07907" lon="2.18788">
        <ele>70.59</ele>
        <time>2022-02-06T12:47:30Z</time>
      </trkpt>
      <trkpt lat="49.07912" lon="2.188">
        <ele>70.16</ele>
        <time>2022-02-06T12:47:41Z</time>
      </trkpt>
      <trkpt lat="49.07921" lon="2.18816">
        <ele>69.89</ele>
        <time>2022-02-06T12:47:53Z</time>
      </trkpt>
      <trkpt lat="49.07927" lon="2.18828">
        <ele>69.7</ele>
        <time>2022-02-06T12:48:02Z</time>
      </trkpt>
      <trkpt lat="49.07935" lon="2.18843">
        <ele>70.26</ele>
        <time>2022-02-06T12:48:13Z</time>
      </trkpt>
      <trkpt lat="49.07937" lon="2.18849">
        <ele>70.66</ele>
        <time>2022-02-06T12:48:23Z</time>
      </trkpt>
      <trkpt lat="49.07939" lon="2.18852">
        <ele>70.38</ele>
        <time>2022-02-06T12:48:26Z</time>
      </trkpt>
      <trkpt lat="49.07945" lon="2.18868">
        <ele>71.11</ele>
        <time>2022-02-06T12:48:37Z</time>
      </trkpt>
      <trkpt lat="49.0795" lon="2.1888">
        <ele>71.41</ele>
        <time>2022-02-06T12:48:49Z</time>
      </trkpt>
      <trkpt lat="49.0795" lon="2.18881">
        <ele>72.17</ele>
        <time>2022-02-06T12:48:50Z</time>
      </trkpt>
      <trkpt lat="49.07954" lon="2.18886">
        <ele>71.79</ele>
        <time>2022-02-06T12:48:54Z</time>
      </trkpt>
      <trkpt lat="49.07966" lon="2.18903">
        <ele>72.79</ele>
        <time>2022-02-06T12:49:07Z</time>
      </trkpt>
      <trkpt lat="49.0798" lon="2.18922">
        <ele>73.21</ele>
        <time>2022-02-06T12:49:22Z</time>
      </trkpt>
      <trkpt lat="49.07989" lon="2.18936">
        <ele>73.6</ele>
        <time>2022-02-06T12:49:34Z</time>
      </trkpt>
      <trkpt lat="49.08001" lon="2.18947">
        <ele>74.64</ele>
        <time>2022-02-06T12:49:45Z</time>
      </trkpt>
      <trkpt lat="49.08006" lon="2.18955">
        <ele>75.13</ele>
        <time>2022-02-06T12:49:52Z</time>
      </trkpt>
      <trkpt lat="49.08012" lon="2.18962">
        <ele>75.48</ele>
        <time>2022-02-06T12:49:57Z</time>
      </trkpt>
      <trkpt lat="49.08019" lon="2.1897">
        <ele>74.34</ele>
        <time>2022-02-06T12:50:05Z</time>
      </trkpt>
      <trkpt lat="49.08029" lon="2.18979">
        <ele>74.75</ele>
        <time>2022-02-06T12:50:15Z</time>
      </trkpt>
      <trkpt lat="49.08036" lon="2.1899">
        <ele>75.62</ele>
        <time>2022-02-06T12:50:24Z</time>
      </trkpt>
      <trkpt lat="49.0805" lon="2.19007">
        <ele>75.06</ele>
        <time>2022-02-06T12:50:39Z</time>
      </trkpt>
      <trkpt lat="49.08054" lon="2.19012">
        <ele>76.63</ele>
        <time>2022-02-06T12:50:43Z</time>
      </trkpt>
      <trkpt lat="49.08063" lon="2.19028">
        <ele>75.72</ele>
        <time>2022-02-06T12:50:55Z</time>
      </trkpt>
      <trkpt lat="49.08064" lon="2.19031">
        <ele>75.45</ele>
        <time>2022-02-06T12:50:57Z</time>
      </trkpt>
      <trkpt lat="49.08075" lon="2.19048">
        <ele>75.69</ele>
        <time>2022-02-06T12:51:10Z</time>
      </trkpt>
      <trkpt lat="49.08089" lon="2.19067">
        <ele>75.01</ele>
        <time>2022-02-06T12:51:26Z</time>
      </trkpt>
      <trkpt lat="49.08101" lon="2.19087">
        <ele>74.73</ele>
        <time>2022-02-06T12:51:41Z</time>
      </trkpt>
      <trkpt lat="49.08115" lon="2.19115">
        <ele>74.57</ele>
        <time>2022-02-06T12:52:01Z</time>
      </trkpt>
      <trkpt lat="49.08124" lon="2.19131">
        <ele>73.75</ele>
        <time>2022-02-06T12:52:13Z</time>
      </trkpt>
      <trkpt lat="49.08132" lon="2.19147">
        <ele>73.94</ele>
        <time>2022-02-06T12:52:24Z</time>
      </trkpt>
      <trkpt lat="49.08134" lon="2.19151">
        <ele>73.84</ele>
        <time>2022-02-06T12:52:27Z</time>
      </trkpt>
      <trkpt lat="49.08137" lon="2.19156">
        <ele>73.22</ele>
        <time>2022-02-06T12:52:31Z</time>
      </trkpt>
      <trkpt lat="49.08147" lon="2.19178">
        <ele>74</ele>
        <time>2022-02-06T12:52:46Z</time>
      </trkpt>
      <trkpt lat="49.08156" lon="2.19194">
        <ele>74.41</ele>
        <time>2022-02-06T12:52:58Z</time>
      </trkpt>
      <trkpt lat="49.08163" lon="2.1921">
        <ele>74.36</ele>
        <time>2022-02-06T12:53:09Z</time>
      </trkpt>
      <trkpt lat="49.08172" lon="2.19227">
        <ele>73.29</ele>
        <time>2022-02-06T12:53:23Z</time>
      </trkpt>
      <trkpt lat="49.08179" lon="2.19239">
        <ele>73.28</ele>
        <time>2022-02-06T12:53:33Z</time>
      </trkpt>
      <trkpt lat="49.08185" lon="2.19248">
        <ele>73.92</ele>
        <time>2022-02-06T12:53:39Z</time>
      </trkpt>
      <trkpt lat="49.08194" lon="2.19266">
        <ele>73.93</ele>
        <time>2022-02-06T12:53:52Z</time>
      </trkpt>
      <trkpt lat="49.08205" lon="2.19288">
        <ele>72.79</ele>
        <time>2022-02-06T12:54:08Z</time>
      </trkpt>
      <trkpt lat="49.08213" lon="2.19302">
        <ele>72.31</ele>
        <time>2022-02-06T12:54:19Z</time>
      </trkpt>
      <trkpt lat="49.08216" lon="2.19306">
        <ele>72.41</ele>
        <time>2022-02-06T12:54:22Z</time>
      </trkpt>
      <trkpt lat="49.08227" lon="2.19326">
        <ele>71.57</ele>
        <time>2022-02-06T12:54:37Z</time>
      </trkpt>
      <trkpt lat="49.08235" lon="2.19337">
        <ele>70.29</ele>
        <time>2022-02-06T12:54:48Z</time>
      </trkpt>
      <trkpt lat="49.08239" lon="2.19344">
        <ele>72.12</ele>
        <time>2022-02-06T12:54:53Z</time>
      </trkpt>
      <trkpt lat="49.08245" lon="2.19353">
        <ele>71.1</ele>
        <time>2022-02-06T12:55:02Z</time>
      </trkpt>
      <trkpt lat="49.08252" lon="2.19364">
        <ele>69.2</ele>
        <time>2022-02-06T12:55:11Z</time>
      </trkpt>
      <trkpt lat="49.08255" lon="2.19369">
        <ele>69.45</ele>
        <time>2022-02-06T12:55:16Z</time>
      </trkpt>
      <trkpt lat="49.08261" lon="2.19376">
        <ele>68.96</ele>
        <time>2022-02-06T12:55:23Z</time>
      </trkpt>
      <trkpt lat="49.08263" lon="2.19377">
        <ele>68.8</ele>
        <time>2022-02-06T12:55:25Z</time>
      </trkpt>
      <trkpt lat="49.08269" lon="2.19385">
        <ele>67.38</ele>
        <time>2022-02-06T12:55:38Z</time>
      </trkpt>
      <trkpt lat="49.08278" lon="2.19401">
        <ele>64.93</ele>
        <time>2022-02-06T12:55:55Z</time>
      </trkpt>
      <trkpt lat="49.08286" lon="2.19431">
        <ele>62.53</ele>
        <time>2022-02-06T12:56:13Z</time>
      </trkpt>
      <trkpt lat="49.08294" lon="2.19453">
        <ele>60.05</ele>
        <time>2022-02-06T12:56:27Z</time>
      </trkpt>
      <trkpt lat="49.08305" lon="2.19472">
        <ele>57.94</ele>
        <time>2022-02-06T12:56:42Z</time>
      </trkpt>
      <trkpt lat="49.08322" lon="2.19479">
        <ele>55.18</ele>
        <time>2022-02-06T12:56:59Z</time>
      </trkpt>
      <trkpt lat="49.08339" lon="2.19492">
        <ele>52.53</ele>
        <time>2022-02-06T12:57:17Z</time>
      </trkpt>
      <trkpt lat="49.08353" lon="2.195">
        <ele>50.05</ele>
        <time>2022-02-06T12:57:30Z</time>
      </trkpt>
      <trkpt lat="49.0837" lon="2.19502">
        <ele>48.04</ele>
        <time>2022-02-06T12:57:42Z</time>
      </trkpt>
      <trkpt lat="49.08376" lon="2.19504">
        <ele>47.87</ele>
        <time>2022-02-06T12:57:45Z</time>
      </trkpt>
      <trkpt lat="49.08391" lon="2.19513">
        <ele>46.89</ele>
        <time>2022-02-06T12:57:58Z</time>
      </trkpt>
      <trkpt lat="49.08405" lon="2.1952">
        <ele>45.41</ele>
        <time>2022-02-06T12:58:10Z</time>
      </trkpt>
      <trkpt lat="49.08422" lon="2.19527">
        <ele>43.36</ele>
        <time>2022-02-06T12:58:25Z</time>
      </trkpt>
      <trkpt lat="49.08424" lon="2.19528">
        <ele>43.46</ele>
        <time>2022-02-06T12:58:26Z</time>
      </trkpt>
      <trkpt lat="49.08442" lon="2.19536">
        <ele>41.43</ele>
        <time>2022-02-06T12:58:45Z</time>
      </trkpt>
      <trkpt lat="49.08442" lon="2.19546">
        <ele>40.5</ele>
        <time>2022-02-06T12:58:55Z</time>
      </trkpt>
      <trkpt lat="49.08432" lon="2.19545">
        <ele>39.32</ele>
        <time>2022-02-06T12:59:12Z</time>
      </trkpt>
      <trkpt lat="49.08422" lon="2.19549">
        <ele>36.19</ele>
        <time>2022-02-06T12:59:26Z</time>
      </trkpt>
      <trkpt lat="49.08412" lon="2.19559">
        <ele>34.99</ele>
        <time>2022-02-06T12:59:40Z</time>
      </trkpt>
      <trkpt lat="49.08411" lon="2.1956">
        <ele>34.68</ele>
        <time>2022-02-06T12:59:41Z</time>
      </trkpt>
      <trkpt lat="49.08407" lon="2.19571">
        <ele>32.46</ele>
        <time>2022-02-06T12:59:52Z</time>
      </trkpt>
      <trkpt lat="49.08403" lon="2.19585">
        <ele>30.66</ele>
        <time>2022-02-06T13:00:03Z</time>
      </trkpt>
      <trkpt lat="49.08397" lon="2.19605">
        <ele>28.96</ele>
        <time>2022-02-06T13:00:17Z</time>
      </trkpt>
      <trkpt lat="49.08395" lon="2.19628">
        <ele>28.2</ele>
        <time>2022-02-06T13:00:29Z</time>
      </trkpt>
      <trkpt lat="49.08394" lon="2.19652">
        <ele>26.94</ele>
        <time>2022-02-06T13:00:43Z</time>
      </trkpt>
      <trkpt lat="49.08392" lon="2.19669">
        <ele>25.69</ele>
        <time>2022-02-06T13:00:53Z</time>
      </trkpt>
      <trkpt lat="49.08391" lon="2.19686">
        <ele>25.03</ele>
        <time>2022-02-06T13:01:03Z</time>
      </trkpt>
      <trkpt lat="49.08389" lon="2.19705">
        <ele>24.76</ele>
        <time>2022-02-06T13:01:14Z</time>
      </trkpt>
      <trkpt lat="49.08389" lon="2.19717">
        <ele>24.51</ele>
        <time>2022-02-06T13:01:28Z</time>
      </trkpt>
      <trkpt lat="49.08388" lon="2.19718">
        <ele>24.51</ele>
        <time>2022-02-06T13:01:29Z</time>
      </trkpt>
      <trkpt lat="49.08381" lon="2.19726">
        <ele>22.94</ele>
        <time>2022-02-06T13:01:37Z</time>
      </trkpt>
      <trkpt lat="49.08372" lon="2.19724">
        <ele>23.66</ele>
        <time>2022-02-06T13:01:44Z</time>
      </trkpt>
      <trkpt lat="49.08365" lon="2.19721">
        <ele>24.14</ele>
        <time>2022-02-06T13:01:55Z</time>
      </trkpt>
      <trkpt lat="49.08353" lon="2.19722">
        <ele>23.78</ele>
        <time>2022-02-06T13:02:06Z</time>
      </trkpt>
      <trkpt lat="49.08341" lon="2.19721">
        <ele>23.91</ele>
        <time>2022-02-06T13:02:18Z</time>
      </trkpt>
      <trkpt lat="49.08329" lon="2.19721">
        <ele>23.76</ele>
        <time>2022-02-06T13:02:29Z</time>
      </trkpt>
      <trkpt lat="49.08321" lon="2.19728">
        <ele>23.45</ele>
        <time>2022-02-06T13:02:41Z</time>
      </trkpt>
      <trkpt lat="49.0832" lon="2.19732">
        <ele>22.64</ele>
        <time>2022-02-06T13:02:44Z</time>
      </trkpt>
      <trkpt lat="49.08316" lon="2.19742">
        <ele>22.67</ele>
        <time>2022-02-06T13:02:52Z</time>
      </trkpt>
      <trkpt lat="49.08315" lon="2.19745">
        <ele>22.75</ele>
        <time>2022-02-06T13:02:54Z</time>
      </trkpt>
      <trkpt lat="49.08309" lon="2.19761">
        <ele>24.37</ele>
        <time>2022-02-06T13:03:04Z</time>
      </trkpt>
      <trkpt lat="49.08303" lon="2.19778">
        <ele>24.11</ele>
        <time>2022-02-06T13:03:16Z</time>
      </trkpt>
      <trkpt lat="49.08303" lon="2.19779">
        <ele>23.79</ele>
        <time>2022-02-06T13:03:17Z</time>
      </trkpt>
      <trkpt lat="49.08302" lon="2.19784">
        <ele>25.13</ele>
        <time>2022-02-06T13:03:20Z</time>
      </trkpt>
      <trkpt lat="49.083" lon="2.1979">
        <ele>25.09</ele>
        <time>2022-02-06T13:03:25Z</time>
      </trkpt>
      <trkpt lat="49.08296" lon="2.19809">
        <ele>24.53</ele>
        <time>2022-02-06T13:03:36Z</time>
      </trkpt>
      <trkpt lat="49.08287" lon="2.19829">
        <ele>24.34</ele>
        <time>2022-02-06T13:03:49Z</time>
      </trkpt>
      <trkpt lat="49.08279" lon="2.1985">
        <ele>23.1</ele>
        <time>2022-02-06T13:04:03Z</time>
      </trkpt>
      <trkpt lat="49.08272" lon="2.1987">
        <ele>22.54</ele>
        <time>2022-02-06T13:04:16Z</time>
      </trkpt>
      <trkpt lat="49.0827" lon="2.19877">
        <ele>24.28</ele>
        <time>2022-02-06T13:04:20Z</time>
      </trkpt>
      <trkpt lat="49.08262" lon="2.19905">
        <ele>24.12</ele>
        <time>2022-02-06T13:04:38Z</time>
      </trkpt>
      <trkpt lat="49.08261" lon="2.19907">
        <ele>23.08</ele>
        <time>2022-02-06T13:04:39Z</time>
      </trkpt>
      <trkpt lat="49.08257" lon="2.19924">
        <ele>21.12</ele>
        <time>2022-02-06T13:04:49Z</time>
      </trkpt>
      <trkpt lat="49.08251" lon="2.19941">
        <ele>23.04</ele>
        <time>2022-02-06T13:05:00Z</time>
      </trkpt>
      <trkpt lat="49.08247" lon="2.19956">
        <ele>23.65</ele>
        <time>2022-02-06T13:05:11Z</time>
      </trkpt>
      <trkpt lat="49.08243" lon="2.19975">
        <ele>22.83</ele>
        <time>2022-02-06T13:05:22Z</time>
      </trkpt>
      <trkpt lat="49.0824" lon="2.19984">
        <ele>22.93</ele>
        <time>2022-02-06T13:05:27Z</time>
      </trkpt>
      <trkpt lat="49.08238" lon="2.19992">
        <ele>22.9</ele>
        <time>2022-02-06T13:05:32Z</time>
      </trkpt>
      <trkpt lat="49.08225" lon="2.20017">
        <ele>22.91</ele>
        <time>2022-02-06T13:05:51Z</time>
      </trkpt>
      <trkpt lat="49.0822" lon="2.20029">
        <ele>21.99</ele>
        <time>2022-02-06T13:06:07Z</time>
      </trkpt>
      <trkpt lat="49.08213" lon="2.20041">
        <ele>22.02</ele>
        <time>2022-02-06T13:06:19Z</time>
      </trkpt>
      <trkpt lat="49.08207" lon="2.20048">
        <ele>21.36</ele>
        <time>2022-02-06T13:06:24Z</time>
      </trkpt>
      <trkpt lat="49.08205" lon="2.2005">
        <ele>22.16</ele>
        <time>2022-02-06T13:06:26Z</time>
      </trkpt>
      <trkpt lat="49.08201" lon="2.20057">
        <ele>22.4</ele>
        <time>2022-02-06T13:06:31Z</time>
      </trkpt>
      <trkpt lat="49.08194" lon="2.20069">
        <ele>22.21</ele>
        <time>2022-02-06T13:06:44Z</time>
      </trkpt>
      <trkpt lat="49.08193" lon="2.20078">
        <ele>22.22</ele>
        <time>2022-02-06T13:06:56Z</time>
      </trkpt>
      <trkpt lat="49.08188" lon="2.20089">
        <ele>20.98</ele>
        <time>2022-02-06T13:07:10Z</time>
      </trkpt>
      <trkpt lat="49.08179" lon="2.201">
        <ele>20.8</ele>
        <time>2022-02-06T13:07:19Z</time>
      </trkpt>
      <trkpt lat="49.08173" lon="2.20111">
        <ele>21.08</ele>
        <time>2022-02-06T13:07:29Z</time>
      </trkpt>
      <trkpt lat="49.08177" lon="2.20119">
        <ele>20.65</ele>
        <time>2022-02-06T13:07:42Z</time>
      </trkpt>
      <trkpt lat="49.08186" lon="2.20127">
        <ele>20.74</ele>
        <time>2022-02-06T13:07:52Z</time>
      </trkpt>
      <trkpt lat="49.08194" lon="2.20133">
        <ele>20.75</ele>
        <time>2022-02-06T13:08:02Z</time>
      </trkpt>
      <trkpt lat="49.082" lon="2.20137">
        <ele>20.37</ele>
        <time>2022-02-06T13:08:07Z</time>
      </trkpt>
      <trkpt lat="49.08214" lon="2.20145">
        <ele>20.93</ele>
        <time>2022-02-06T13:08:19Z</time>
      </trkpt>
      <trkpt lat="49.08226" lon="2.20151">
        <ele>20.21</ele>
        <time>2022-02-06T13:08:30Z</time>
      </trkpt>
      <trkpt lat="49.08234" lon="2.20161">
        <ele>20.1</ele>
        <time>2022-02-06T13:08:39Z</time>
      </trkpt>
      <trkpt lat="49.08241" lon="2.20168">
        <ele>20</ele>
        <time>2022-02-06T13:08:47Z</time>
      </trkpt>
      <trkpt lat="49.08244" lon="2.2017">
        <ele>20.06</ele>
        <time>2022-02-06T13:08:49Z</time>
      </trkpt>
      <trkpt lat="49.0825" lon="2.20174">
        <ele>20.75</ele>
        <time>2022-02-06T13:08:55Z</time>
      </trkpt>
      <trkpt lat="49.08254" lon="2.20178">
        <ele>20.61</ele>
        <time>2022-02-06T13:08:58Z</time>
      </trkpt>
      <trkpt lat="49.08265" lon="2.20191">
        <ele>20.66</ele>
        <time>2022-02-06T13:09:09Z</time>
      </trkpt>
      <trkpt lat="49.08281" lon="2.20203">
        <ele>19.63</ele>
        <time>2022-02-06T13:09:23Z</time>
      </trkpt>
      <trkpt lat="49.08293" lon="2.20214">
        <ele>20.37</ele>
        <time>2022-02-06T13:09:35Z</time>
      </trkpt>
      <trkpt lat="49.08297" lon="2.20217">
        <ele>20.15</ele>
        <time>2022-02-06T13:09:39Z</time>
      </trkpt>
      <trkpt lat="49.08302" lon="2.20221">
        <ele>20.52</ele>
        <time>2022-02-06T13:09:44Z</time>
      </trkpt>
      <trkpt lat="49.08312" lon="2.20228">
        <ele>20.67</ele>
        <time>2022-02-06T13:09:55Z</time>
      </trkpt>
      <trkpt lat="49.08326" lon="2.20233">
        <ele>20.5</ele>
        <time>2022-02-06T13:10:09Z</time>
      </trkpt>
      <trkpt lat="49.0834" lon="2.20245">
        <ele>19.92</ele>
        <time>2022-02-06T13:10:25Z</time>
      </trkpt>
      <trkpt lat="49.08345" lon="2.2025">
        <ele>20.08</ele>
        <time>2022-02-06T13:10:40Z</time>
      </trkpt>
      <trkpt lat="49.08356" lon="2.20256">
        <ele>19.36</ele>
        <time>2022-02-06T13:10:54Z</time>
      </trkpt>
      <trkpt lat="49.08367" lon="2.20265">
        <ele>21.14</ele>
        <time>2022-02-06T13:11:08Z</time>
      </trkpt>
      <trkpt lat="49.0838" lon="2.20278">
        <ele>20.54</ele>
        <time>2022-02-06T13:11:24Z</time>
      </trkpt>
      <trkpt lat="49.08391" lon="2.2029">
        <ele>20.86</ele>
        <time>2022-02-06T13:11:37Z</time>
      </trkpt>
      <trkpt lat="49.08409" lon="2.20309">
        <ele>19.95</ele>
        <time>2022-02-06T13:11:51Z</time>
      </trkpt>
      <trkpt lat="49.08421" lon="2.20322">
        <ele>20.48</ele>
        <time>2022-02-06T13:12:02Z</time>
      </trkpt>
      <trkpt lat="49.08429" lon="2.20333">
        <ele>20.49</ele>
        <time>2022-02-06T13:12:11Z</time>
      </trkpt>
      <trkpt lat="49.08434" lon="2.20339">
        <ele>19.64</ele>
        <time>2022-02-06T13:12:24Z</time>
      </trkpt>
      <trkpt lat="49.08436" lon="2.20342">
        <ele>19.6</ele>
        <time>2022-02-06T13:12:43Z</time>
      </trkpt>
      <trkpt lat="49.0844" lon="2.20347">
        <ele>18.59</ele>
        <time>2022-02-06T13:12:56Z</time>
      </trkpt>
      <trkpt lat="49.0844" lon="2.20347">
        <ele>19.15</ele>
        <time>2022-02-06T13:13:18Z</time>
      </trkpt>
      <trkpt lat="49.08447" lon="2.20353">
        <ele>20.09</ele>
        <time>2022-02-06T13:13:32Z</time>
      </trkpt>
      <trkpt lat="49.08453" lon="2.20369">
        <ele>17.61</ele>
        <time>2022-02-06T13:13:45Z</time>
      </trkpt>
      <trkpt lat="49.08454" lon="2.20371">
        <ele>21.55</ele>
        <time>2022-02-06T13:13:46Z</time>
      </trkpt>
      <trkpt lat="49.08454" lon="2.20372">
        <ele>21.56</ele>
        <time>2022-02-06T13:13:47Z</time>
      </trkpt>
      <trkpt lat="49.08459" lon="2.20381">
        <ele>19.05</ele>
        <time>2022-02-06T13:13:58Z</time>
      </trkpt>
      <trkpt lat="49.08464" lon="2.20382">
        <ele>18.72</ele>
        <time>2022-02-06T13:14:11Z</time>
      </trkpt>
      <trkpt lat="49.08475" lon="2.20399">
        <ele>17.99</ele>
        <time>2022-02-06T13:14:26Z</time>
      </trkpt>
      <trkpt lat="49.0848" lon="2.20396">
        <ele>18.02</ele>
        <time>2022-02-06T13:14:34Z</time>
      </trkpt>
      <trkpt lat="49.08484" lon="2.20391">
        <ele>19.25</ele>
        <time>2022-02-06T13:14:45Z</time>
      </trkpt>
      <trkpt lat="49.08484" lon="2.20386">
        <ele>22.31</ele>
        <time>2022-02-06T13:15:02Z</time>
      </trkpt>
      <trkpt lat="49.08486" lon="2.20377">
        <ele>24.48</ele>
        <time>2022-02-06T13:15:16Z</time>
      </trkpt>
      <trkpt lat="49.08494" lon="2.20363">
        <ele>23.98</ele>
        <time>2022-02-06T13:15:30Z</time>
      </trkpt>
      <trkpt lat="49.08507" lon="2.20342">
        <ele>22.84</ele>
        <time>2022-02-06T13:15:46Z</time>
      </trkpt>
      <trkpt lat="49.08519" lon="2.20322">
        <ele>22.62</ele>
        <time>2022-02-06T13:16:00Z</time>
      </trkpt>
      <trkpt lat="49.08522" lon="2.20318">
        <ele>21.75</ele>
        <time>2022-02-06T13:16:03Z</time>
      </trkpt>
      <trkpt lat="49.08535" lon="2.20318">
        <ele>22.1</ele>
        <time>2022-02-06T13:16:15Z</time>
      </trkpt>
      <trkpt lat="49.08542" lon="2.20319">
        <ele>21.54</ele>
        <time>2022-02-06T13:16:25Z</time>
      </trkpt>
      <trkpt lat="49.08537" lon="2.2032">
        <ele>22.14</ele>
        <time>2022-02-06T13:16:41Z</time>
      </trkpt>
      <trkpt lat="49.08536" lon="2.2032">
        <ele>22.21</ele>
        <time>2022-02-06T13:17:06Z</time>
      </trkpt>
      <trkpt lat="49.08543" lon="2.20321">
        <ele>21.87</ele>
        <time>2022-02-06T13:17:19Z</time>
      </trkpt>
      <trkpt lat="49.08557" lon="2.20326">
        <ele>20.82</ele>
        <time>2022-02-06T13:17:35Z</time>
      </trkpt>
      <trkpt lat="49.08573" lon="2.20333">
        <ele>20.82</ele>
        <time>2022-02-06T13:17:49Z</time>
      </trkpt>
      <trkpt lat="49.08585" lon="2.20337">
        <ele>21.46</ele>
        <time>2022-02-06T13:18:01Z</time>
      </trkpt>
      <trkpt lat="49.08604" lon="2.20344">
        <ele>20.82</ele>
        <time>2022-02-06T13:18:17Z</time>
      </trkpt>
      <trkpt lat="49.08613" lon="2.20345">
        <ele>21.45</ele>
        <time>2022-02-06T13:18:28Z</time>
      </trkpt>
      <trkpt lat="49.08619" lon="2.20347">
        <ele>21.22</ele>
        <time>2022-02-06T13:18:34Z</time>
      </trkpt>
      <trkpt lat="49.08627" lon="2.20351">
        <ele>20.85</ele>
        <time>2022-02-06T13:18:41Z</time>
      </trkpt>
      <trkpt lat="49.08641" lon="2.20355">
        <ele>20.77</ele>
        <time>2022-02-06T13:18:54Z</time>
      </trkpt>
      <trkpt lat="49.08658" lon="2.20362">
        <ele>20.59</ele>
        <time>2022-02-06T13:19:09Z</time>
      </trkpt>
      <trkpt lat="49.08668" lon="2.2037">
        <ele>20.2</ele>
        <time>2022-02-06T13:19:20Z</time>
      </trkpt>
      <trkpt lat="49.08684" lon="2.20384">
        <ele>20.52</ele>
        <time>2022-02-06T13:19:35Z</time>
      </trkpt>
      <trkpt lat="49.08686" lon="2.20394">
        <ele>20.8</ele>
        <time>2022-02-06T13:19:42Z</time>
      </trkpt>
      <trkpt lat="49.08692" lon="2.20393">
        <ele>19.41</ele>
        <time>2022-02-06T13:19:48Z</time>
      </trkpt>
      <trkpt lat="49.08694" lon="2.20393">
        <ele>20.14</ele>
        <time>2022-02-06T13:19:53Z</time>
      </trkpt>
      <trkpt lat="49.08697" lon="2.20394">
        <ele>20.79</ele>
        <time>2022-02-06T13:19:56Z</time>
      </trkpt>
      <trkpt lat="49.08711" lon="2.20402">
        <ele>21.08</ele>
        <time>2022-02-06T13:20:10Z</time>
      </trkpt>
      <trkpt lat="49.08721" lon="2.20413">
        <ele>20.91</ele>
        <time>2022-02-06T13:20:22Z</time>
      </trkpt>
      <trkpt lat="49.08732" lon="2.20421">
        <ele>20.84</ele>
        <time>2022-02-06T13:20:34Z</time>
      </trkpt>
      <trkpt lat="49.08741" lon="2.20427">
        <ele>20.93</ele>
        <time>2022-02-06T13:20:43Z</time>
      </trkpt>
      <trkpt lat="49.08753" lon="2.20433">
        <ele>21.28</ele>
        <time>2022-02-06T13:20:55Z</time>
      </trkpt>
      <trkpt lat="49.08757" lon="2.20439">
        <ele>18.33</ele>
        <time>2022-02-06T13:20:59Z</time>
      </trkpt>
      <trkpt lat="49.08762" lon="2.20443">
        <ele>18.33</ele>
        <time>2022-02-06T13:21:03Z</time>
      </trkpt>
      <trkpt lat="49.08764" lon="2.20443">
        <ele>21.15</ele>
        <time>2022-02-06T13:21:05Z</time>
      </trkpt>
      <trkpt lat="49.08777" lon="2.20454">
        <ele>20.62</ele>
        <time>2022-02-06T13:21:18Z</time>
      </trkpt>
      <trkpt lat="49.08785" lon="2.20462">
        <ele>20.34</ele>
        <time>2022-02-06T13:21:26Z</time>
      </trkpt>
      <trkpt lat="49.08796" lon="2.20472">
        <ele>21.08</ele>
        <time>2022-02-06T13:21:38Z</time>
      </trkpt>
      <trkpt lat="49.08807" lon="2.20484">
        <ele>21.23</ele>
        <time>2022-02-06T13:21:51Z</time>
      </trkpt>
      <trkpt lat="49.08819" lon="2.20509">
        <ele>21.3</ele>
        <time>2022-02-06T13:22:05Z</time>
      </trkpt>
      <trkpt lat="49.08818" lon="2.20534">
        <ele>20.65</ele>
        <time>2022-02-06T13:22:21Z</time>
      </trkpt>
      <trkpt lat="49.08818" lon="2.2056">
        <ele>20.8</ele>
        <time>2022-02-06T13:22:37Z</time>
      </trkpt>
      <trkpt lat="49.08826" lon="2.20577">
        <ele>20.73</ele>
        <time>2022-02-06T13:22:54Z</time>
      </trkpt>
      <trkpt lat="49.08836" lon="2.20583">
        <ele>20.14</ele>
        <time>2022-02-06T13:23:08Z</time>
      </trkpt>
      <trkpt lat="49.0885" lon="2.20593">
        <ele>21.16</ele>
        <time>2022-02-06T13:23:22Z</time>
      </trkpt>
      <trkpt lat="49.08865" lon="2.206">
        <ele>21.18</ele>
        <time>2022-02-06T13:23:35Z</time>
      </trkpt>
      <trkpt lat="49.08877" lon="2.2061">
        <ele>20.4</ele>
        <time>2022-02-06T13:23:46Z</time>
      </trkpt>
      <trkpt lat="49.08888" lon="2.20618">
        <ele>20.9</ele>
        <time>2022-02-06T13:23:56Z</time>
      </trkpt>
      <trkpt lat="49.08902" lon="2.2062">
        <ele>20.49</ele>
        <time>2022-02-06T13:24:09Z</time>
      </trkpt>
      <trkpt lat="49.08914" lon="2.20629">
        <ele>19.64</ele>
        <time>2022-02-06T13:24:23Z</time>
      </trkpt>
      <trkpt lat="49.08929" lon="2.20636">
        <ele>20.55</ele>
        <time>2022-02-06T13:24:40Z</time>
      </trkpt>
      <trkpt lat="49.08942" lon="2.20641">
        <ele>19.46</ele>
        <time>2022-02-06T13:24:54Z</time>
      </trkpt>
      <trkpt lat="49.08958" lon="2.20644">
        <ele>20.03</ele>
        <time>2022-02-06T13:25:09Z</time>
      </trkpt>
      <trkpt lat="49.08973" lon="2.20652">
        <ele>19.37</ele>
        <time>2022-02-06T13:25:24Z</time>
      </trkpt>
      <trkpt lat="49.08975" lon="2.20653">
        <ele>19.36</ele>
        <time>2022-02-06T13:25:25Z</time>
      </trkpt>
      <trkpt lat="49.08978" lon="2.20654">
        <ele>19.37</ele>
        <time>2022-02-06T13:25:27Z</time>
      </trkpt>
      <trkpt lat="49.08995" lon="2.20662">
        <ele>19.92</ele>
        <time>2022-02-06T13:25:41Z</time>
      </trkpt>
      <trkpt lat="49.09017" lon="2.20672">
        <ele>19.29</ele>
        <time>2022-02-06T13:25:59Z</time>
      </trkpt>
      <trkpt lat="49.09018" lon="2.20672">
        <ele>19.5</ele>
        <time>2022-02-06T13:26:00Z</time>
      </trkpt>
      <trkpt lat="49.09025" lon="2.20682">
        <ele>18.57</ele>
        <time>2022-02-06T13:26:07Z</time>
      </trkpt>
      <trkpt lat="49.09031" lon="2.20685">
        <ele>19.18</ele>
        <time>2022-02-06T13:26:11Z</time>
      </trkpt>
      <trkpt lat="49.09036" lon="2.20689">
        <ele>19.44</ele>
        <time>2022-02-06T13:26:16Z</time>
      </trkpt>
      <trkpt lat="49.09051" lon="2.20699">
        <ele>19.45</ele>
        <time>2022-02-06T13:26:32Z</time>
      </trkpt>
      <trkpt lat="49.09052" lon="2.207">
        <ele>19.11</ele>
        <time>2022-02-06T13:26:33Z</time>
      </trkpt>
      <trkpt lat="49.09066" lon="2.20711">
        <ele>19.05</ele>
        <time>2022-02-06T13:26:45Z</time>
      </trkpt>
      <trkpt lat="49.09082" lon="2.20723">
        <ele>19.46</ele>
        <time>2022-02-06T13:26:59Z</time>
      </trkpt>
      <trkpt lat="49.09096" lon="2.20734">
        <ele>19.57</ele>
        <time>2022-02-06T13:27:09Z</time>
      </trkpt>
      <trkpt lat="49.09101" lon="2.20737">
        <ele>19.86</ele>
        <time>2022-02-06T13:27:12Z</time>
      </trkpt>
      <trkpt lat="49.09107" lon="2.20742">
        <ele>19.73</ele>
        <time>2022-02-06T13:27:17Z</time>
      </trkpt>
      <trkpt lat="49.09117" lon="2.20745">
        <ele>19.9</ele>
        <time>2022-02-06T13:27:27Z</time>
      </trkpt>
      <trkpt lat="49.09122" lon="2.20744">
        <ele>19.1</ele>
        <time>2022-02-06T13:27:33Z</time>
      </trkpt>
      <trkpt lat="49.09128" lon="2.20726">
        <ele>19.39</ele>
        <time>2022-02-06T13:27:45Z</time>
      </trkpt>
      <trkpt lat="49.09129" lon="2.20724">
        <ele>19.27</ele>
        <time>2022-02-06T13:27:47Z</time>
      </trkpt>
      <trkpt lat="49.09131" lon="2.20709">
        <ele>19.85</ele>
        <time>2022-02-06T13:27:55Z</time>
      </trkpt>
      <trkpt lat="49.09132" lon="2.20704">
        <ele>19.22</ele>
        <time>2022-02-06T13:27:58Z</time>
      </trkpt>
      <trkpt lat="49.09132" lon="2.20701">
        <ele>19.72</ele>
        <time>2022-02-06T13:28:00Z</time>
      </trkpt>
      <trkpt lat="49.09135" lon="2.20688">
        <ele>19.13</ele>
        <time>2022-02-06T13:28:07Z</time>
      </trkpt>
      <trkpt lat="49.09136" lon="2.20684">
        <ele>18.86</ele>
        <time>2022-02-06T13:28:09Z</time>
      </trkpt>
      <trkpt lat="49.09137" lon="2.2066">
        <ele>21.11</ele>
        <time>2022-02-06T13:28:20Z</time>
      </trkpt>
      <trkpt lat="49.09141" lon="2.2064">
        <ele>20.14</ele>
        <time>2022-02-06T13:28:30Z</time>
      </trkpt>
      <trkpt lat="49.09145" lon="2.20623">
        <ele>19.07</ele>
        <time>2022-02-06T13:28:40Z</time>
      </trkpt>
      <trkpt lat="49.09148" lon="2.20604">
        <ele>19.6</ele>
        <time>2022-02-06T13:28:51Z</time>
      </trkpt>
      <trkpt lat="49.09153" lon="2.20591">
        <ele>20.13</ele>
        <time>2022-02-06T13:29:01Z</time>
      </trkpt>
      <trkpt lat="49.09153" lon="2.20584">
        <ele>20.19</ele>
        <time>2022-02-06T13:29:05Z</time>
      </trkpt>
      <trkpt lat="49.09159" lon="2.20552">
        <ele>19.42</ele>
        <time>2022-02-06T13:29:21Z</time>
      </trkpt>
      <trkpt lat="49.09161" lon="2.20543">
        <ele>19.93</ele>
        <time>2022-02-06T13:29:29Z</time>
      </trkpt>
      <trkpt lat="49.09163" lon="2.2053">
        <ele>19.78</ele>
        <time>2022-02-06T13:29:37Z</time>
      </trkpt>
      <trkpt lat="49.09164" lon="2.20513">
        <ele>20.29</ele>
        <time>2022-02-06T13:29:48Z</time>
      </trkpt>
      <trkpt lat="49.09166" lon="2.20508">
        <ele>20.16</ele>
        <time>2022-02-06T13:30:05Z</time>
      </trkpt>
      <trkpt lat="49.09169" lon="2.20493">
        <ele>20.44</ele>
        <time>2022-02-06T13:30:18Z</time>
      </trkpt>
      <trkpt lat="49.09169" lon="2.20491">
        <ele>20.7</ele>
        <time>2022-02-06T13:30:20Z</time>
      </trkpt>
      <trkpt lat="49.09171" lon="2.20475">
        <ele>19.95</ele>
        <time>2022-02-06T13:30:33Z</time>
      </trkpt>
      <trkpt lat="49.09172" lon="2.2046">
        <ele>20.19</ele>
        <time>2022-02-06T13:30:45Z</time>
      </trkpt>
      <trkpt lat="49.09171" lon="2.20455">
        <ele>19.94</ele>
        <time>2022-02-06T13:30:51Z</time>
      </trkpt>
      <trkpt lat="49.09171" lon="2.20434">
        <ele>20.33</ele>
        <time>2022-02-06T13:31:04Z</time>
      </trkpt>
      <trkpt lat="49.09171" lon="2.20423">
        <ele>20.84</ele>
        <time>2022-02-06T13:31:11Z</time>
      </trkpt>
      <trkpt lat="49.09173" lon="2.20405">
        <ele>20.55</ele>
        <time>2022-02-06T13:31:22Z</time>
      </trkpt>
      <trkpt lat="49.09177" lon="2.20393">
        <ele>20.44</ele>
        <time>2022-02-06T13:31:28Z</time>
      </trkpt>
      <trkpt lat="49.09181" lon="2.2038">
        <ele>20.91</ele>
        <time>2022-02-06T13:31:35Z</time>
      </trkpt>
      <trkpt lat="49.09187" lon="2.20354">
        <ele>21.02</ele>
        <time>2022-02-06T13:31:49Z</time>
      </trkpt>
      <trkpt lat="49.09188" lon="2.2035">
        <ele>19.62</ele>
        <time>2022-02-06T13:31:51Z</time>
      </trkpt>
    </trkseg>
  </trk>
</gpx>